[[{"header":{"parameterUnit":"m.s-1","parameterCategory":1,"la1":30.6,"la2":28.766,"lo1":-90.7593,"lo2":-88.6598,"dy":0.0162,"dx":0.0183,"nx":116,"ny":114,"refTime":"2023-10-20T06:00:00:Z","depth":0,"parameterNumber":2,"parameterNumberName":"U-component_of_WINDS"},"data":[0.0,0.0,0.0,0.0,0.0,0.0,0.0,0.0,0.0,0.0,0.0,0.0,0.0,0.0,0.0,0.0,0.0,0.0,0.0,0.0,0.0,0.0,0.0,0.0,0.0,0.0,0.0,0.0,0.0,0.0,0.0,0.0,0.0,0.0,0.0,0.0,0.0,0.0,0.0,0.0,0.0,0.0,0.0,0.0,0.0,0.0,0.0,0.0,0.0,0.0,0.0,0.0,0.0,0.0,0.0,0.0,0.0,0.0,0.0,0.0,0.0,0.0,0.0,0.0,0.0,0.0,0.0,0.0,0.0,0.0,0.0,0.0,0.0,0.0,0.0,0.0,0.0,0.0,0.0,0.0,0.0,0.0,0.0,0.0,0.0,0.0,0.0,0.0,0.0,0.0,0.0,0.0,0.0,0.0,0.0,0.0,0.0,0.0,0.0,0.0,0.0,0.0,0.0,0.0,0.0,0.0,0.0,0.0,0.0,0.0,0.0,0.0,0.0,0.0,0.0,0.0,0.0,0.0,0.0,0.0,0.0,0.0,0.0,0.0,0.0,0.0,0.0,0.0,0.0,0.0,0.0,0.0,0.0,0.0,0.0,0.0,0.0,0.0,0.0,0.0,0.0,0.0,0.0,0.0,0.0,0.0,0.0,0.0,0.0,0.0,0.0,0.0,0.0,0.0,0.0,0.0,0.0,0.0,0.0,0.0,0.0,0.0,0.0,0.0,0.0,0.0,0.0,0.0,0.0,0.0,0.0,0.0,0.0,0.0,0.0,0.0,0.0,0.0,0.0,0.0,0.0,0.0,0.0,0.0,0.0,0.0,0.0,0.0,0.0,0.0,0.0,0.0,0.0,0.0,0.0,0.0,0.0,0.0,0.0,0.0,0.0,0.0,0.0,0.0,0.0,0.0,0.0,0.0,0.0,0.0,0.0,0.0,0.0,0.0,0.0,0.0,0.0,0.0,0.0,0.0,0.0,0.0,0.0,0.0,0.0,0.0,0.0,0.0,0.0,0.0,0.0,0.0,0.0,0.0,0.0,0.0,0.0,0.0,0.0,0.0,0.0,0.0,0.0,0.0,0.0,0.0,0.0,0.0,0.0,0.0,0.0,0.0,0.0,0.0,0.0,0.0,0.0,0.0,0.0,0.0,0.0,0.0,0.0,0.0,0.0,0.0,0.0,0.0,0.0,0.0,0.0,0.0,0.0,0.0,0.0,0.0,0.0,0.0,0.0,0.0,0.0,0.0,0.0,0.0,0.0,0.0,0.0,0.0,0.0,0.0,0.0,0.0,0.0,0.0,0.0,0.0,0.0,0.0,0.0,0.0,0.0,0.0,0.0,0.0,0.0,0.0,0.0,0.0,0.0,0.0,0.0,0.0,0.0,0.0,0.0,0.0,0.0,0.0,0.0,0.0,0.0,0.0,0.0,0.0,0.0,0.0,0.0,0.0,0.0,0.0,0.0,0.0,0.0,0.0,0.0,0.0,0.0,0.0,0.0,0.0,0.0,0.0,0.0,0.0,0.0,0.0,0.0,0.0,0.0,0.0,0.0,0.0,0.0,0.0,0.0,0.0,0.0,0.0,0.0,0.0,0.0,0.0,0.0,0.0,0.0,0.0,0.0,0.0,0.0,0.0,0.0,0.0,0.0,0.0,0.0,0.0,0.0,0.0,0.0,0.0,0.0,0.0,0.0,0.0,0.0,0.0,0.0,0.0,0.0,0.0,0.0,0.0,0.0,0.0,0.0,0.0,0.0,0.0,0.0,0.0,0.0,0.0,0.0,0.0,0.0,0.0,0.0,0.0,0.0,0.0,0.0,0.0,0.0,0.0,0.0,0.0,0.0,0.0,0.0,0.0,0.0,0.0,0.0,0.0,0.0,0.0,0.0,0.0,0.0,0.0,0.0,0.0,0.0,0.0,0.0,0.0,0.0,0.0,0.0,0.0,0.0,0.0,0.0,0.0,0.0,0.0,0.0,0.0,0.0,0.0,0.0,0.0,0.0,0.0,0.0,0.0,0.0,0.0,0.0,0.0,0.0,0.0,0.0,0.0,0.0,0.0,0.0,0.0,0.0,0.0,0.0,0.0,0.0,0.0,0.0,0.0,0.0,0.0,0.0,0.0,0.0,0.0,0.0,0.0,0.0,0.0,0.0,0.0,0.0,0.0,0.0,0.0,0.0,0.0,0.0,0.0,0.0,0.0,0.0,0.0,0.0,0.0,0.0,0.0,0.0,0.0,0.0,0.0,0.0,0.0,0.0,0.0,0.0,0.0,0.0,0.0,0.0,0.0,0.0,0.0,0.0,0.0,0.0,0.0,0.0,0.0,0.0,0.0,0.0,0.0,0.0,0.0,0.0,0.0,0.0,0.0,0.0,0.0,0.0,0.0,0.0,0.0,0.0,0.0,0.0,0.0,0.0,0.0,0.0,0.0,0.0,0.0,0.0,0.0,0.0,0.0,0.0,0.0,0.0,0.0,0.0,0.0,0.0,0.0,0.0,0.0,0.0,0.0,0.0,0.0,0.0,0.0,0.0,0.0,0.0,0.0,0.0,0.0,0.0,0.0,0.0,0.0,0.0,0.0,0.0,0.0,0.0,0.0,0.0,0.0,0.0,0.0,0.0,0.0,0.0,0.0,0.0,0.0,0.0,0.0,0.0,0.0,0.0,0.0,0.0,0.0,0.0,0.0,0.0,0.0,0.0,0.0,0.0,0.0,0.0,0.0,0.0,0.0,0.0,0.0,0.0,0.0,0.0,0.0,0.0,0.0,0.0,0.0,0.0,0.0,0.0,0.0,0.0,0.0,0.0,0.0,0.0,0.0,0.0,0.0,0.0,0.0,0.0,0.0,0.0,0.0,0.0,0.0,0.0,0.0,0.0,0.0,0.0,0.0,0.0,0.0,0.0,0.0,0.0,0.0,0.0,0.0,0.0,0.0,0.0,0.0,0.0,0.0,0.0,0.0,0.0,0.0,0.0,0.0,0.0,0.0,0.0,0.0,0.0,0.0,0.0,0.0,0.0,0.0,0.0,0.0,0.0,0.0,0.0,0.0,0.0,0.0,0.0,0.0,0.0,0.0,0.0,0.0,0.0,0.0,0.0,0.0,0.0,0.0,0.0,0.0,0.0,0.0,0.0,0.0,0.0,0.0,0.0,0.0,0.0,0.0,0.0,0.0,0.0,0.0,0.0,0.0,0.0,0.0,0.0,0.0,0.0,0.0,0.0,0.0,0.0,0.0,0.0,0.0,0.0,0.0,0.0,0.0,0.0,0.0,0.0,0.0,0.0,0.0,0.0,0.0,0.0,0.0,0.0,0.0,0.0,0.0,0.0,0.0,0.0,0.0,0.0,0.0,0.0,0.0,0.0,0.0,0.0,0.0,0.0,0.0,0.0,0.0,0.0,0.0,0.0,0.0,0.0,0.0,0.0,0.0,0.0,0.0,0.0,0.0,0.0,0.0,0.0,0.0,0.0,0.0,0.0,0.0,0.0,0.0,0.0,0.0,0.0,0.0,0.0,0.0,0.0,0.0,0.0,0.0,0.0,0.0,0.0,0.0,0.0,0.0,0.0,0.0,0.0,0.0,0.0,0.0,0.0,0.0,0.0,0.0,0.0,0.0,0.0,0.0,0.0,0.0,0.0,0.0,0.0,0.0,0.0,0.0,0.0,0.0,0.0,0.0,0.0,0.0,0.0,0.0,0.0,0.0,0.0,0.0,0.0,0.0,0.0,0.0,0.0,0.0,0.0,0.0,0.0,0.0,0.0,0.0,0.0,0.0,0.0,0.0,0.0,0.0,0.0,0.0,0.0,0.0,0.0,0.0,0.0,0.0,0.0,0.0,0.0,0.0,0.0,0.0,0.0,0.0,0.0,0.0,0.0,0.0,0.0,0.0,0.0,0.0,0.0,0.0,0.0,0.0,0.0,0.0,0.0,0.0,0.0,0.0,0.0,0.0,0.0,0.0,0.0,0.0,0.0,0.0,0.0,0.0,0.0,0.0,0.0,0.0,0.0,0.0,0.0,0.0,0.0,0.0,0.0,0.0,0.0,0.0,0.0,0.0,0.0,0.0,0.0,0.0,0.0,0.0,0.0,0.0,0.0,0.0,0.0,0.0,0.0,0.0,0.0,0.0,0.0,0.0,0.0,0.0,0.0,0.0,0.0,0.0,0.0,0.0,0.0,0.0,0.0,0.0,0.0,0.0,0.0,0.0,0.0,0.0,0.0,0.0,0.0,0.0,0.0,0.0,0.0,0.0,0.0,0.0,0.0,0.0,0.0,0.0,0.0,0.0,0.0,0.0,0.0,0.0,0.0,0.0,0.0,0.0,0.0,0.0,0.0,0.0,0.0,0.0,0.0,0.0,0.0,0.0,0.0,0.0,0.0,0.0,0.0,0.0,0.0,0.0,0.0,0.0,0.0,0.0,0.0,0.0,0.0,0.0,0.0,0.0,0.0,0.0,0.0,0.0,0.0,0.0,0.0,0.0,0.0,0.0,0.0,0.0,0.0,0.0,0.0,0.0,0.0,0.0,0.0,0.0,0.0,0.0,0.0,0.0,0.0,0.0,0.0,0.0,0.0,0.0,0.0,0.0,0.0,0.0,0.0,0.0,0.0,0.0,0.0,0.0,0.0,0.0,0.0,0.0,0.0,0.0,0.0,0.0,0.0,0.0,0.0,0.0,0.0,0.0,0.0,0.0,0.0,0.0,0.0,0.0,0.0,0.0,0.0,0.0,0.0,0.0,0.0,0.0,0.0,0.0,0.0,0.0,0.0,0.0,0.0,0.0,0.0,0.0,0.0,0.0,0.0,0.0,0.0,0.0,0.0,0.0,0.0,0.0,0.0,0.0,0.0,0.0,0.0,0.0,0.0,0.0,0.0,0.0,0.0,0.0,0.0,0.0,0.0,0.0,0.0,0.0,0.0,0.0,0.0,0.0,0.0,0.0,0.0,0.0,0.0,0.0,0.0,0.0,0.0,0.0,0.0,0.0,0.0,0.0,0.0,0.0,0.0,0.0,0.0,0.0,0.0,0.0,0.0,0.0,0.0,0.0,0.0,0.0,0.0,0.0,0.0,0.0,0.0,0.0,0.0,0.0,0.0,0.0,0.0,0.0,0.0,0.0,0.0,0.0,0.0,0.0,0.0,0.0,0.0,0.0,0.0,0.0,0.0,0.0,0.0,0.0,0.0,0.0,0.0,0.0,0.0,0.0,0.0,0.0,0.0,0.0,0.0,0.0,0.0,0.0,0.0,0.0,0.0,0.0,0.0,0.0,0.0,0.0,0.0,0.0,0.0,0.0,0.0,0.0,0.0,0.0,0.0,0.0,0.0,0.0,0.0,0.0,0.0,0.0,0.0,0.0,0.0,0.0,0.0,0.0,0.0,0.0,0.0,0.0,0.0,0.0,0.0,0.0,0.0,0.0,0.0,0.0,0.0,0.0,0.0,0.0,0.0,0.0,0.0,0.0,0.0,0.0,0.0,0.0,0.0,0.0,0.0,0.0,0.0,0.0,0.0,0.0,0.0,0.0,0.0,0.0,0.0,0.0,0.0,0.0,0.0,0.0,0.0,0.0,0.0,0.0,0.0,0.0,0.0,0.0,0.0,0.0,0.0,0.0,0.0,0.0,0.0,0.0,0.0,0.0,0.0,0.0,0.0,0.0,0.0,0.0,0.0,0.0,0.0,0.0,0.0,0.0,0.0,0.0,0.0,0.0,0.0,0.0,0.0,0.0,0.0,0.0,0.0,0.0,0.0,0.0,0.0,0.0,0.0,0.0,0.0,0.0,0.0,0.0,0.0,0.0,0.0,0.0,0.0,0.0,0.0,0.0,0.0,0.0,0.0,0.0,0.0,0.0,0.0,0.0,0.0,0.0,0.0,0.0,0.0,0.0,0.0,0.0,0.0,0.0,0.0,0.0,0.0,0.0,0.0,0.0,0.0,0.0,0.0,0.0,0.0,0.0,0.0,0.0,0.0,0.0,0.0,0.0,0.0,0.0,0.0,0.0,0.0,0.0,0.0,0.0,0.0,0.0,0.0,0.0,0.0,0.0,0.0,0.0,0.0,0.0,0.0,0.0,0.0,0.0,0.0,0.0,0.0,0.0,-1.2145,-1.2056,0.0,0.0,0.0,0.0,0.0,0.0,0.0,0.0,0.0,0.0,0.0,0.0,0.0,0.0,0.0,0.0,0.0,0.0,0.0,0.0,0.0,0.0,0.0,0.0,0.0,0.0,0.0,0.0,0.0,0.0,0.0,0.0,0.0,0.0,0.0,0.0,0.0,0.0,0.0,0.0,0.0,0.0,0.0,0.0,0.0,0.0,0.0,0.0,0.0,0.0,0.0,0.0,0.0,0.0,0.0,0.0,0.0,0.0,0.0,0.0,0.0,0.0,0.0,0.0,0.0,0.0,0.0,0.0,0.0,0.0,0.0,0.0,0.0,0.0,0.0,0.0,0.0,0.0,0.0,0.0,0.0,0.0,0.0,0.0,0.0,0.0,0.0,0.0,0.0,0.0,0.0,0.0,0.0,0.0,0.0,0.0,0.0,0.0,0.0,0.0,0.0,0.0,0.0,0.0,0.0,0.0,0.0,0.0,0.0,0.0,0.0,0.0,0.0,0.0,-1.3334,-1.2969,0.0,0.0,0.0,0.0,0.0,0.0,0.0,0.0,0.0,0.0,0.0,0.0,0.0,0.0,0.0,0.0,0.0,0.0,0.0,0.0,0.0,0.0,0.0,0.0,0.0,0.0,0.0,0.0,0.0,0.0,0.0,0.0,0.0,0.0,0.0,0.0,0.0,0.0,0.0,0.0,0.0,0.0,0.0,0.0,0.0,0.0,0.0,0.0,0.0,0.0,0.0,0.0,0.0,0.0,0.0,0.0,0.0,0.0,0.0,0.0,0.0,0.0,0.0,0.0,0.0,0.0,0.0,0.0,0.0,0.0,0.0,0.0,0.0,0.0,0.0,0.0,0.0,0.0,0.0,0.0,0.0,0.0,0.0,0.0,0.0,0.0,0.0,0.0,0.0,0.0,0.0,0.0,0.0,0.0,0.0,0.0,0.0,0.0,0.0,0.0,0.0,0.0,0.0,0.0,0.0,0.0,0.0,0.0,-1.4178,-1.4771,-1.553,-1.5903,-1.5921,-1.5632,-1.4604,-1.4069,-1.3815,-1.3558,0.0,0.0,0.0,0.0,0.0,0.0,0.0,0.0,0.0,0.0,0.0,0.0,0.0,0.0,0.0,0.0,0.0,0.0,0.0,0.0,0.0,0.0,0.0,0.0,0.0,0.0,0.0,0.0,0.0,0.0,0.0,0.0,0.0,0.0,0.0,0.0,0.0,0.0,-1.1453,-1.2254,-1.2618,-1.2608,-1.2693,0.0,0.0,0.0,0.0,0.0,0.0,0.0,0.0,0.0,0.0,0.0,0.0,0.0,0.0,0.0,0.0,0.0,0.0,0.0,0.0,0.0,0.0,0.0,0.0,0.0,0.0,0.0,0.0,0.0,0.0,0.0,0.0,0.0,0.0,0.0,0.0,0.0,0.0,0.0,0.0,0.0,0.0,0.0,-1.0135,-1.0609,0.0,0.0,0.0,0.0,0.0,0.0,0.0,0.0,0.0,0.0,0.0,0.0,0.0,-1.2745,-1.2998,-1.3779,-1.4312,-1.447,-1.4702,-1.5172,-1.5711,-1.5853,-1.5969,-1.6192,-1.632,0.0,-1.5509,-1.4568,0.0,0.0,0.0,0.0,0.0,0.0,0.0,0.0,0.0,0.0,0.0,0.0,0.0,0.0,0.0,0.0,0.0,0.0,0.0,0.0,0.0,0.0,0.0,0.0,0.0,0.0,0.0,0.0,0.0,0.0,0.0,0.0,0.0,0.0,0.0,0.0,-1.172,-1.2345,-1.2654,-1.3274,-1.3591,-1.3769,-1.4027,-1.3824,-1.318,-1.2647,0.0,0.0,0.0,0.0,0.0,0.0,0.0,0.0,0.0,0.0,0.0,0.0,0.0,0.0,0.0,0.0,0.0,0.0,0.0,0.0,0.0,0.0,0.0,0.0,0.0,0.0,0.0,0.0,0.0,0.0,0.0,0.0,0.0,0.0,0.0,0.0,0.0,0.0,0.0,-1.0226,-1.0753,-1.1464,-1.1222,-1.1152,0.0,0.0,0.0,0.0,0.0,0.0,0.0,0.0,0.0,-1.2791,-1.3046,-1.3478,-1.4012,-1.4545,-1.4905,-1.5177,-1.5614,-1.6023,-1.6166,-1.6391,-1.6443,-1.6443,-1.6558,-1.6404,-1.602,-1.5394,-1.5281,-1.5291,0.0,0.0,0.0,0.0,-1.2925,-1.2997,0.0,0.0,0.0,0.0,0.0,0.0,0.0,0.0,0.0,0.0,0.0,0.0,0.0,0.0,0.0,-0.8089,0.0,0.0,0.0,0.0,0.0,0.0,0.0,0.0,0.0,0.0,0.0,0.0,-1.2699,-1.3316,-1.3828,-1.4175,-1.4434,-1.4545,-1.4945,-1.4642,-1.394,-1.3317,-1.2946,0.0,0.0,0.0,0.0,0.0,0.0,0.0,0.0,0.0,0.0,0.0,0.0,0.0,0.0,0.0,0.0,0.0,0.0,0.0,0.0,0.0,0.0,0.0,0.0,0.0,0.0,0.0,0.0,0.0,0.0,0.0,0.0,0.0,0.0,0.0,0.0,0.0,0.0,-1.0894,-1.1417,-1.217,-1.2035,-1.1992,0.0,0.0,0.0,0.0,0.0,0.0,-1.2919,-1.2951,-1.3233,-1.3691,-1.3767,-1.4089,-1.4799,-1.5041,-1.539,-1.5981,-1.6328,-1.6549,-1.6731,-1.6856,-1.6856,-1.6731,-1.6731,-1.651,-1.6294,-1.5954,-1.5678,-1.5452,-1.4792,-1.4418,-1.4163,-1.3981,-1.3946,-1.4181,0.0,0.0,0.0,0.0,0.0,0.0,0.0,0.0,0.0,0.0,0.0,0.0,0.0,0.0,-0.8103,-0.913,-0.9117,-0.9482,0.0,0.0,0.0,0.0,0.0,0.0,0.0,0.0,0.0,-1.2652,-1.3708,-1.4374,-1.4746,-1.5023,-1.5173,-1.5123,-1.5308,-1.5337,-1.515,-1.4297,-1.3777,-1.3492,0.0,0.0,0.0,0.0,0.0,0.0,0.0,0.0,0.0,0.0,0.0,0.0,0.0,0.0,0.0,0.0,0.0,0.0,0.0,0.0,0.0,0.0,0.0,0.0,0.0,0.0,0.0,0.0,0.0,0.0,0.0,0.0,0.0,0.0,0.0,0.0,0.0,0.0,0.0,-1.2707,-1.2713,0.0,0.0,0.0,0.0,-1.3659,-1.3438,-1.359,-1.4395,-1.3988,-1.4036,-1.4757,-1.4581,-1.4826,-1.5537,-1.5548,-1.6019,-1.6741,-1.65,-1.6635,-1.7268,-1.701,-1.701,-1.7262,-1.7262,-1.7128,-1.6686,-1.5959,-1.5646,-1.5659,-1.5395,-1.5227,-1.5332,-1.5321,-1.5155,-1.4978,0.0,0.0,0.0,0.0,0.0,0.0,0.0,0.0,0.0,0.0,0.0,0.0,0.0,-0.8594,-0.9255,-0.9651,-1.0412,-1.0875,-1.1056,0.0,0.0,0.0,0.0,0.0,0.0,0.0,-1.2474,-1.3592,-1.4312,-1.485,-1.5378,-1.5846,-1.6079,-1.594,-1.6159,-1.6171,-1.5973,-1.4823,-1.4101,-1.3633,-1.2764,-1.2097,0.0,0.0,0.0,0.0,0.0,0.0,0.0,0.0,0.0,0.0,0.0,0.0,0.0,0.0,0.0,0.0,0.0,0.0,0.0,0.0,0.0,0.0,0.0,0.0,0.0,0.0,0.0,0.0,0.0,0.0,0.0,0.0,0.0,0.0,0.0,0.0,0.0,-1.4005,-1.3972,0.0,-1.478,-1.4542,-1.4472,-1.4653,-1.505,-1.5249,-1.5091,-1.5275,-1.5452,-1.5432,-1.5489,-1.5653,-1.5822,-1.5984,-1.614,-1.6436,-1.6555,-1.6679,-1.6684,-1.6802,-1.6802,-1.6684,-1.6684,-1.656,-1.6414,-1.6154,-1.603,-1.5913,-1.5642,-1.5527,-1.5561,-1.5561,-1.5635,-1.5778,0.0,0.0,0.0,0.0,0.0,0.0,0.0,0.0,0.0,0.0,0.0,-0.8297,-0.8533,-0.939,-1.0076,-1.0462,-1.1337,-1.1885,-1.1813,0.0,0.0,0.0,0.0,0.0,0.0,-1.2444,-1.3279,-1.4475,-1.4919,-1.5443,-1.6077,-1.6387,-1.6518,-1.6367,-1.6551,-1.647,-1.6154,-1.5354,-1.4764,-1.4228,-1.3499,-1.277,-1.2116,0.0,0.0,0.0,0.0,0.0,0.0,0.0,0.0,0.0,0.0,0.0,0.0,0.0,0.0,0.0,0.0,0.0,0.0,0.0,0.0,0.0,0.0,0.0,0.0,0.0,0.0,0.0,0.0,0.0,0.0,0.0,0.0,0.0,0.0,-1.3265,-1.3878,-1.4784,-1.5073,-1.5317,-1.5596,-1.5776,-1.5788,-1.5469,-1.6024,-1.6168,-1.5778,-1.6069,-1.62,-1.6059,-1.6076,-1.6275,-1.6552,-1.6557,-1.6684,-1.7058,-1.7046,-1.6921,-1.6921,-1.6921,-1.6795,-1.6549,-1.6549,-1.6549,-1.6544,-1.6463,-1.6334,-1.6151,-1.5872,-1.572,-1.558,-1.5653,-1.5721,-1.5937,0.0,0.0,0.0,0.0,0.0,0.0,0.0,0.0,0.0,0.0,-0.8099,-0.8599,-0.957,-0.997,-1.0539,-1.1529,-1.1933,-1.2353,-1.2765,-1.25,0.0,0.0,0.0,0.0,-1.2189,-1.3263,-1.4326,-1.5335,-1.5597,-1.6092,-1.6742,-1.6485,-1.6396,-1.6396,-1.6396,-1.6226,-1.5782,-1.5967,-1.5792,-1.5362,-1.4856,-1.4073,-1.3157,0.0,0.0,0.0,0.0,0.0,0.0,0.0,0.0,0.0,0.0,0.0,0.0,0.0,0.0,0.0,0.0,0.0,0.0,0.0,0.0,0.0,0.0,0.0,0.0,0.0,0.0,0.0,0.0,0.0,0.0,0.0,0.0,0.0,-1.3432,-1.4145,-1.4763,-1.4995,-1.5873,-1.6337,-1.5973,-1.6493,-1.6652,-1.6386,-1.6318,-1.6383,-1.652,-1.6335,-1.6314,-1.6758,-1.6342,-1.6563,-1.7645,-1.7177,-1.7443,-1.8571,-1.7787,-1.7653,-1.7905,-1.7254,-1.6996,-1.7001,-1.7001,-1.7001,-1.6985,-1.6764,-1.6673,-1.6729,-1.626,-1.5861,-1.5682,-1.568,-1.5614,-1.5535,0.0,0.0,0.0,0.0,0.0,0.0,0.0,0.0,0.0,0.0,-0.8437,-0.9054,-0.9651,-1.0701,-1.1375,-1.1567,-1.2435,-1.2837,-1.2453,0.0,0.0,0.0,0.0,0.0,-1.3793,-1.4255,-1.495,-1.5797,-1.5974,-1.6349,-1.6816,-1.715,-1.7261,-1.7062,-1.7261,-1.7169,-1.6885,-1.6515,-1.6387,-1.6159,-1.5182,-1.4412,-1.3607,0.0,0.0,0.0,0.0,0.0,0.0,0.0,0.0,0.0,0.0,0.0,0.0,0.0,0.0,0.0,0.0,0.0,0.0,0.0,0.0,0.0,0.0,0.0,0.0,0.0,0.0,0.0,0.0,0.0,0.0,0.0,-1.4177,-1.4614,-1.4665,-1.5176,-1.5765,-1.6467,-1.7038,-1.72,-1.7125,-1.7508,-1.741,-1.6873,-1.7249,-1.7375,-1.7171,-1.7484,-1.7358,-1.6635,-1.7265,-1.7409,-1.6892,-1.74,-1.7833,-1.8168,-1.7601,-1.7352,-1.7653,-1.709,-1.6845,-1.7001,-1.7001,-1.7001,-1.6996,-1.6937,-1.7044,-1.7251,-1.6819,-1.6475,-1.6458,-1.6816,-1.7006,-1.7132,0.0,0.0,0.0,0.0,0.0,0.0,0.0,0.0,0.0,0.0,-0.8857,-0.9562,-1.0371,-1.1194,-1.1759,-1.203,-1.2693,-1.2971,-1.2657,0.0,0.0,0.0,0.0,-1.4157,-1.4564,-1.5179,-1.5713,-1.611,-1.6334,-1.6736,-1.7055,-1.7345,-1.7426,-1.7333,-1.7434,-1.7434,-1.7153,-1.6871,-1.6678,-1.648,-1.5581,-1.4902,-1.4335,-1.3859,-1.3174,-1.2478,-1.2287,-1.2116,-1.1912,-1.1482,0.0,0.0,0.0,0.0,0.0,0.0,0.0,0.0,0.0,0.0,0.0,0.0,0.0,0.0,0.0,0.0,0.0,0.0,0.0,0.0,0.0,0.0,0.0,0.0,-1.4998,-1.5622,-1.5988,-1.637,-1.6754,-1.7268,-1.7702,-1.7875,-1.7831,-1.8027,-1.7842,-1.7261,-1.7636,-1.7805,-1.7561,-1.7952,-1.7777,-1.7109,-1.7649,-1.7742,-1.7207,-1.7888,-1.8215,-1.8425,-1.8024,-1.7902,-1.7916,-1.7513,-1.7262,-1.7389,-1.7265,-1.7265,-1.7389,-1.7265,-1.7394,-1.7608,0.0,0.0,0.0,0.0,-1.7608,-1.8024,0.0,0.0,0.0,0.0,0.0,0.0,0.0,0.0,0.0,0.0,0.0,-0.9946,-1.1265,-1.1464,-1.1824,-1.2445,-1.2704,-1.2913,0.0,0.0,0.0,-1.37,-1.4314,-1.4746,-1.4969,-1.5911,-1.6414,-1.6286,-1.6699,-1.7073,-1.7333,-1.7333,-1.7333,-1.7239,-1.7239,-1.7153,-1.6979,-1.6979,-1.6878,-1.6588,-1.6116,-1.5638,-1.512,-1.4807,-1.4402,-1.3908,-1.3676,-1.3216,-1.2735,-1.2508,0.0,0.0,0.0,0.0,0.0,0.0,0.0,0.0,0.0,0.0,0.0,0.0,0.0,0.0,0.0,0.0,0.0,0.0,0.0,0.0,0.0,0.0,0.0,0.0,-1.5831,-1.642,-1.7081,-1.7475,-1.7669,-1.7642,-1.8085,-1.8268,-1.8052,-1.8183,-1.8151,-1.7545,-1.7744,-1.7859,-1.7848,-1.7919,0.0,0.0,0.0,-1.8095,-1.8294,-1.8348,-1.8613,-1.9078,-1.867,-1.8542,-1.8571,-1.8145,-1.8011,-1.8033,-1.7658,-1.7658,-1.7905,-1.7658,-1.7658,-1.7993,-1.7559,-1.7512,-1.746,-1.7373,-1.7738,-1.8348,0.0,0.0,0.0,0.0,0.0,0.0,0.0,0.0,0.0,-0.8585,-0.9196,-0.9899,-1.0633,-1.1447,-1.1969,-1.2028,-1.2712,-1.3143,0.0,0.0,-1.3824,-1.4244,-1.5352,-1.5944,-1.5921,-1.6403,-1.6705,-1.6885,-1.7014,-1.7214,-1.7628,-1.7628,-1.7441,-1.7066,-1.7066,-1.7073,-1.6979,-1.6784,-1.6784,-1.6878,-1.6784,-1.6487,-1.5922,-1.5511,-1.534,-1.5187,-1.454,-1.4326,-1.4175,-1.3271,-1.2971,-1.2904,-1.2239,0.0,0.0,0.0,0.0,0.0,0.0,0.0,0.0,0.0,0.0,0.0,0.0,0.0,0.0,0.0,0.0,0.0,0.0,0.0,0.0,-1.579,-1.6346,-1.666,-1.7095,-1.7531,-1.7882,-1.7875,-1.84,-1.8461,-1.7996,-1.7933,-1.7859,-1.7452,-1.7493,-1.7661,-1.7829,-1.8243,-1.8285,-1.7617,-1.8339,-1.859,-1.7919,-1.8584,-1.8976,-1.9072,-1.8595,0.0,-1.8565,-1.7966,-1.7851,-1.8033,-1.7658,-1.7658,-1.7905,-1.7658,-1.7922,-1.8431,-1.8332,-1.8546,-1.8782,-1.8686,-1.8837,-1.8915,0.0,0.0,0.0,0.0,0.0,0.0,0.0,0.0,0.0,0.0,-0.95,-1.0084,-1.0757,-1.1361,-1.1726,-1.1696,-1.2272,0.0,0.0,-1.3261,-1.3902,-1.468,-1.5451,-1.5881,-1.5967,-1.6405,-1.6584,-1.6488,-1.681,-1.7138,-1.7482,-1.7453,-1.7441,-1.7347,-1.7246,-1.7254,-1.7355,-1.6972,-1.6972,-1.7153,-1.6588,-1.6497,-1.6686,-1.6371,-1.5944,-1.5545,-1.4969,-1.4594,-1.4208,-1.3658,-1.3294,-1.3011,-1.2494,-1.2063,-1.1519,0.0,0.0,0.0,0.0,0.0,0.0,0.0,0.0,0.0,0.0,0.0,0.0,0.0,0.0,-1.3967,-1.4554,0.0,-1.5615,-1.6098,-1.6579,-1.695,-1.7135,-1.7663,-1.7966,-1.8053,-1.8205,-1.8277,-1.8164,-1.7925,-1.7774,-1.7649,-1.7637,-1.7817,-1.8076,-1.8342,-1.8372,-1.7857,-1.8734,-1.8819,-1.8048,-1.8813,-1.9078,-1.9072,-1.8557,-1.8442,-1.8571,-1.8185,-1.8119,-1.8245,-1.8108,-1.829,-1.8673,-1.869,-1.8959,-1.9227,-1.9227,-1.919,-1.9078,-1.9078,-1.9157,-1.9253,0.0,0.0,0.0,0.0,0.0,0.0,0.0,0.0,0.0,0.0,0.0,-1.0084,-1.0775,-1.1052,-1.1267,0.0,0.0,0.0,0.0,-1.3209,-1.4026,-1.5096,-1.5451,-1.5699,-1.5809,-1.6263,-1.636,-1.5999,-1.6603,-1.6913,-1.7236,-1.7305,-1.7368,-1.7535,-1.7333,-1.7426,-1.7628,-1.7254,-1.7153,-1.7333,-1.6487,-1.6546,-1.7208,-1.7044,-1.6476,-1.589,-1.5403,-1.4662,-1.3992,-1.3754,-1.3314,-1.2755,-1.2466,-1.1987,-1.1506,-1.0773,-1.0672,0.0,0.0,0.0,0.0,0.0,0.0,0.0,0.0,-1.2572,-1.2886,-1.3967,-1.4276,-1.4572,-1.5389,-1.5793,-1.6158,-1.6437,-1.6807,-1.7161,-1.7211,-1.7609,-1.7913,-1.7849,-1.7935,-1.7991,-1.8243,-1.7955,-1.7765,-1.7841,-1.7787,-1.7974,-1.8197,-1.8312,-1.8348,-1.8294,-1.8801,-1.8873,-1.8327,-1.874,-1.895,-1.8944,-1.8565,-1.8442,-1.8448,-1.845,-1.8433,-1.8444,-1.869,-1.9067,-1.9329,-1.9747,-1.9857,-1.9802,-1.9802,-1.9507,-1.909,-1.9193,-1.9301,-1.9368,0.0,0.0,0.0,0.0,0.0,0.0,0.0,0.0,0.0,0.0,0.0,0.0,0.0,0.0,0.0,0.0,0.0,0.0,0.0,-1.3972,-1.4775,-1.5342,-1.5999,-1.6261,-1.6079,-1.6275,-1.6362,-1.6249,-1.6496,-1.6835,-1.7228,-1.7175,-1.7162,-1.7073,-1.7239,-1.7333,-1.7333,-1.7333,-1.7434,-1.7628,-1.7239,-1.7165,-1.7182,-1.6963,-1.695,-1.6862,-1.5884,-1.5218,-1.4627,-1.3649,-1.3203,-1.292,-1.256,-1.2074,-1.1643,-1.1299,-1.0911,-1.0729,-1.1207,-1.1599,-1.1938,-1.2058,-1.2264,-1.2546,0.0,-1.3307,-1.3626,-1.4242,-1.4635,-1.5115,-1.5706,-1.6266,-1.6736,-1.6921,-1.723,-1.7515,-1.7408,-1.7495,-1.751,-1.7523,-1.8064,-1.8243,-1.7865,-1.7667,-1.7531,-1.7848,-1.7531,-1.7655,-1.7919,-1.8378,-1.8535,-1.83,-1.8801,-1.892,-1.8617,-1.8676,-1.8437,-1.8168,-1.8039,-1.8039,-1.8045,-1.8313,-1.8433,-1.8444,-1.8951,-1.9329,-1.9468,-1.9747,-1.9736,-1.9513,-1.9513,-1.9332,-1.9132,-1.9615,-1.9513,-1.9279,0.0,0.0,0.0,0.0,0.0,0.0,0.0,0.0,0.0,0.0,0.0,0.0,0.0,0.0,0.0,0.0,0.0,0.0,-1.2748,-1.3572,-1.44,-1.5193,-1.5847,-1.6158,-1.5944,-1.6219,-1.6216,-1.595,-1.6229,-1.6556,-1.6843,-1.6758,-1.6914,-1.7236,-1.7048,-1.7131,-1.7326,-1.7249,-1.743,-1.7812,-1.7446,-1.742,-1.7568,-1.7011,-1.6698,-1.6465,-1.5906,-1.5204,0.0,0.0,-1.3506,-1.3092,-1.2552,-1.2182,-1.1829,-1.1567,-1.1266,-1.1089,-1.1605,-1.2012,-1.2315,-1.2529,-1.2576,-1.2768,-1.3412,-1.3591,-1.3773,-1.4415,-1.4787,-1.514,-1.5368,-1.5971,-1.6427,-1.639,-1.6876,-1.7301,-1.7297,-1.7444,-1.7414,-1.7261,-1.7579,-1.7824,-1.763,-1.7292,-1.7404,-1.778,-1.7696,-1.7895,-1.833,-1.8559,-1.8704,-1.8746,-1.8963,-1.895,-1.8571,-1.8571,-1.8437,-1.8033,-1.7781,-1.7781,-1.805,-1.7928,-1.8401,-1.9073,-1.9446,-1.9699,-1.9969,-2.011,-2.0044,-1.9923,-1.9772,-1.9736,-1.9742,-1.9501,-1.947,-1.9543,0.0,0.0,0.0,0.0,0.0,0.0,0.0,0.0,0.0,0.0,0.0,0.0,0.0,0.0,0.0,0.0,0.0,0.0,0.0,-1.342,-1.4197,-1.5029,-1.5593,0.0,-1.5668,-1.6082,-1.6172,-1.5771,-1.6187,-1.6569,-1.6846,-1.6654,-1.69,-1.7509,-1.7079,-1.7079,-1.7453,-1.7535,-1.7619,-1.7835,-1.7529,-1.7508,-1.7455,-1.676,-1.63,-1.5967,-1.5635,-1.4972,0.0,0.0,-1.3498,-1.2928,-1.2342,-1.1985,-1.1781,-1.1713,-1.1649,-1.1616,-1.1981,-1.2247,-1.2602,-1.2798,-1.2952,-1.3133,-1.3773,-1.3921,-1.3996,-1.4716,-1.5038,-1.5215,-1.5215,-1.5741,-1.6109,-1.5922,-1.6441,-1.6893,-1.6972,-1.708,-1.708,-1.7007,-1.7073,-1.7116,-1.7231,-1.7169,-1.7427,-1.7962,-1.7992,-1.8161,-1.8553,-1.8716,-1.8813,-1.8855,-1.9,-1.895,-1.8437,-1.8437,-1.8173,-1.7776,-1.7529,-1.7658,-1.7798,-1.7829,-1.8524,-1.9462,-1.9562,-1.9758,-2.0171,-2.0171,-2.0122,-2.0044,-1.9929,-1.9953,-1.9989,-1.9483,-1.9549,-1.9869,0.0,0.0,0.0,0.0,0.0,0.0,0.0,0.0,0.0,0.0,0.0,0.0,0.0,0.0,0.0,0.0,0.0,0.0,0.0,-1.3857,-1.4533,-1.5108,-1.5495,-1.5565,-1.5304,-1.589,-1.607,-1.5927,-1.6652,-1.7153,-1.7492,-1.727,-1.736,-1.7668,-1.7509,-1.7525,-1.7723,-1.8063,-1.8024,-1.7755,-1.7827,-1.7386,-1.6591,-1.6156,-1.5997,-1.5859,-1.5327,0.0,0.0,0.0,-1.2895,-1.2344,-1.1997,-1.1648,-1.1358,-1.1713,-1.1998,-1.221,-1.2133,-1.2454,-1.2928,-1.2952,-1.345,-1.393,-1.4195,-1.4479,-1.4829,-1.5354,-1.5475,-1.5487,-1.5487,-1.5716,-1.5897,-1.5891,-1.6127,-1.6398,-1.6676,-1.6483,-1.6423,-1.6642,-1.6293,-1.6181,-1.6714,-1.7235,-1.7769,-1.8221,-1.8281,-1.8287,-1.8306,-1.8788,-1.8837,-1.833,-1.8813,-1.8688,-1.8039,-1.8039,-1.7653,-1.7001,-1.74,-1.7535,-1.754,-1.8057,-1.8708,-1.9352,-1.934,-1.948,-1.9899,-1.9899,-1.9736,-1.9519,-1.9784,-1.9724,-1.9519,-1.9772,-1.9875,-1.9923,0.0,0.0,0.0,0.0,0.0,0.0,0.0,0.0,0.0,0.0,0.0,0.0,0.0,0.0,0.0,0.0,0.0,0.0,0.0,-1.3247,-1.4056,-1.4637,-1.5197,-1.5638,-1.5713,-1.5931,-1.594,-1.5724,-1.621,-1.648,-1.6436,-1.6531,-1.6797,-1.7302,-1.6984,-1.7038,-1.7538,-1.7717,-1.7798,-1.788,-1.7916,-1.7733,-1.7375,-1.6692,-1.6252,-1.5855,0.0,0.0,0.0,0.0,-1.3553,-1.2885,-1.2262,-1.2058,-1.1924,-1.1895,-1.2203,-1.2587,-1.2374,-1.2772,-1.3237,-1.3262,-1.3627,-1.3972,-1.4238,-1.4515,-1.4769,-1.4944,-1.5119,-1.5185,-1.501,-1.5445,-1.5842,-1.5632,-1.6107,-1.66,-1.6664,-1.6622,-1.6495,-1.6436,-1.6247,-1.6199,-1.6375,-1.6393,-1.6733,-1.7436,-1.7547,-1.7684,-1.8275,-1.8625,-1.8813,-1.8813,-1.8982,-1.8688,-1.8033,-1.8302,-1.8045,-1.74,-1.7922,-1.8142,-1.8165,-1.8606,-1.9054,-1.9317,-1.9411,-1.9472,-1.9609,-1.9609,-1.9664,-1.9736,-1.9645,-1.9875,-2.0255,-2.0177,-2.0255,-2.0394,0.0,0.0,0.0,0.0,0.0,0.0,0.0,0.0,0.0,0.0,0.0,0.0,0.0,0.0,0.0,0.0,0.0,0.0,0.0,0.0,-1.3483,-1.4249,-1.4782,-1.512,-1.5291,-1.5608,-1.5641,-1.5445,-1.6015,-1.6215,-1.6129,-1.6338,-1.6682,-1.6996,-1.6746,-1.6938,-1.7417,-1.7619,-1.7778,-1.795,-1.795,-1.7868,-1.7629,-1.6888,-1.6304,0.0,0.0,0.0,0.0,0.0,-1.3675,-1.3026,-1.222,-1.1956,-1.1892,-1.1895,-1.2301,-1.2729,-1.2857,-1.3226,-1.3547,-1.3671,-1.3915,-1.4117,-1.4389,-1.4588,-1.4714,-1.4714,-1.4841,-1.4947,-1.4588,-1.4979,-1.5374,-1.5172,-1.5725,-1.6178,-1.6235,-1.6272,-1.6211,-1.615,-1.612,-1.615,-1.6127,-1.5971,-1.6258,-1.7171,-1.725,-1.7595,-1.8269,-1.8632,-1.8855,-1.88,-1.8902,-1.8565,-1.7781,-1.805,-1.7922,-1.7535,-1.7922,-1.8266,-1.8285,-1.877,-1.9006,-1.9047,-1.9268,-1.9326,-1.9326,-1.9326,-1.9489,-1.973,-1.9645,-1.9989,-2.0521,-2.0442,-2.0658,-2.0918,0.0,0.0,0.0,0.0,0.0,0.0,0.0,0.0,0.0,0.0,0.0,0.0,0.0,0.0,0.0,0.0,0.0,0.0,0.0,0.0,0.0,-1.3848,-1.4118,-1.4236,-1.4236,-1.4842,-1.5166,-1.5121,-1.5907,-1.6376,-1.6495,-1.6732,-1.6848,-1.6812,-1.6759,-1.694,-1.7358,-1.7746,-1.7982,-1.7982,-1.7905,-1.7682,-1.7304,-1.6559,0.0,0.0,0.0,0.0,0.0,-1.3467,-1.3148,-1.2829,-1.1888,-1.1448,-1.1279,-1.1859,-1.2319,-1.2752,-1.3509,-1.378,-1.3964,-1.4247,-1.4294,-1.4364,-1.4636,-1.4696,-1.469,-1.4678,-1.4857,-1.4874,-1.4334,-1.4458,-1.4644,-1.4561,-1.493,-1.5185,-1.5457,-1.5511,-1.5627,-1.5836,-1.5854,-1.5848,-1.5773,-1.5825,-1.6186,-1.7406,-1.7482,-1.7623,-1.8239,-1.8764,-1.8818,-1.8189,-1.8436,-1.8185,-1.7535,-1.7535,-1.7535,-1.7535,-1.7535,-1.7658,-1.8033,-1.8437,-1.8571,-1.8571,-1.895,-1.9078,-1.9078,-1.909,-1.9253,-1.9513,-1.9796,-2.0068,-2.0327,-2.0575,-2.0943,-2.1214,0.0,0.0,0.0,0.0,0.0,0.0,0.0,0.0,0.0,0.0,0.0,0.0,0.0,0.0,0.0,0.0,0.0,0.0,0.0,0.0,0.0,0.0,0.0,0.0,0.0,0.0,0.0,0.0,0.0,-1.4849,-1.4653,-1.5364,-1.5792,-1.5909,-1.6101,-1.6382,-1.6771,-1.7015,-1.7197,-1.7277,0.0,-1.7162,-1.7122,0.0,0.0,0.0,0.0,0.0,-1.403,-1.3849,-1.3268,-1.2584,-1.2285,-1.2337,-1.2501,-1.2831,-1.316,-1.3478,-1.3644,-1.4015,-1.4385,-1.4562,-1.4578,-1.4706,-1.498,-1.4799,-1.4635,-1.4634,-1.4766,-1.4769,-1.4116,-1.434,-1.4603,-1.4534,-1.4843,-1.5163,-1.5433,-1.5668,-1.5789,-1.5895,-1.5869,-1.5904,-1.5855,-1.566,-1.5745,-1.6466,-1.6733,-1.7031,-1.7339,-1.8007,-1.8318,-1.8064,-1.8133,-1.7916,-1.7535,-1.7535,-1.7658,-1.791,-1.791,-1.791,-1.8033,-1.8168,-1.8308,-1.8571,-1.8699,-1.8822,-1.909,-1.9289,-1.9531,-1.9802,-2.0074,-2.034,-2.0575,-2.0641,-2.0943,-2.1214,0.0,0.0,0.0,0.0,0.0,0.0,0.0,0.0,0.0,0.0,0.0,0.0,0.0,0.0,0.0,0.0,0.0,0.0,0.0,0.0,0.0,0.0,0.0,0.0,0.0,0.0,0.0,0.0,0.0,0.0,0.0,-1.4285,-1.481,-1.4946,-1.5489,-1.589,-1.6138,0.0,0.0,0.0,0.0,0.0,0.0,0.0,0.0,0.0,0.0,0.0,-1.3559,-1.3275,-1.2848,-1.2417,-1.253,-1.2545,-1.2735,-1.3263,-1.3666,-1.396,-1.4302,-1.4708,-1.4943,-1.5039,-1.4766,-1.4483,-1.4559,-1.4515,-1.4358,-1.3938,-1.4356,-1.4522,-1.3853,-1.411,-1.4448,-1.434,-1.4677,-1.5053,-1.527,-1.5451,-1.5632,-1.5861,-1.5917,-1.5884,-1.5783,-1.5597,-1.5665,-1.5913,-1.616,-1.664,-1.7109,-1.763,-1.7909,-1.7776,-1.7781,-1.7658,-1.7265,-1.74,-1.7529,-1.7518,-1.7653,-1.7653,-1.7518,-1.7653,-1.8045,-1.8308,-1.8571,-1.8828,-1.9096,-1.9356,-1.9633,-1.9911,-2.0177,-2.0436,-2.0665,-2.0665,-2.1081,-2.149,0.0,0.0,0.0,0.0,0.0,0.0,0.0,0.0,0.0,0.0,0.0,0.0,0.0,0.0,0.0,0.0,0.0,0.0,0.0,0.0,0.0,0.0,0.0,0.0,0.0,0.0,0.0,0.0,0.0,0.0,0.0,0.0,0.0,0.0,0.0,0.0,0.0,0.0,0.0,0.0,0.0,0.0,0.0,0.0,0.0,0.0,0.0,0.0,-1.292,-1.2549,-1.241,-1.245,-1.2716,-1.2645,-1.2655,-1.352,-1.4027,-1.4365,-1.5069,-1.5332,-1.5411,-1.5416,-1.4929,-1.4297,-1.4082,-1.4059,-1.3982,-1.3208,-1.387,-1.4344,-1.3615,-1.3939,-1.4163,-1.4024,-1.4303,-1.4716,-1.4956,-1.5028,-1.5246,-1.5777,-1.5873,-1.5778,-1.5631,-1.5676,-1.5671,-1.5726,-1.5909,-1.6351,-1.7105,-1.7519,-1.7534,-1.7394,-1.74,-1.7271,-1.7001,-1.7271,-1.7271,-1.7001,-1.7271,-1.7265,-1.7007,-1.7271,-1.7658,-1.8039,-1.8308,-1.8693,-1.9096,-1.9398,-1.9664,-1.9917,-2.0213,-2.0472,-2.0671,-2.0804,-2.1214,-2.1766,0.0,0.0,0.0,0.0,0.0,0.0,0.0,0.0,0.0,0.0,0.0,0.0,0.0,0.0,0.0,0.0,0.0,0.0,0.0,0.0,0.0,0.0,0.0,0.0,0.0,0.0,0.0,0.0,-1.2178,0.0,0.0,0.0,0.0,0.0,0.0,0.0,0.0,0.0,0.0,0.0,0.0,0.0,0.0,0.0,0.0,0.0,0.0,-1.345,-1.2991,0.0,-1.3179,-1.3172,-1.3078,-1.3314,-1.3784,-1.413,-1.4357,-1.4535,-1.5157,-1.5183,-1.511,-1.5398,-1.5153,-1.4786,-1.4451,-1.4236,-1.4024,-1.3947,-1.4198,-1.4345,-1.4121,-1.3938,-1.389,-1.4049,-1.4004,-1.4091,-1.4629,-1.4918,-1.5056,-1.5181,-1.5447,-1.5573,-1.5406,-1.5456,-1.5527,-1.5622,-1.5514,-1.5751,-1.6475,-1.7043,-1.7268,-1.7125,-1.7136,-1.7007,-1.7001,-1.7007,-1.7007,-1.7001,-1.7007,-1.7007,-1.7001,-1.7007,-1.7394,-1.8033,-1.8039,-1.8431,-1.9114,-1.9609,-1.9839,-1.9935,-2.0412,-2.0629,-2.0665,-2.1081,-2.1352,-2.1766,0.0,0.0,0.0,0.0,0.0,0.0,0.0,0.0,0.0,0.0,0.0,0.0,0.0,0.0,0.0,0.0,0.0,0.0,0.0,0.0,0.0,0.0,0.0,0.0,0.0,-1.1362,-1.1365,-1.1277,0.0,-1.152,-1.1326,-1.1959,-1.2192,-1.2161,-1.2508,0.0,0.0,0.0,0.0,0.0,0.0,0.0,0.0,0.0,0.0,0.0,0.0,-1.294,-1.2768,0.0,-1.3314,-1.3512,-1.3383,-1.367,-1.4069,-1.4216,-1.4399,-1.4628,-1.4933,-1.5068,-1.5163,-1.5228,-1.4757,-1.4239,-1.4077,-1.3993,-1.3842,-1.3598,-1.4221,-1.4585,-1.4084,-1.4223,-1.4401,-1.4244,-1.4047,-1.4145,-1.4633,-1.4677,-1.4631,-1.4903,-1.5098,-1.5223,-1.5099,-1.5149,-1.5271,-1.5542,-1.5381,-1.551,-1.6352,-1.6833,-1.7011,-1.7001,-1.7001,-1.7001,-1.7001,-1.7136,-1.7136,-1.7001,-1.7389,-1.7389,-1.7007,-1.7136,-1.7523,-1.8033,-1.8033,-1.8501,-1.9307,-1.9718,-1.9965,-2.0128,-2.0521,-2.0804,-2.0943,-2.0937,-2.1352,-2.1766,0.0,0.0,0.0,0.0,0.0,0.0,0.0,0.0,0.0,0.0,0.0,0.0,0.0,0.0,0.0,0.0,0.0,0.0,0.0,0.0,0.0,0.0,0.0,0.0,0.0,0.0,0.0,-1.0753,-1.0954,0.0,0.0,0.0,0.0,0.0,-1.1933,-1.2319,-1.28,0.0,0.0,0.0,0.0,-1.3215,0.0,0.0,0.0,0.0,0.0,-1.2512,-1.2564,-1.2915,-1.3248,-1.3437,-1.3439,-1.3783,-1.4193,-1.4115,-1.4351,-1.4552,-1.4622,-1.4871,-1.5021,-1.4858,-1.4249,-1.373,-1.3621,-1.3577,-1.3466,-1.3099,-1.3927,-1.4624,-1.408,-1.4429,-1.4622,-1.4311,-1.4181,-1.4188,-1.4533,-1.4381,-1.4358,-1.469,-1.485,-1.4965,-1.5093,-1.4948,-1.5049,-1.5461,-1.5402,-1.5612,-1.628,-1.6705,-1.6953,-1.7001,-1.7001,-1.7001,-1.7001,-1.7271,-1.7271,-1.7007,-1.7653,-1.7518,-1.7007,-1.74,-1.7658,-1.8033,-1.8033,-1.8536,-1.941,-1.9748,-2.0008,-2.0225,-2.0545,-2.0943,-2.1214,-2.0943,-2.1352,-2.1904,0.0,0.0,0.0,0.0,0.0,0.0,0.0,0.0,0.0,0.0,0.0,0.0,0.0,0.0,0.0,0.0,0.0,0.0,0.0,0.0,0.0,0.0,0.0,0.0,0.0,0.0,0.0,-1.0878,-1.0992,0.0,0.0,0.0,0.0,0.0,0.0,-1.135,-1.1542,-1.1419,0.0,0.0,0.0,0.0,0.0,0.0,0.0,0.0,0.0,-1.2762,-1.2582,-1.3099,-1.3063,-1.2806,-1.3094,-1.369,-1.4313,-1.4245,-1.4183,-1.4209,-1.4493,-1.4414,-1.4168,-1.4168,-1.3959,-1.3767,-1.3513,-1.3168,-1.3018,-1.3364,-1.3584,-1.3906,-1.4506,-1.4065,-1.3754,-1.4119,-1.398,-1.3818,-1.3854,-1.4245,-1.4487,-1.4648,-1.4483,-1.4522,-1.5194,-1.4866,-1.4719,-1.5241,-1.5461,-1.5785,-1.6291,-1.6554,-1.6791,-1.6996,-1.7001,-1.7001,-1.7001,-1.7001,-1.7001,-1.7001,-1.74,-1.74,-1.7007,-1.74,-1.7658,-1.8033,-1.8033,-1.8437,-1.9151,-1.967,-1.9899,-1.9971,-2.0472,-2.0943,-2.1214,-2.1628,-2.1897,-2.231,0.0,0.0,0.0,0.0,0.0,0.0,0.0,0.0,0.0,0.0,0.0,0.0,0.0,0.0,0.0,0.0,0.0,0.0,0.0,0.0,0.0,0.0,0.0,0.0,0.0,0.0,-1.0505,-1.0544,-1.0611,0.0,0.0,0.0,0.0,0.0,0.0,-1.0838,-1.1263,-1.0755,0.0,0.0,0.0,0.0,0.0,0.0,0.0,0.0,0.0,0.0,-1.2346,-1.269,-1.2726,-1.2645,-1.2841,-1.3268,-1.359,-1.3623,-1.3608,-1.3712,-1.3951,-1.3805,-1.3561,-1.3561,-1.3266,-1.3028,-1.3134,-1.2994,-1.2897,-1.314,-1.3685,-1.4049,-1.4032,-1.4042,-1.3995,-1.388,-1.3629,-1.356,-1.3631,-1.3853,-1.4059,-1.3902,-1.4184,-1.4389,-1.4374,-1.4393,-1.4676,-1.5056,-1.5187,-1.5502,-1.6075,-1.6457,-1.677,-1.6996,-1.7001,-1.7001,-1.7001,-1.7001,-1.7001,-1.7007,-1.7523,-1.7658,-1.7271,-1.7922,-1.8179,-1.8308,-1.8308,-1.8776,-1.9338,-1.973,-1.9983,-2.0158,-2.0796,-2.1214,-2.1628,-2.1766,-2.2042,-2.231,0.0,0.0,0.0,0.0,0.0,0.0,0.0,0.0,0.0,0.0,0.0,0.0,0.0,0.0,0.0,0.0,0.0,0.0,0.0,0.0,0.0,0.0,0.0,0.0,0.0,0.0,-1.0079,-1.0166,-1.0235,-1.0235,0.0,0.0,-1.0467,-1.0418,0.0,0.0,0.0,0.0,0.0,0.0,0.0,0.0,0.0,0.0,0.0,0.0,0.0,0.0,0.0,0.0,0.0,-1.2501,-1.2564,-1.276,0.0,-1.31,-1.3233,-1.3344,-1.3447,-1.339,-1.3308,-1.3229,-1.2852,-1.2654,-1.3022,-1.287,-1.2788,-1.3107,-1.3582,-1.3961,-1.3738,-1.3811,-1.3852,0.0,-1.3369,-1.3212,-1.3333,-1.3592,-1.3754,-1.3566,-1.3925,-1.4093,-1.4008,-1.4088,-1.439,-1.4876,-1.4857,-1.5116,-1.5833,-1.6231,-1.6592,-1.6894,-1.6904,-1.6937,-1.7001,-1.7001,-1.7001,-1.7007,-1.7647,-1.7781,-1.7535,-1.8314,-1.853,-1.8459,-1.8542,-1.8846,-1.9157,-1.9676,-1.9947,-2.008,-2.0909,-2.149,-2.1766,-2.1904,-2.2173,-2.2448,0.0,0.0,0.0,0.0,0.0,0.0,0.0,0.0,0.0,0.0,0.0,0.0,0.0,0.0,0.0,0.0,0.0,0.0,0.0,0.0,0.0,0.0,0.0,0.0,0.0,0.0,0.0,-0.9823,-0.9941,-0.9911,-0.9723,-0.9971,-1.001,-0.9823,0.0,0.0,0.0,0.0,0.0,0.0,0.0,0.0,0.0,0.0,0.0,0.0,0.0,0.0,0.0,0.0,0.0,0.0,0.0,-1.2319,-1.2672,0.0,-1.3124,-1.3209,-1.3284,-1.3484,-1.3589,-1.3355,-1.2974,-1.2746,-1.3404,-1.2868,-1.2432,-1.334,-1.3244,-1.3227,-1.3781,-1.3276,-1.2897,-1.3244,-1.3145,-1.2968,-1.3006,-1.3454,-1.3837,-1.3938,-1.3374,-1.3435,-1.4492,-1.4135,-1.4091,-1.4432,-1.4415,-1.4641,-1.5591,-1.5828,-1.6172,-1.6651,-1.6667,-1.6775,-1.7001,-1.7001,-1.7001,-1.7007,-1.7647,-1.7781,-1.7535,-1.8314,-1.8424,-1.8183,-1.8459,-1.8536,-1.839,-1.9452,-1.9724,-1.9686,-2.0755,-2.149,-2.1904,-2.2173,-2.2585,-2.2859,0.0,0.0,0.0,0.0,0.0,0.0,0.0,0.0,0.0,0.0,0.0,0.0,0.0,0.0,0.0,0.0,0.0,0.0,0.0,0.0,0.0,0.0,0.0,0.0,0.0,0.0,0.0,0.0,0.0,-0.9457,-0.9346,-0.9567,-0.9597,-0.9487,-0.9677,-0.9725,0.0,0.0,0.0,0.0,0.0,0.0,-1.0037,0.0,0.0,0.0,0.0,0.0,0.0,0.0,0.0,0.0,0.0,0.0,0.0,-1.2301,-1.2612,-1.3012,-1.3233,-1.3382,-1.3324,-1.281,-1.2878,-1.2953,-1.2493,-1.2631,-1.2782,-1.2509,-1.2769,-1.296,-1.2819,-1.2528,-1.2284,-1.2395,-1.2432,-1.2376,-1.227,-1.2887,-1.3331,-1.3312,-1.3232,-1.3273,-1.3593,-1.3428,-1.37,-1.4656,-1.4534,-1.4811,-1.5596,-1.5666,-1.6005,-1.664,-1.6662,-1.6903,-1.7394,-1.74,-1.74,-1.7647,-1.8173,-1.8308,-1.8314,-1.8693,-1.8902,-1.8824,-1.8908,-1.8758,-1.8632,-1.9519,-1.985,-1.9936,-2.1163,-2.176,-2.2173,-2.2585,-2.2722,-2.2859,0.0,0.0,0.0,0.0,0.0,0.0,0.0,0.0,0.0,0.0,0.0,0.0,0.0,0.0,0.0,0.0,0.0,0.0,0.0,0.0,0.0,0.0,0.0,0.0,0.0,0.0,0.0,0.0,0.0,0.0,0.0,0.0,-0.9641,-0.9386,-0.9509,-0.951,0.0,0.0,0.0,0.0,0.0,0.0,-0.9111,0.0,0.0,0.0,0.0,0.0,0.0,0.0,0.0,0.0,0.0,0.0,0.0,0.0,-1.2283,-1.2589,-1.2781,-1.3035,-1.3132,-1.2585,-1.2633,-1.2617,-1.2162,-1.2242,-1.2369,-1.2016,-1.2134,-1.2263,-1.2027,-1.1674,-1.1496,-1.1841,-1.1681,-1.1689,-1.1924,-1.2504,-1.2878,-1.2559,-1.3073,-1.3198,-1.2374,-1.2735,-1.3351,-1.4064,-1.4242,-1.465,-1.5359,-1.5477,-1.5844,-1.6377,-1.6484,-1.681,-1.7265,-1.74,-1.7658,-1.7781,-1.8314,-1.8571,-1.8577,-1.895,-1.9018,-1.8933,-1.9036,-1.8994,0.0,-1.9528,-1.983,-2.0178,-2.1283,-2.1881,-2.216,-2.2682,-2.2859,-2.2859,0.0,0.0,0.0,0.0,0.0,0.0,0.0,0.0,0.0,0.0,0.0,0.0,0.0,0.0,0.0,0.0,0.0,0.0,0.0,0.0,0.0,0.0,0.0,0.0,0.0,0.0,0.0,-0.9142,-0.9609,-0.9683,-0.9401,0.0,0.0,-0.946,-0.9581,-0.9459,0.0,0.0,0.0,0.0,0.0,0.0,0.0,0.0,0.0,0.0,0.0,0.0,0.0,0.0,0.0,0.0,0.0,0.0,0.0,0.0,0.0,0.0,0.0,-1.2527,-1.3003,-1.2599,-1.2262,-1.2038,-1.2265,-1.18,0.0,-1.1682,-1.1472,-1.1353,-1.1454,-1.084,-1.0613,-1.1539,-1.1089,-1.0947,-1.1787,-1.2377,-1.2448,-1.1994,-1.3009,-1.3044,-1.1163,-1.2144,-1.2946,-1.3065,-1.3452,-1.4162,-1.4992,-1.5359,-1.5704,-1.5941,-1.6167,-1.6511,-1.6974,-1.7394,-1.7523,-1.7507,-1.8302,-1.8693,-1.8676,-1.8944,-1.8939,-1.8722,-1.8945,-1.9016,-1.8865,-1.9383,-1.9819,-2.0189,-2.1162,-2.1617,-2.2054,-2.2616,-2.2859,-2.2859,0.0,0.0,0.0,0.0,0.0,0.0,0.0,0.0,0.0,0.0,0.0,0.0,0.0,0.0,0.0,0.0,0.0,0.0,0.0,0.0,0.0,0.0,0.0,0.0,0.0,0.0,0.0,-0.875,-0.9022,-0.9182,-0.9228,-0.9275,0.0,0.0,0.0,0.0,0.0,0.0,0.0,0.0,0.0,0.0,0.0,0.0,0.0,0.0,-0.8526,-0.8725,0.0,0.0,0.0,0.0,0.0,0.0,0.0,0.0,-1.1123,-1.1379,-1.0854,0.0,-1.2805,-1.2051,-1.2284,-1.2444,0.0,-1.1559,-1.1632,-1.0962,-1.1071,-1.1238,-1.104,-1.0535,-1.0423,-1.1404,-1.095,-1.0751,-1.1227,-1.196,-1.2536,-1.273,-1.2908,-1.2832,-1.2207,-1.2242,-1.2488,-1.3065,-1.3692,-1.4286,-1.4629,-1.5235,-1.5704,-1.5941,-1.6249,-1.6629,-1.7108,-1.7953,-1.8209,-1.8007,-1.8721,-1.8842,-1.8662,-1.8982,-1.9042,-1.8976,-1.9077,-1.9068,-1.9113,-1.9776,-2.0164,-2.0566,-2.1421,-2.2021,-2.2317,-2.2752,-2.2859,-2.2859,0.0,0.0,0.0,0.0,0.0,0.0,0.0,0.0,0.0,0.0,0.0,0.0,0.0,0.0,0.0,0.0,0.0,0.0,0.0,0.0,0.0,0.0,0.0,0.0,0.0,0.0,0.0,0.0,0.0,-0.9095,0.0,0.0,0.0,0.0,0.0,0.0,0.0,0.0,0.0,0.0,-0.7432,0.0,0.0,0.0,0.0,0.0,-0.821,-0.8455,0.0,-0.9342,-0.9741,-0.9998,0.0,0.0,0.0,0.0,-1.0318,-1.0458,-1.0124,-1.1032,-1.1877,-1.1532,-1.1486,-1.1436,-1.0906,-1.0987,-1.0963,-1.0372,-1.0543,-1.0798,-1.0637,-1.0207,-1.014,-1.0882,-1.0551,-1.0461,-1.0997,-1.1631,-1.2071,-1.2208,-1.2536,-1.2529,-1.2018,-1.2135,-1.2488,-1.3065,-1.381,-1.4406,-1.4753,-1.5359,-1.5655,-1.5785,-1.6375,-1.673,-1.6985,-1.7748,-1.8186,-1.8166,-1.8691,-1.8878,-1.8873,-1.9012,-1.9078,-1.906,-1.916,-1.9243,-1.9625,-1.9783,-2.0239,-2.0915,-2.1261,-2.1839,-2.2258,-2.2552,-2.2746,-2.2859,0.0,0.0,0.0,0.0,0.0,0.0,0.0,0.0,0.0,0.0,0.0,0.0,0.0,0.0,0.0,0.0,0.0,0.0,0.0,0.0,0.0,0.0,0.0,0.0,0.0,0.0,0.0,0.0,0.0,0.0,0.0,0.0,-0.9803,0.0,0.0,0.0,0.0,0.0,0.0,-0.7253,-0.6562,0.0,0.0,0.0,0.0,0.0,0.0,0.0,0.0,-0.8971,-0.9402,-0.9662,-0.9616,0.0,0.0,0.0,0.0,0.0,-0.9632,-1.0192,-1.0761,-1.0899,-1.0477,-1.0083,-1.0492,-1.0294,-0.9987,-0.9955,-1.0105,-1.0227,-1.0302,-0.992,-0.9779,-1.0496,-1.0283,-1.0315,-1.1116,-1.1351,-1.1508,-1.1541,-1.2028,-1.1999,-1.1407,-1.214,-1.2721,-1.295,-1.381,-1.4525,-1.4992,-1.5359,-1.5601,-1.572,-1.6384,-1.6833,-1.6809,-1.7462,-1.7839,-1.8054,-1.8492,-1.8744,-1.8957,-1.9042,-1.9078,-1.9188,-1.9166,-1.9588,-2.0214,-1.9933,-2.0354,-2.1136,-2.1044,-2.1463,-2.2024,-2.2311,-2.2605,-2.2859,0.0,0.0,0.0,0.0,0.0,0.0,0.0,0.0,0.0,0.0,0.0,0.0,0.0,0.0,0.0,0.0,0.0,0.0,0.0,0.0,0.0,0.0,0.0,0.0,0.0,0.0,0.0,0.0,0.0,0.0,-0.9406,-0.962,-0.9468,0.0,0.0,0.0,-0.7792,-0.7251,-0.7,-0.6932,-0.6425,0.0,0.0,0.0,0.0,0.0,0.0,0.0,0.0,-0.8375,-0.881,-0.9029,-0.8845,0.0,0.0,0.0,0.0,0.0,-0.9061,-0.9438,-0.9937,-1.0137,-0.9999,-0.9831,-0.9924,-0.9765,-0.9621,-0.9627,-0.9784,-0.9981,-1.0276,-0.9678,-0.9516,-1.0835,-1.0742,-1.0798,-1.1713,-1.1567,-1.1709,-1.2666,-1.2115,-1.1722,-1.1907,-1.2131,-1.2378,-1.2607,-1.3795,-1.4629,-1.4629,-1.5235,-1.572,-1.5963,-1.6346,-1.6736,-1.7019,-1.7735,-1.7988,-1.7525,-1.8262,-1.8632,-1.8426,-1.8873,-1.92,-1.9565,-1.9556,-1.9971,-2.0462,-2.0552,-2.0723,-2.1136,-2.1436,-2.173,-2.2024,-2.2311,-2.2605,-2.2859,0.0,0.0,0.0,0.0,0.0,0.0,0.0,0.0,0.0,0.0,0.0,0.0,0.0,0.0,0.0,0.0,0.0,0.0,0.0,0.0,0.0,0.0,0.0,0.0,0.0,0.0,0.0,0.0,0.0,-0.9571,-0.9739,-0.9668,-0.9479,-0.9074,0.0,0.0,-0.7833,-0.7323,-0.716,-0.7175,0.0,0.0,0.0,0.0,0.0,0.0,0.0,0.0,0.0,0.0,-0.8307,-0.856,-0.8205,0.0,0.0,0.0,0.0,0.0,-0.8391,-0.8653,-0.9072,-0.9379,-0.9579,-0.9597,-0.9388,-0.9493,-0.955,-0.9354,-0.9524,-0.9678,-0.988,-0.9628,-0.9591,-1.0331,-1.029,-1.0414,-1.0801,-1.0839,-1.1006,-1.1747,-1.1363,-1.132,-1.1967,-1.2087,-1.2533,-1.3452,-1.4222,-1.4759,-1.5116,-1.5477,-1.572,-1.6087,-1.6307,-1.6661,-1.7026,-1.7613,-1.7745,-1.7643,-1.8173,-1.8488,-1.8517,-1.8897,-1.9328,-1.9559,-1.9682,-2.0103,-2.0589,-2.0677,-2.0848,-2.1122,-2.1263,-2.159,-2.2038,-2.2492,-2.2746,-2.2859,0.0,0.0,0.0,0.0,0.0,0.0,0.0,0.0,0.0,0.0,0.0,0.0,0.0,0.0,0.0,0.0,0.0,0.0,0.0,0.0,0.0,0.0,0.0,0.0,0.0,0.0,-0.9063,-0.8939,-0.9591,-1.0,-1.0156,-0.9811,-0.9501,0.0,0.0,0.0,-0.7754,-0.7202,-0.7046,-0.7106,0.0,0.0,0.0,0.0,0.0,0.0,0.0,0.0,0.0,0.0,0.0,0.0,0.0,0.0,0.0,-0.7624,-0.7684,-0.7872,-0.7981,-0.8197,-0.8483,-0.8839,-0.9138,-0.9328,-0.9198,-0.9366,-0.9491,-0.92,-0.939,-0.9609,-0.959,-0.9678,-0.9759,-0.9639,-0.9893,-1.0041,-1.0087,-1.0342,-1.0588,-1.0864,-1.0804,-1.1038,-1.1854,-1.2059,-1.2804,-1.4058,-1.4405,-1.4769,-1.5364,-1.5364,-1.5483,-1.5844,-1.6188,-1.6537,-1.6903,-1.725,-1.7581,-1.7787,-1.8077,-1.8333,-1.8601,-1.9054,-1.9456,-1.9699,-1.9877,-2.0161,-2.0716,-2.0743,-2.0909,-2.1109,-2.1109,-2.147,-2.2044,-2.2572,-2.2806,-2.2859,0.0,0.0,0.0,0.0,0.0,0.0,0.0,0.0,0.0,0.0,0.0,0.0,0.0,0.0,0.0,0.0,0.0,0.0,0.0,0.0,0.0,0.0,0.0,0.0,0.0,-0.9315,-0.9491,-0.9715,-1.0206,-1.0532,-1.0626,-1.0073,-0.954,-0.9067,0.0,-0.7658,-0.7129,-0.6471,-0.6201,-0.6152,-0.5797,0.0,0.0,0.0,0.0,0.0,0.0,0.0,0.0,0.0,0.0,0.0,0.0,0.0,-0.7951,-0.7671,-0.7963,-0.8343,-0.8343,-0.8365,-0.8457,-0.8695,-0.8909,-0.9143,-0.9473,-0.944,-0.9341,-0.9347,-0.9733,-0.9894,-0.9491,-0.9801,-0.9966,-0.9246,-0.9962,-1.0591,-1.0681,-1.0661,-1.0833,-1.1091,-1.0912,-1.0978,-1.1827,-1.203,-1.2689,-1.3825,-1.4168,-1.4416,-1.465,-1.4655,-1.4888,-1.5116,-1.5822,-1.6295,-1.6537,-1.7126,-1.7491,-1.7515,-1.8058,-1.8324,-1.8336,-1.9216,-1.9711,-2.0106,-2.0462,-2.0716,-2.1109,-2.1089,-2.1089,-2.1109,-2.1109,-2.147,-2.2024,-2.2338,-2.2625,-2.2859,0.0,0.0,0.0,0.0,0.0,0.0,0.0,0.0,0.0,0.0,0.0,0.0,0.0,0.0,0.0,0.0,0.0,0.0,0.0,0.0,0.0,0.0,0.0,-0.8394,-0.9341,-0.9909,-1.0126,-0.9964,-1.0521,-1.0573,-1.0228,-0.9771,0.0,0.0,0.0,-0.7713,-0.7263,-0.7022,-0.683,-0.6627,-0.622,-0.5952,0.0,0.0,0.0,0.0,0.0,0.0,0.0,0.0,-0.7447,-0.7503,-0.7579,-0.7795,-0.7996,-0.787,-0.8085,-0.8427,-0.8427,-0.8498,-0.8732,-0.8966,-0.9326,-0.9543,-0.9158,-0.9092,-0.9099,-0.893,-0.9233,-0.9609,-0.9653,-0.9583,-0.9566,-0.9644,-1.0021,-1.0429,-1.0519,-1.0605,-1.0777,-1.0816,-1.0761,-1.0876,-1.1513,-1.1707,-1.221,-1.346,-1.3678,-1.4025,-1.4525,-1.4655,-1.4769,-1.511,-1.5591,-1.6065,-1.6537,-1.7015,-1.725,-1.7485,-1.7853,-1.8125,-1.8306,-1.9037,-1.9682,-2.0106,-2.0482,-2.0729,-2.1109,-2.1109,-2.1109,-2.1129,-2.1309,-2.163,-2.2024,-2.2311,-2.2605,-2.2859,0.0,0.0,0.0,0.0,0.0,0.0,0.0,0.0,0.0,0.0,0.0,0.0,0.0,0.0,0.0,0.0,0.0,0.0,0.0,0.0,0.0,0.0,0.0,-0.812,-0.9031,-0.988,-1.0268,-1.0132,-1.045,-1.0375,-0.993,0.0,0.0,0.0,0.0,-0.7556,-0.7196,-0.7066,-0.6847,-0.6578,-0.6234,-0.5982,0.0,0.0,0.0,0.0,0.0,0.0,0.0,0.0,-0.737,-0.7517,-0.7694,-0.7874,-0.809,-0.8239,-0.829,-0.8395,-0.8561,-0.8549,-0.8561,-0.915,-0.9568,-0.9658,-0.9181,-0.9269,-0.9325,-0.8959,-0.9105,-0.9407,-0.994,-0.9601,-0.9328,-0.9853,-1.0083,-1.0369,-1.0404,-1.0582,-1.0692,-1.0692,-1.0692,-1.0876,-1.1397,-1.1418,-1.1885,-1.3012,-1.3152,-1.3451,-1.4079,-1.4084,-1.4237,-1.4533,-1.5011,-1.5639,-1.6065,-1.6667,-1.7138,-1.7485,-1.7666,-1.7943,-1.83,-1.9051,-1.9581,-2.0106,-2.0609,-2.0856,-2.1109,-2.1109,-2.1109,-2.1129,-2.1336,-2.159,-2.1884,-2.2171,-2.2465,-2.2739,0.0,0.0,0.0,0.0,0.0,0.0,0.0,0.0,0.0,0.0,0.0,0.0,0.0,0.0,0.0,0.0,0.0,0.0,0.0,0.0,0.0,0.0,0.0,-0.7542,-0.8282,-0.9085,-0.9726,-1.0173,-1.0076,-0.9938,-0.9776,-0.8815,0.0,0.0,0.0,-0.712,-0.6772,-0.6375,-0.6019,-0.5714,-0.5697,-0.5572,-0.5448,0.0,0.0,0.0,0.0,0.0,0.0,0.0,-0.7795,-0.7805,-0.8338,-0.8364,-0.8281,-0.8754,-0.8588,-0.8302,-0.885,-0.8391,-0.7973,-0.9097,-0.9406,-0.953,-0.9852,-0.9983,-0.9936,-0.9647,-0.947,-0.9553,-1.0402,-0.9944,-0.9548,-0.9641,-1.0184,-1.054,-1.0387,-1.0586,-1.0692,-1.0692,-1.0692,-1.0871,-1.1397,-1.1414,-1.1716,-1.2589,-1.2602,-1.2717,-1.3065,-1.3065,-1.3164,-1.3381,-1.4321,-1.4886,-1.511,-1.6307,-1.7138,-1.7485,-1.7485,-1.7768,-1.83,-1.9293,-1.982,-2.01,-2.0856,-2.1109,-2.1109,-2.1109,-2.1109,-2.1109,-2.1109,-2.1289,-2.159,-2.1877,-2.2171,-2.2465,0.0,0.0,0.0,0.0,0.0,0.0,0.0,0.0,0.0,0.0,0.0,0.0,0.0,0.0,0.0,0.0,0.0,0.0,0.0,0.0,0.0,0.0,0.0,0.0,0.0,0.0,-0.9011,-1.0363,-0.9938,-0.9391,0.0,0.0,0.0,-0.7475,0.0,0.0,-0.6844,-0.6742,-0.6496,-0.6179,-0.6175,-0.6032,-0.5837,0.0,0.0,0.0,0.0,0.0,0.0,0.0,0.0,0.0,-0.8025,-0.8334,-0.866,-0.8798,-0.8798,-0.8891,-0.9369,-0.9246,-0.9187,-0.9686,-1.0097,-1.0266,-1.0008,-1.0049,-1.0136,-1.0313,-0.9948,-1.0021,-1.081,-1.0557,-1.0336,-1.0522,-1.0884,-1.1098,-1.0908,-1.0988,-1.0911,-1.0692,-1.0692,-1.0712,-1.088,-1.0884,-1.1291,-1.2046,-1.2063,-1.2348,-1.306,-1.3065,-1.3212,-1.3504,-1.4114,-1.4808,-1.5571,-1.6217,-1.7015,-1.7849,-1.7849,-1.8146,-1.8613,-1.9126,-1.9658,-2.0203,-2.077,-2.1109,-2.1109,-2.1109,-2.1109,-2.1109,-2.1109,-2.1289,-2.159,-2.1877,-2.2171,-2.2465,0.0,0.0,0.0,0.0,0.0,0.0,0.0,0.0,0.0,0.0,-0.6966,-0.6936,0.0,0.0,0.0,0.0,0.0,0.0,0.0,0.0,0.0,0.0,0.0,0.0,0.0,-0.7602,-0.8365,0.0,0.0,0.0,0.0,0.0,0.0,-0.7308,0.0,-0.745,-0.7061,-0.7069,-0.6766,-0.63,-0.6404,-0.6301,-0.6073,0.0,0.0,0.0,0.0,0.0,0.0,0.0,0.0,0.0,-0.8204,-0.8473,-0.8799,-0.8969,-0.9045,-0.9178,-0.9806,-0.9715,-0.9574,-1.0276,-1.0491,-1.0483,-1.0449,-1.0357,-1.0408,-1.0636,-1.0472,-1.0324,-1.0934,-1.0725,-1.0605,-1.0909,-1.116,-1.1246,-1.1105,-1.1126,-1.1017,-1.0692,-1.0692,-1.0692,-1.0692,-1.0911,-1.1287,-1.174,-1.197,-1.2353,-1.3038,-1.3043,-1.3194,-1.3502,-1.4058,-1.4793,-1.5462,-1.6289,-1.7126,-1.7954,-1.8077,-1.8517,-1.9043,-1.9324,-1.9788,-2.0204,-2.0863,-2.1109,-2.1109,-2.1109,-2.1109,-2.1109,-2.1109,-2.1223,-2.141,-2.1704,-2.1997,-2.2291,0.0,0.0,0.0,0.0,0.0,0.0,0.0,0.0,0.0,0.0,-0.6966,-0.6915,0.0,0.0,0.0,0.0,0.0,0.0,0.0,0.0,0.0,0.0,0.0,0.0,0.0,0.0,0.0,0.0,0.0,0.0,0.0,0.0,-0.7482,-0.752,0.0,-0.7729,-0.727,-0.7336,-0.686,-0.6179,-0.6427,-0.6377,-0.6225,-0.6796,0.0,0.0,0.0,0.0,0.0,0.0,0.0,0.0,-0.8625,-0.8691,-0.878,-0.9129,-0.9189,-0.9323,-1.0065,-0.9765,-0.9586,-1.0734,-1.0627,-1.0425,-1.0869,-1.0777,-1.0705,-1.0881,-1.0784,-1.0726,-1.083,-1.0721,-1.0762,-1.1034,-1.1278,-1.1375,-1.1214,-1.1126,-1.1021,-1.0802,-1.0692,-1.0692,-1.0802,-1.124,-1.1568,-1.1678,-1.2114,-1.255,-1.2881,-1.2881,-1.3078,-1.3598,-1.4163,-1.4717,-1.516,-1.6355,-1.7313,-1.7898,-1.8279,-1.8771,-1.9386,-1.962,-1.9931,-2.0362,-2.087,-2.1109,-2.1109,-2.1109,-2.1109,-2.1109,-2.1109,-2.1109,-2.1149,-2.1443,-2.1737,-2.2031,0.0,0.0,0.0,0.0,0.0,0.0,0.0,0.0,0.0,0.0,0.0,0.0,0.0,0.0,0.0,0.0,0.0,0.0,0.0,0.0,0.0,0.0,0.0,0.0,0.0,0.0,0.0,0.0,0.0,0.0,0.0,0.0,0.0,-0.7513,0.0,-0.727,-0.7122,-0.6951,-0.6659,-0.6445,-0.6592,-0.6634,-0.6584,-0.6881,-0.7071,0.0,0.0,0.0,0.0,0.0,0.0,0.0,-0.846,-0.8598,-0.871,-0.8663,-0.8897,-0.9214,-0.9755,-0.9927,-1.0045,-1.0325,-1.0329,-1.0261,-1.0429,-1.0656,-1.0855,-1.0928,-1.1014,-1.1091,-1.1151,-1.1335,-1.163,-1.1569,-1.1917,-1.1955,-1.1564,-1.1459,-1.135,-1.1017,-1.0802,-1.0911,-1.135,-1.1236,-1.1345,-1.1896,-1.2001,-1.2332,-1.2881,-1.2881,-1.3118,-1.3712,-1.4046,-1.4404,-1.5005,-1.624,-1.705,-1.7625,-1.8423,-1.9004,-1.9386,-1.962,-2.0165,-2.0896,-2.1082,-2.1109,-2.1109,-2.1109,-2.1109,-2.1109,-2.1109,-2.1109,-2.1149,-2.1443,-2.1737,-2.2031,0.0,0.0,0.0,0.0,0.0,0.0,0.0,0.0,0.0,0.0,0.0,0.0,0.0,0.0,0.0,0.0,0.0,0.0,0.0,0.0,0.0,0.0,0.0,0.0,0.0,0.0,0.0,0.0,0.0,0.0,0.0,0.0,0.0,-0.7498,0.0,-0.7243,-0.7031,-0.6974,-0.673,-0.6489,-0.6617,-0.6745,-0.6836,-0.7076,-0.728,-0.7489,-0.7836,0.0,0.0,0.0,0.0,0.0,0.0,0.0,-0.8805,-0.8812,-0.9171,-0.9664,-1.0055,-1.0208,-1.0236,-1.0052,-1.0165,-1.0412,-1.0452,-1.0637,-1.0963,-1.1014,-1.1163,-1.1168,-1.1175,-1.1449,-1.1694,-1.1798,-1.1954,-1.1896,-1.1678,-1.1459,-1.135,-1.1131,-1.1021,-1.1131,-1.1568,-1.1568,-1.1678,-1.2005,-1.2114,-1.2441,-1.3098,-1.3098,-1.3315,-1.3975,-1.4192,-1.4695,-1.5355,-1.6308,-1.7147,-1.7968,-1.8577,-1.9265,-1.9793,-1.998,-2.0438,-2.1109,-2.1109,-2.0982,-2.0856,-2.0982,-2.0982,-2.0862,-2.0982,-2.1109,-2.1129,-2.1283,-2.1523,-2.1817,0.0,0.0,0.0,0.0,0.0,0.0,0.0,0.0,0.0,0.0,0.0,0.0,0.0,0.0,0.0,0.0,0.0,0.0,0.0,0.0,0.0,0.0,0.0,0.0,0.0,0.0,0.0,0.0,0.0,0.0,0.0,0.0,0.0,-0.7557,0.0,-0.7402,-0.6997,-0.7038,-0.6818,-0.6367,-0.6568,-0.6774,-0.6956,-0.7245,-0.7405,-0.7565,-0.7953,-0.8077,-0.8062,-0.8357,0.0,0.0,0.0,0.0,-0.8917,-0.905,-0.9566,-1.0063,-1.0297,-1.0295,-1.0176,-0.9964,-1.0141,-1.0465,-1.0512,-1.071,-1.0886,-1.1036,-1.1192,-1.1194,-1.11,-1.1231,-1.1507,-1.161,-1.1634,-1.1568,-1.1568,-1.124,-1.1131,-1.1126,-1.1126,-1.1236,-1.1678,-1.1896,-1.2005,-1.2114,-1.2332,-1.2767,-1.3315,-1.3315,-1.3645,-1.4191,-1.4379,-1.4806,-1.5597,-1.6308,-1.7262,-1.8229,-1.8739,-1.9397,-2.016,-2.0214,-2.0528,-2.1036,-2.1089,-2.0956,-2.0663,-2.0963,-2.0989,-2.0729,-2.0982,-2.1109,-2.1109,-2.1109,-2.1296,-2.1597,0.0,0.0,0.0,0.0,0.0,0.0,0.0,0.0,0.0,0.0,-0.6966,-0.6893,0.0,0.0,0.0,0.0,0.0,0.0,0.0,0.0,0.0,0.0,0.0,0.0,0.0,0.0,0.0,0.0,0.0,0.0,-0.6744,0.0,0.0,-0.7835,0.0,-0.723,-0.6973,-0.6712,-0.647,-0.6227,-0.6361,-0.666,-0.6979,-0.7021,-0.7231,-0.7523,-0.7712,-0.787,-0.8021,-0.8324,-0.8414,0.0,0.0,0.0,-0.8738,-0.8762,-0.9245,-0.9795,-0.9888,-0.986,-0.9908,-1.0357,-1.0147,-0.9851,-1.0269,-1.0474,-1.0624,-1.0653,-1.099,-1.1096,-1.0904,-1.113,-1.13,-1.1092,-1.142,-1.1459,-1.124,-1.1126,-1.124,-1.1459,-1.1236,-1.1455,-1.2219,-1.2114,-1.2114,-1.2332,-1.2659,-1.2989,-1.3315,-1.3532,-1.3862,-1.4191,-1.4223,-1.4565,-1.5121,-1.6263,-1.7096,-1.7709,-1.877,-1.9539,-1.9867,-2.0114,-2.0414,-2.0748,-2.1002,-2.0962,-2.0755,-2.1009,-2.1109,-2.0982,-2.1109,-2.1109,-2.1109,-2.1109,-2.1296,-2.1597,0.0,0.0,0.0,0.0,0.0,0.0,0.0,0.0,0.0,0.0,0.0,-0.6695,0.0,0.0,0.0,0.0,0.0,0.0,0.0,0.0,0.0,0.0,0.0,0.0,0.0,0.0,0.0,0.0,0.0,0.0,-0.676,-0.6974,-0.722,-0.7443,-0.7286,-0.7095,-0.6942,-0.6795,-0.6725,-0.6756,-0.6717,-0.6854,-0.7166,-0.7166,-0.7333,-0.7628,-0.806,-0.8141,-0.8126,-0.8496,-0.8522,-0.833,-0.8214,0.0,0.0,0.0,-0.9205,-0.9642,-0.9825,-0.9755,-0.9764,-1.0199,-1.0067,-0.9997,-1.0358,-1.0584,-1.0731,-1.0731,-1.1029,-1.1194,-1.1096,-1.1028,-1.1196,-1.1403,-1.142,-1.1345,-1.135,-1.1345,-1.1459,-1.1568,-1.1564,-1.1782,-1.2327,-1.2332,-1.2219,-1.2436,-1.2659,-1.2989,-1.3315,-1.3537,-1.3862,-1.4191,-1.4401,-1.4728,-1.5187,-1.6104,-1.7007,-1.8006,-1.8829,-1.9395,-1.9806,-1.9933,-2.0154,-2.0454,-2.0909,-2.0823,-2.0453,-2.0863,-2.0982,-2.0856,-2.0982,-2.1109,-2.1109,-2.1109,-2.1189,-2.1343,0.0,0.0,0.0,0.0,0.0,0.0,0.0,0.0,0.0,0.0,0.0,0.0,0.0,0.0,0.0,0.0,0.0,0.0,0.0,0.0,0.0,0.0,0.0,0.0,0.0,0.0,0.0,0.0,0.0,-0.5954,-0.6714,-0.6883,-0.7031,-0.7149,-0.7212,-0.7189,-0.7054,-0.6997,-0.706,-0.7157,-0.7011,-0.7073,-0.7266,-0.7407,-0.7529,-0.7701,-0.8342,-0.8414,-0.819,-0.862,-0.858,-0.8318,-0.8171,-0.8378,0.0,0.0,0.0,-0.9621,-0.9848,-0.9821,-0.9818,-1.006,-1.0149,-1.0328,-1.0487,-1.0711,-1.0793,-1.0755,-1.1014,-1.1132,-1.1086,-1.0988,-1.1021,-1.133,-1.1199,-1.1095,-1.1315,-1.1467,-1.148,-1.1536,-1.1792,-1.2018,-1.2178,-1.2332,-1.2365,-1.2474,-1.2738,-1.2989,-1.3315,-1.3537,-1.3862,-1.4083,-1.4396,-1.4825,-1.5407,-1.6175,-1.7248,-1.8421,-1.8648,-1.8992,-1.9568,-1.9641,-1.9754,-2.0047,-2.0591,-2.0585,-2.0224,-2.0711,-2.0862,-2.0736,-2.0982,-2.1109,-2.1109,-2.1109,-2.1109,-2.1156,0.0,0.0,0.0,0.0,0.0,0.0,0.0,0.0,0.0,0.0,0.0,0.0,0.0,0.0,0.0,-0.6021,-0.5905,-0.5811,-0.5811,-0.5811,-0.5718,-0.5522,0.0,0.0,-0.5023,0.0,0.0,0.0,0.0,-0.6323,-0.6538,-0.6974,-0.722,-0.7302,-0.7541,-0.7646,-0.7528,-0.7292,-0.7132,-0.7019,-0.7076,-0.7083,-0.7152,-0.7753,-0.7822,-0.7663,-0.8339,-0.841,-0.826,-0.8536,-0.8523,-0.8398,-0.8533,-0.8695,-0.8947,0.0,0.0,0.0,-0.9854,-0.988,-0.9936,-1.027,-1.037,-1.0366,-1.0706,-1.0699,-1.0577,-1.0508,-1.071,-1.0871,-1.0867,-1.0784,-1.0623,-1.0425,-1.048,-1.0606,-1.0606,-1.108,-1.134,-1.1354,-1.1608,-1.176,-1.1869,-1.2035,-1.2264,-1.2587,-1.2768,-1.2989,-1.3315,-1.3537,-1.3753,-1.3753,-1.4283,-1.4825,-1.5407,-1.6803,-1.7778,-1.8421,-1.8421,-1.8655,-1.8907,-1.9181,-1.941,-1.9459,-1.9961,-2.0288,-2.0179,-2.0499,-2.0862,-2.1109,-2.1109,-2.1109,-2.1109,-2.1109,-2.1109,-2.1156,0.0,0.0,0.0,0.0,0.0,0.0,0.0,0.0,0.0,0.0,0.0,0.0,0.0,-0.6095,-0.6108,-0.6414,-0.6333,-0.6263,-0.6305,-0.6263,-0.6229,-0.6159,-0.588,-0.5705,-0.5593,-0.5372,0.0,0.0,0.0,-0.5806,-0.6419,-0.6446,-0.6659,-0.7057,-0.7314,-0.7617,-0.7932,-0.7839,-0.7744,-0.7701,-0.7917,-0.7868,-0.7688,-0.792,-0.7937,-0.7883,-0.8403,-0.8534,-0.8441,-0.8492,-0.8835,-0.9069,-0.8144,-0.837,-0.9083,-0.921,-0.929,-0.932,-0.943,-0.943,-0.9492,-0.9697,-0.9772,-0.9902,-1.0386,-1.0407,-1.0323,-1.0275,-1.0504,-1.0532,-1.0399,-1.0686,-1.0914,-1.0813,-1.087,-1.0785,-1.0577,-1.105,-1.1276,-1.1205,-1.1367,-1.1485,-1.1516,-1.1576,-1.1726,-1.1831,-1.2211,-1.2634,-1.2889,-1.3316,-1.3698,-1.4062,-1.4606,-1.5344,-1.6216,-1.6742,-1.7399,-1.82,-1.82,-1.8311,-1.8538,-1.8868,-1.9096,-1.9153,-1.9611,-1.9968,-2.0281,-2.0743,-2.0982,-2.1109,-2.1109,-2.1109,-2.1109,-2.1109,-2.1109,-2.1122,0.0,0.0,0.0,0.0,0.0,0.0,0.0,0.0,0.0,0.0,0.0,0.0,0.0,0.0,-0.6083,-0.6491,-0.6527,-0.6534,-0.657,-0.649,-0.6453,-0.6424,-0.6166,-0.5937,-0.5819,-0.5617,0.0,0.0,0.0,0.0,0.0,-0.6251,-0.6416,-0.6789,-0.7051,-0.7506,-0.8066,-0.7917,-0.7925,-0.8103,-0.8297,-0.8214,-0.7996,-0.8426,-0.8426,-0.8265,-0.8781,-0.8926,-0.8863,-0.8807,-0.9169,-0.9402,-0.8312,-0.8489,-0.9062,-0.9044,-0.903,-0.8978,-0.9036,-0.9213,-0.9381,-0.9421,-0.9593,-0.9841,-1.0131,-1.0204,-1.0136,-1.01,-1.0244,-1.0327,-1.0288,-1.0538,-1.0811,-1.0711,-1.0716,-1.0591,-1.0387,-1.0955,-1.1178,-1.1008,-1.1266,-1.1383,-1.1314,-1.1369,-1.1513,-1.1513,-1.1887,-1.2299,-1.2556,-1.297,-1.3493,-1.4371,-1.4888,-1.5567,-1.6555,-1.6561,-1.6897,-1.7687,-1.778,-1.805,-1.8397,-1.8603,-1.8881,-1.9037,-1.95,-1.9876,-2.0281,-2.0743,-2.0982,-2.1109,-2.0982,-2.0982,-2.1109,-2.0982,-2.0982,-2.1109,0.0,0.0,0.0,0.0,0.0,0.0,0.0,0.0,0.0,0.0,0.0,0.0,0.0,0.0,0.0,-0.6196,-0.6408,-0.6518,-0.6518,-0.6474,-0.6401,-0.6341,-0.6118,-0.5888,-0.562,-0.5764,-0.5768,0.0,0.0,0.0,0.0,0.0,-0.665,-0.6618,-0.6789,-0.7326,-0.8026,-0.7509,-0.7583,-0.7995,-0.8182,-0.8105,-0.807,-0.9298,-0.9344,-0.8788,-0.9462,-0.949,-0.9361,-0.9466,-0.9416,-0.9348,-0.9268,-0.9082,-0.8854,-0.8804,-0.8862,-0.8848,0.0,0.0,0.0,-0.9467,-0.9899,-1.0311,-1.0047,-1.0064,-1.003,-0.9963,-1.0076,-1.022,-1.0421,-1.0419,-1.0297,-1.0002,-1.001,-1.0019,-1.0019,-1.068,-1.1029,-1.0829,-1.1183,-1.1425,-1.1217,-1.1387,-1.1611,-1.1812,-1.1792,-1.201,-1.253,-1.2643,-1.3272,-1.4681,-1.5234,-1.5803,-1.6278,-1.6278,-1.6527,-1.7129,-1.7396,-1.7869,-1.8343,-1.8397,-1.8765,-1.9399,-1.9633,-1.9998,-2.0159,-2.0493,-2.0862,-2.1109,-2.0736,-2.0862,-2.1109,-2.0736,-2.0862,-2.1109,0.0,0.0,0.0,0.0,0.0,0.0,0.0,0.0,0.0,0.0,0.0,0.0,0.0,0.0,0.0,-0.6549,-0.6719,-0.6794,-0.6861,-0.6956,-0.6963,-0.697,-0.676,-0.6555,-0.6391,-0.6306,-0.6169,0.0,0.0,0.0,0.0,0.0,0.0,0.0,-0.6407,-0.656,-0.6901,-0.7469,-0.7965,-0.8326,-0.8628,-0.8805,-0.8863,-0.9205,-0.9303,-0.9119,-0.9157,-0.9357,-0.9472,-0.9184,-0.955,-1.009,-0.9606,-0.89,-0.8247,-0.8764,-0.8607,-0.8377,-0.8657,0.0,0.0,0.0,0.0,0.0,-0.9874,-0.9817,-0.9734,-0.9839,-0.9888,-0.9957,-0.9986,-1.0003,-1.0085,-1.0269,-1.032,-1.0314,-1.0314,-1.0654,-1.087,-1.0811,-1.0955,-1.0964,-1.0909,-1.0955,-1.0987,-1.1086,-1.1236,-1.1535,-1.2102,-1.2965,-1.3958,-1.4927,-1.5253,-1.5725,-1.6278,-1.6278,-1.6527,-1.7129,-1.7204,-1.7572,-1.8122,-1.83,-1.8455,-1.8687,-1.974,-1.987,-1.9665,-2.0618,-2.0982,-2.1109,-2.0736,-2.0862,-2.1109,-2.0736,-2.0862,-2.1109,0.0,0.0,0.0,0.0,0.0,0.0,0.0,0.0,0.0,0.0,0.0,0.0,0.0,0.0,0.0,-0.6734,-0.6946,-0.7039,-0.6956,-0.7041,-0.7041,-0.6992,-0.6872,-0.6702,-0.6489,-0.6361,-0.6233,0.0,0.0,0.0,0.0,0.0,0.0,0.0,0.0,-0.615,-0.6271,-0.6977,-0.7564,-0.8093,-0.843,-0.8719,-0.9032,-0.9462,-0.9536,-0.9358,-0.9601,-0.9761,-0.9836,-0.9556,-0.9818,-1.0183,-0.9605,-0.9058,-0.8673,-0.861,-0.8551,-0.8473,-0.8469,-0.8663,-0.8833,-0.8757,0.0,0.0,-0.9503,-0.9501,-0.9522,-0.951,-0.9745,-0.9988,-1.0191,-1.0139,-1.022,-1.0845,-1.0789,-1.0513,-1.0462,-1.0605,-1.0801,-1.0801,-1.0904,-1.0998,-1.0998,-1.0998,-1.0998,-1.0998,-1.1096,-1.1349,-1.1776,-1.2984,-1.3953,-1.4348,-1.5151,-1.5644,-1.5952,-1.606,-1.6363,-1.6962,-1.7066,-1.7439,-1.8056,-1.8279,-1.8428,-1.8628,-1.943,-1.9752,-1.9537,-2.0486,-2.0876,-2.0849,-2.0352,-2.0631,-2.0982,-2.0475,-2.0602,-2.1109,0.0,0.0,0.0,0.0,0.0,0.0,0.0,0.0,0.0,0.0,0.0,0.0,0.0,0.0,0.0,0.0,-0.7039,-0.7147,-0.6894,-0.6849,-0.6781,-0.6683,-0.666,-0.6532,-0.6227,-0.6227,-0.6142,0.0,0.0,0.0,0.0,0.0,0.0,0.0,0.0,0.0,-0.5941,-0.6196,-0.6753,-0.7589,-0.78,-0.8198,-0.8832,-0.9829,-0.9813,-0.9458,-1.0247,-1.0423,-1.0256,-1.0256,-1.0116,-0.9824,-0.9284,-0.9395,-0.9519,-0.855,-0.859,-0.8832,-0.8364,-0.8522,-0.8753,-0.8629,-0.8816,0.0,-0.9022,-0.9277,-0.9399,-0.9288,-0.9785,-1.0313,-1.0787,-1.0637,-1.075,-1.1601,-1.1225,-1.0785,-1.0495,-1.0701,-1.0905,-1.083,-1.103,-1.1225,-1.1127,-1.1146,-1.1161,-1.1161,-1.1179,-1.1404,-1.1624,-1.2771,-1.3491,-1.3546,-1.4765,-1.5439,-1.5499,-1.5728,-1.6196,-1.6677,-1.7003,-1.7476,-1.7988,-1.8235,-1.8505,-1.8838,-1.9141,-1.9429,-1.9607,-2.0385,-2.0552,-2.041,-1.9946,-2.0242,-2.0936,-1.9947,-2.0214,-2.0982,0.0,0.0,0.0,0.0,0.0,0.0,0.0,0.0,0.0,0.0,0.0,0.0,0.0,0.0,0.0,0.0,-0.6798,-0.6871,-0.6726,-0.665,-0.6568,-0.652,-0.6526,-0.6489,-0.6367,-0.627,-0.6184,0.0,0.0,0.0,0.0,0.0,0.0,0.0,0.0,0.0,-0.5462,-0.5564,-0.6211,-0.724,-0.7624,-0.8298,-0.9025,-0.9562,-0.963,-0.9567,-0.9932,-1.003,-0.9992,-0.9992,-1.0078,-1.0027,-0.959,-0.9444,-0.9438,-0.8887,-0.8655,-0.8671,-0.8452,-0.8641,-0.8799,-0.8759,-0.9017,0.0,-0.9379,-0.9604,-0.9928,-1.0331,-1.0469,-1.0747,-1.1238,-1.1228,-1.126,-1.1566,-1.1373,-1.1015,-1.08,-1.1172,-1.1237,-1.0674,-1.1067,-1.116,-1.0786,-1.1043,-1.1149,-1.0953,-1.1298,-1.1668,-1.1844,-1.2713,-1.3396,-1.3785,-1.4518,-1.5071,-1.5493,-1.5762,-1.6132,-1.6706,-1.7038,-1.7515,-1.8021,-1.8081,-1.8242,-1.8584,-1.917,-1.9253,-1.9056,-1.9952,-2.0119,-1.9895,-1.9954,-2.0174,-2.0296,-2.015,-2.0354,-2.0736,0.0,0.0,0.0,0.0,0.0,0.0,0.0,0.0,0.0,0.0,0.0,0.0,0.0,0.0,0.0,0.0,0.0,0.0,0.0,0.0,-0.6462,-0.6472,-0.6379,-0.627,-0.6105,-0.605,0.0,0.0,0.0,0.0,0.0,0.0,0.0,0.0,0.0,-0.5227,-0.5507,-0.556,-0.6228,-0.7319,-0.7319,-0.776,-0.8416,-0.8851,-0.903,-0.9112,-0.9715,-1.0115,-1.0293,-1.0412,-1.0372,-1.0204,-0.967,-0.9663,-0.9719,-0.9066,-0.905,-0.9141,-0.8786,-0.877,-0.8834,-0.8848,-0.8953,0.0,0.0,-0.9592,-0.9808,-1.0141,-1.0528,-1.0898,-1.1171,-1.1364,-1.1514,-1.1517,-1.1348,-1.1135,-1.0637,-1.107,-1.124,-1.0823,-1.1029,-1.1096,-1.0653,-1.0944,-1.1223,-1.1257,-1.1468,-1.1634,-1.1746,-1.2531,-1.3062,-1.3303,-1.4214,-1.4742,-1.4898,-1.5579,-1.6057,-1.6311,-1.6736,-1.7216,-1.7826,-1.7826,-1.7869,-1.8046,-1.8838,-1.8958,-1.8657,-1.9806,-1.9863,-1.9537,-1.9856,-2.0065,-2.0224,-1.9998,-2.0221,-2.0609,-0.457,0.0,0.0,0.0,0.0,0.0,0.0,0.0,0.0,0.0,0.0,0.0,0.0,-0.7172,-0.7222,-0.6575,0.0,0.0,-0.6455,-0.6406,-0.6374,-0.6376,-0.6225,-0.6104,-0.5974,-0.5842,0.0,0.0,0.0,0.0,0.0,0.0,0.0,0.0,0.0,-0.5413,-0.5839,-0.5863,-0.6533,-0.7545,-0.7177,-0.7428,-0.8027,-0.8505,-0.8743,-0.886,-0.9775,-1.0303,-1.0665,-1.0936,-1.0659,-1.022,-0.9832,-0.9834,-0.9895,-0.9129,-0.9304,-0.9674,-0.907,-0.8999,-0.9059,-0.9083,-0.9092,-0.9164,0.0,0.0,0.0,-0.9904,-1.0416,-1.0902,-1.0895,-1.1354,-1.1636,-1.1393,-1.1342,-1.1086,-1.0527,-1.0795,-1.0966,-1.0711,-1.085,-1.0917,-1.0522,-1.0904,-1.1215,-1.149,-1.1537,-1.1559,-1.1656,-1.2323,-1.2764,-1.2958,-1.3981,-1.4541,-1.4489,-1.5366,-1.5946,-1.6099,-1.6524,-1.707,-1.7626,-1.7685,-1.7744,-1.7823,-1.8579,-1.8741,-1.8693,-1.9688,-1.9887,-1.937,-1.9651,-1.9955,-2.0022,-1.9846,-2.0094,-2.0482,-0.4344,-0.4312,0.0,0.0,0.0,0.0,0.0,0.0,0.0,0.0,0.0,-0.651,-0.6744,-0.715,-0.7289,-0.6987,-0.7002,-0.6871,-0.6501,-0.6392,-0.6294,-0.6323,-0.6138,-0.6176,-0.649,-0.5979,-0.587,0.0,0.0,0.0,0.0,0.0,0.0,0.0,-0.493,-0.5457,-0.6308,-0.6078,-0.6763,-0.8025,-0.7583,-0.7923,-0.8646,-0.9285,-0.9637,-0.988,-1.0354,-1.0552,-1.0638,-1.0913,-1.0552,-1.0054,-0.999,-0.9766,-0.9451,-0.9074,-0.9178,-0.9293,-0.9113,-0.9308,-0.952,-0.9653,-0.9885,-1.0105,-1.048,0.0,-1.0443,-1.0698,0.0,-1.0855,-1.0975,0.0,0.0,-1.1178,-1.1166,-1.1129,-1.0942,-1.0725,-1.0379,-0.9864,-1.0203,-1.0434,-1.0216,-1.0667,-1.1086,-1.1294,-1.1273,-1.1487,-1.1939,-1.2241,-1.2764,-1.3443,-1.3981,-1.4524,-1.4957,-1.5354,-1.594,-1.6624,-1.6624,-1.7067,-1.7642,-1.7815,-1.8081,-1.8457,-1.8778,-1.9092,-1.9276,-1.972,-1.9833,-1.9761,-1.9994,-1.9882,-1.9749,-1.9909,-2.0106,-2.0234,-0.4312,-0.4215,-0.4091,0.0,0.0,0.0,0.0,0.0,0.0,0.0,0.0,-0.6573,-0.6942,-0.714,-0.7124,-0.6773,-0.6927,-0.689,-0.656,-0.6435,-0.6515,-0.681,-0.6258,-0.6167,-0.6582,-0.5988,-0.5753,0.0,-0.5622,0.0,0.0,0.0,0.0,0.0,-0.5251,-0.5788,-0.6755,-0.6609,-0.7312,-0.8655,-0.8714,-0.9026,-0.9347,-0.866,-0.8727,-0.9454,-1.0453,-1.0837,-1.0859,-1.1255,-1.1039,-1.0651,-1.08,-1.0595,-1.029,-1.0167,-1.0334,-1.0473,-1.0387,-1.0421,-1.0449,-1.0419,-1.0399,-1.037,-1.0503,-1.0514,-1.0566,-1.0523,0.0,0.0,0.0,0.0,0.0,0.0,-1.0345,-1.0438,-1.0161,-0.9854,-0.974,-0.9986,-1.017,-1.0248,-1.0289,-1.045,-1.0795,-1.122,-1.1255,-1.1494,-1.2118,-1.2277,-1.2715,-1.3244,-1.4068,-1.4552,-1.4666,-1.5698,-1.6283,-1.6285,-1.6772,-1.7166,-1.7391,-1.7688,-1.7886,-1.8031,-1.8605,-1.8878,-1.8909,-1.9606,-1.9929,-2.0075,-1.9961,-2.0067,-2.0295,-2.0585,-2.0609,-2.0361,-0.4509,-0.4259,-0.4071,-0.4064,0.0,0.0,0.0,0.0,-0.5442,-0.6056,-0.6221,-0.6552,-0.7214,-0.723,-0.7116,-0.6997,-0.6988,-0.6916,-0.6829,-0.666,-0.6722,-0.7108,-0.6487,-0.6337,-0.6702,-0.6125,-0.5793,0.0,0.0,0.0,0.0,0.0,0.0,0.0,-0.5591,-0.6201,-0.7149,-0.7236,-0.8053,-0.9296,-0.9649,-0.9732,-0.962,-0.8807,-0.8805,-0.9312,-1.0746,-1.1126,-1.102,-1.1696,-1.1527,-1.1071,-1.1405,-1.1155,-1.0875,-1.0961,-1.1123,-1.1301,-1.1354,-1.1337,-1.1253,-1.1141,-1.0938,-1.0728,-1.0648,-1.0677,-1.0645,-1.0365,-1.0498,0.0,0.0,0.0,-1.0072,-0.9637,0.0,-0.9767,-0.9588,-0.9296,-0.9337,-0.9851,-0.9977,-1.0036,-1.0153,-1.0296,-1.0543,-1.0869,-1.0963,-1.1297,-1.1876,-1.2155,-1.2417,-1.2942,-1.3895,-1.443,-1.4401,-1.5781,-1.6264,-1.602,-1.6753,-1.7067,-1.7186,-1.758,-1.7757,-1.7862,-1.8585,-1.8851,-1.8843,-1.9389,-1.9951,-2.0213,-1.9947,-2.0225,-2.0702,-2.0664,-2.067,-2.0482,-0.5017,-0.4619,-0.4285,-0.4187,-0.4235,-0.4413,-0.4833,-0.5296,-0.5798,-0.63,-0.6283,-0.6568,-0.7586,-0.7343,-0.7323,-0.791,-0.7401,-0.708,-0.7398,-0.7169,-0.7041,-0.69,-0.6857,-0.6857,-0.6903,-0.6375,-0.6082,-0.6103,0.0,0.0,0.0,0.0,0.0,0.0,-0.5958,-0.6563,-0.7626,-0.791,-0.8826,-0.9949,-1.0009,-0.9551,-0.8974,-1.0598,-1.0635,-1.0101,-1.1505,-1.1442,-1.0852,-1.2026,-1.1776,-1.116,-1.1566,-1.1144,-1.046,-1.088,-1.1197,-1.1449,-1.1582,-1.1787,-1.1933,-1.1648,-1.1504,-1.1426,-1.12,-1.1093,-1.0851,-1.0491,-1.0361,-1.0176,-0.9753,-0.969,-0.9589,-0.9583,-0.9563,0.0,0.0,-0.9461,-0.9169,-0.9144,-0.9346,-0.9574,-0.9592,-1.0009,-1.026,-1.0081,-1.0421,-1.0684,-1.0935,-1.1538,-1.1997,-1.2523,-1.3426,-1.4025,-1.4265,-1.5154,-1.5626,-1.5873,-1.6411,-1.6842,-1.7192,-1.7694,-1.8203,-1.849,-1.8791,-1.9085,-1.9352,-1.9372,-1.9773,-2.0253,-2.0281,-2.0409,-2.0675,-1.9949,-1.9877,-2.0106,-0.4859,-0.4798,-0.4669,-0.4141,-0.4258,-0.4599,-0.5084,-0.5499,-0.5923,-0.6426,-0.6648,-0.6928,-0.7309,-0.7375,-0.7542,-0.7743,-0.7352,-0.7267,-0.7697,-0.7458,-0.7422,-0.7749,-0.7453,-0.7342,-0.7651,-0.6981,-0.6647,-0.6647,-0.6434,0.0,0.0,0.0,0.0,0.0,-0.6465,-0.6964,-0.7809,-0.8464,-0.9276,-1.0279,-1.0839,-1.0664,-1.0105,-1.0674,-1.0419,-0.9764,-1.082,-1.133,-1.1668,-1.2254,-1.2219,-1.198,-1.2318,-1.2175,-1.1931,-1.2105,-1.2272,-1.2624,-1.2962,-1.3056,-1.3027,-1.3271,-1.2773,-1.2264,-1.2176,-1.1988,-1.1624,-1.0864,-1.097,-1.0877,-0.9766,-0.971,-0.9653,-0.9186,-0.9186,-0.9271,0.0,-0.9016,-0.8768,-0.8619,-0.9032,-0.9279,-0.9244,-0.9569,-0.9783,-0.9908,-1.0301,-1.0791,-1.1492,-1.1532,-1.1906,-1.2842,-1.3379,-1.3889,-1.4276,-1.5457,-1.594,-1.5891,-1.6211,-1.653,-1.6655,-1.7048,-1.7444,-1.7889,-1.8367,-1.875,-1.9092,-1.9285,-1.9652,-1.9966,-1.9739,-2.0104,-2.0645,-2.0484,-2.0242,-2.0106,-0.5169,-0.5058,-0.4817,-0.4198,-0.4548,-0.4965,-0.5281,-0.5772,-0.6276,-0.6656,-0.7,-0.7285,-0.7556,-0.7796,-0.7943,-0.8025,-0.7727,-0.7698,-0.8047,-0.7893,-0.7833,-0.8111,-0.7978,-0.7885,-0.7938,-0.752,-0.7203,-0.7111,-0.6885,-0.6755,0.0,0.0,0.0,0.0,-0.6864,-0.7249,-0.7891,-0.8673,-0.9575,-1.0523,-1.1607,-1.1562,-1.082,-1.0904,-1.0419,-0.9764,-1.0988,-1.1634,-1.1963,-1.248,-1.2683,-1.2683,-1.2769,-1.285,-1.285,-1.285,-1.3176,-1.3554,-1.3736,-1.378,-1.3749,-1.3837,-1.333,-1.2783,-1.2602,-1.2385,-1.2028,-1.1379,-1.142,-1.1277,-1.0251,-1.0068,-0.9863,-0.9249,-0.9105,-0.9009,0.0,-0.8829,-0.8731,-0.8561,-0.8817,-0.9026,-0.9101,-0.9322,-0.9621,-0.9915,-1.0213,-1.0628,-1.1211,-1.1522,-1.1964,-1.2655,-1.3389,-1.3861,-1.4346,-1.542,-1.5896,-1.5641,-1.6168,-1.6424,-1.6336,-1.6717,-1.7117,-1.767,-1.8032,-1.8425,-1.8964,-1.905,-1.9265,-1.9591,-1.9482,-1.9838,-2.0375,-2.0196,-2.002,-1.9724,-0.5878,-0.5218,-0.4688,-0.4389,-0.5023,-0.5507,-0.5358,-0.6133,-0.6851,-0.7098,-0.7281,-0.7609,-0.8142,-0.8352,-0.8615,-0.8703,-0.8375,-0.8276,-0.8556,-0.841,-0.8264,-0.8163,-0.8475,-0.8367,-0.7959,-0.8024,-0.7824,-0.7455,-0.7272,-0.7157,0.0,0.0,0.0,0.0,-0.7116,-0.7389,-0.7892,-0.8769,-0.9696,-1.072,-1.2123,-1.2041,-1.1077,-1.1333,-1.0771,-1.0136,-1.2012,-1.2289,-1.1997,-1.2873,-1.3145,-1.3145,-1.3145,-1.3145,-1.3145,-1.3145,-1.3665,-1.4141,-1.3985,-1.4076,-1.409,-1.3401,-1.3163,-1.3003,-1.2567,-1.2234,-1.2038,-1.2015,-1.1695,-1.1351,-1.1033,-1.0677,-1.0207,-0.9715,-0.9184,-0.8893,-0.877,-0.8914,-0.8986,-0.8974,-0.8804,-0.8789,-0.9083,-0.931,-0.96,-0.9964,-1.0168,-1.0282,-1.0203,-1.1476,-1.2141,-1.2134,-1.3152,-1.3915,-1.419,-1.5038,-1.5311,-1.5076,-1.607,-1.6524,-1.623,-1.6813,-1.7199,-1.7576,-1.7576,-1.8114,-1.8835,-1.8568,-1.8863,-1.9366,-1.9366,-1.949,-1.9633,-1.928,-1.9131,-1.9078,-0.5401,-0.4916,-0.4612,-0.4793,-0.5039,-0.5358,-0.5673,-0.6237,-0.6746,-0.7187,-0.7474,-0.7744,-0.819,-0.8597,-0.8898,-0.9151,-0.8885,-0.8864,-0.9182,-0.8836,-0.8627,-0.8701,-0.8662,-0.8653,-0.8762,-0.8604,-0.8427,-0.8288,-0.7965,-0.7784,-0.7789,0.0,0.0,0.0,-0.7435,-0.7597,-0.7917,-0.8831,-0.9952,-1.122,-1.2105,-1.1787,-1.0926,-1.177,-1.1607,-1.0856,-1.1742,-1.2325,-1.2791,-1.3237,-1.3417,-1.3417,-1.3417,-1.3417,-1.3417,-1.3417,-1.3646,-1.4016,-1.413,-1.418,-1.4204,-1.4341,-1.3845,-1.3407,-1.3519,-1.3271,-1.2954,-1.238,-1.2684,-1.2549,-1.127,-1.1316,-1.1142,-1.0035,-0.9352,-0.8893,-0.8533,-0.8594,-0.8595,-0.8286,-0.8669,-0.8914,-0.8789,-0.9009,-0.9261,-0.9556,-0.985,-1.0245,-1.0549,-1.1032,-1.1527,-1.2083,-1.1838,-1.2097,-1.2834,-1.3667,-1.4117,-1.393,-1.524,-1.5797,-1.5696,-1.5875,-1.6476,-1.727,-1.7058,-1.7706,-1.8911,-1.8597,-1.8863,-1.9366,-1.9366,-1.9365,-1.9299,-1.9468,-1.9333,-1.9078,-0.5543,-0.5009,-0.4792,-0.5106,-0.5425,-0.5694,-0.5887,-0.6429,-0.6913,-0.7348,-0.782,-0.8187,-0.8527,-0.893,-0.927,-0.951,-0.9406,-0.9427,-0.9637,-0.924,-0.9148,-0.9436,-0.9262,-0.9252,-0.9386,-0.9325,-0.9074,-0.8823,-0.8462,-0.8332,-0.8235,0.0,0.0,0.0,-0.7527,-0.7598,-0.7829,-0.9064,-1.0204,-1.1318,-1.2073,-1.2105,0.0,-1.231,-1.2266,-1.202,-1.2447,-1.2898,-1.3332,-1.3415,-1.3591,-1.3682,-1.3682,-1.3682,-1.3682,-1.3682,-1.3958,-1.4272,-1.4327,-1.4364,-1.4401,-1.437,-1.4094,-1.3791,-1.3702,-1.3514,-1.3193,-1.2847,-1.2853,-1.2757,-1.1777,-1.1728,-1.1455,-1.0078,-0.9395,-0.8964,-0.8759,-0.86,-0.8516,-0.8471,-0.8623,-0.8772,-0.8686,-0.897,-0.9415,-0.9829,-0.9881,-1.0226,-1.091,-1.1246,-1.1525,-1.1709,-1.1927,-1.2198,-1.262,-1.347,-1.4004,-1.4188,-1.5077,-1.5577,-1.569,-1.5809,-1.6145,-1.6829,-1.6618,-1.7258,-1.8337,-1.8214,-1.8516,-1.9133,-1.9259,-1.9344,-1.9176,-1.9368,-1.9351,-1.9078,-0.5908,-0.5461,-0.522,-0.5311,-0.5944,-0.6318,-0.6168,-0.6744,-0.7371,-0.765,-0.8178,-0.8771,-0.9177,-0.9481,-0.974,-0.9934,-0.9944,-0.9965,-0.9958,-0.9741,-0.971,-1.0057,-0.9893,-0.9806,-0.9861,-0.992,-0.9723,-0.9155,-0.8854,-0.8647,-0.8567,0.0,0.0,0.0,-0.7568,-0.7603,-0.7919,-0.932,-1.0429,-1.1151,-1.1989,-1.2472,-1.2588,-1.2588,-1.276,-1.3028,-1.329,-1.3385,-1.3513,-1.3584,-1.3766,-1.3866,-1.3954,-1.396,-1.396,-1.396,-1.4313,-1.4592,-1.4394,-1.44,-1.4502,-1.3931,-1.4016,-1.401,-1.3534,-1.3267,-1.3171,-1.3102,-1.2709,-1.2379,-1.2283,-1.195,-1.1275,-1.0207,-0.9491,-0.9091,-0.9021,-0.8701,-0.8562,-0.8826,-0.8676,0.0,-0.8561,-0.9093,-0.9668,-1.0194,-0.9957,-1.0155,-1.0981,-1.1456,-1.1531,-1.1213,-1.232,-1.2921,-1.2763,-1.3657,-1.4272,-1.4802,-1.5269,-1.5638,-1.5903,-1.6163,-1.6284,-1.6393,-1.632,-1.6845,-1.764,-1.7635,-1.8064,-1.89,-1.903,-1.9082,-1.9151,-1.9156,-1.9191,-1.9206,-0.6,-0.6085,-0.6087,-0.5695,-0.6252,-0.6719,-0.6881,-0.7503,-0.8049,-0.841,-0.8746,-0.9196,-0.9892,-0.9987,-1.0224,-1.0581,-1.0679,-1.0598,-1.0532,-1.009,-0.9926,-1.0152,-0.9871,-0.9726,-0.9955,-1.0131,-0.9901,-0.9095,-0.9128,-0.8937,-0.8491,-0.8018,-0.7945,-0.8115,-0.7926,-0.8261,-0.8923,-0.9522,-1.0202,-1.1087,-1.1584,-1.1897,-1.2164,-1.2164,-1.2316,-1.2564,-1.2543,-1.3,-1.359,-1.404,-1.404,-1.3957,-1.4136,-1.4226,-1.4226,-1.4226,-1.4262,-1.4394,-1.4298,-1.4208,-1.3931,-1.3636,-1.3443,-1.3244,-1.3147,-1.3113,-1.3097,-1.2851,-1.2791,-1.2496,-1.1867,-1.1532,-1.1276,-1.0891,-1.0374,-0.9755,-0.8917,-0.8644,-0.8487,-0.824,-0.8626,-0.8738,-0.8214,-0.8663,-0.9047,-0.9334,-0.9624,-0.9868,-1.0059,-1.0302,-1.0627,-1.0859,-1.0639,-1.0836,-1.1477,-1.2355,-1.2932,-1.3146,-1.474,-1.5539,-1.5595,-1.6054,-1.6393,-1.6745,-1.6642,-1.7141,-1.7887,-1.7717,-1.8001,-1.8421,-1.8225,-1.8433,-1.8766,-1.8815,-1.915,-1.945,-0.6411,-0.6495,-0.6507,-0.6348,-0.6839,-0.7403,-0.7845,-0.8555,-0.8962,-0.8869,-0.9207,-0.9665,-1.0251,-1.0318,-1.0455,-1.0932,-1.1053,-1.0928,-1.091,-1.0528,-1.0386,-1.048,-1.0193,-1.0019,-1.001,-1.0315,-1.0104,-0.9372,-0.9334,-0.9147,-0.8703,-0.8292,-0.801,-0.7927,-0.8096,-0.8583,-0.9322,-0.9869,-1.0423,-1.1112,-1.1596,-1.2026,-1.2327,-1.2327,-1.2569,-1.2794,-1.2736,-1.2953,-1.3368,-1.3584,-1.363,-1.3756,-1.398,-1.4217,-1.4314,-1.4314,-1.4412,-1.4485,-1.4334,-1.4118,-1.3835,-1.3539,-1.3443,-1.3249,-1.2958,-1.2953,-1.2856,-1.2662,-1.2467,-1.2206,-1.1692,-1.1472,-1.1227,-1.1059,-1.0432,-0.9777,-0.913,-0.8748,-0.8351,-0.8018,-0.8216,-0.8274,-0.7933,-0.8353,-0.8838,-0.9227,-0.9274,-0.9461,-0.9931,-1.0001,-0.9898,-0.9607,-1.0094,-1.0408,-1.0343,-1.175,-1.2623,-1.2972,-1.4057,-1.4901,-1.5493,-1.5734,-1.5993,-1.6325,-1.6636,-1.6998,-1.7365,-1.7523,-1.783,-1.8298,-1.7824,-1.8163,-1.8643,-1.8527,-1.8988,-1.9577,-0.6997,-0.6941,-0.6959,-0.7086,-0.752,-0.8062,-0.8687,-0.9431,-0.9801,-0.9422,-0.9798,-1.0222,-1.0637,-1.052,-1.0644,-1.1163,-1.1203,-1.1143,-1.1171,-1.092,-1.0813,-1.0914,-1.0569,-1.0356,-1.0212,-1.0491,-1.0398,-0.9792,-0.9629,-0.94,-0.8995,-0.8552,-0.8222,-0.8019,-0.8528,-0.9119,-0.9798,-1.0288,-1.0872,-1.1332,-1.18,-1.2276,-1.2676,-1.2676,-1.2856,-1.311,-1.311,-1.3182,-1.3204,-1.3204,-1.3333,-1.3488,-1.3831,-1.401,-1.422,-1.4278,-1.4354,-1.4469,-1.4249,-1.396,-1.3642,-1.3443,-1.3346,-1.3249,-1.2861,-1.2764,-1.2662,-1.237,-1.2078,-1.1828,-1.1657,-1.1429,-1.1287,-1.1196,-1.048,-0.9822,-0.9354,-0.8932,-0.8445,-0.8084,-0.7984,-0.7943,-0.7975,-0.8264,-0.8684,-0.9209,-0.9036,-0.9188,-0.9783,-0.9639,-0.926,-0.8786,-0.9838,-1.0173,-0.96,-1.1326,-1.2557,-1.2989,-1.3719,-1.4584,-1.5493,-1.5574,-1.5793,-1.6006,-1.661,-1.6869,-1.6899,-1.7193,-1.7602,-1.8181,-1.7485,-1.7768,-1.8563,-1.8392,-1.8833,-1.9624,-0.7616,-0.7876,-0.7994,-0.776,-0.8086,-0.8645,-0.9161,-0.9719,-1.0187,-1.0292,-1.0527,-1.083,-1.1068,-1.089,-1.0895,-1.1165,-1.1383,-1.151,-1.1487,-1.1001,-1.1015,-1.1721,-1.0897,-1.0587,-1.1096,-1.1156,-1.0748,-1.0083,-1.0063,-0.9916,-0.9433,-0.8825,-0.8651,-0.8902,-0.958,-1.02,-1.0819,-1.099,-1.1444,-1.2042,-1.2091,-1.2254,-1.2476,-1.2476,-1.2748,-1.3138,-1.3138,-1.3301,-1.341,-1.341,-1.3319,-1.3191,-1.3732,-1.391,-1.395,-1.4173,-1.4082,-1.4004,-1.3981,-1.3509,-1.3147,-1.3147,-1.2958,-1.2861,-1.2764,-1.257,-1.237,-1.2078,-1.1585,-1.1385,-1.156,-1.1619,-1.1552,-1.1594,-1.121,-1.0554,-0.9519,-0.9252,-0.8921,-0.8173,-0.8378,-0.8677,-0.893,-0.8599,-0.8567,-0.883,-0.912,-0.9159,-0.8918,-0.8805,-0.898,-0.9466,-0.9072,-0.9179,-1.0018,-1.1228,-1.198,-1.2392,-1.4101,-1.5112,-1.5499,-1.6214,-1.6507,-1.629,-1.7068,-1.7412,-1.7412,-1.6868,-1.7009,-1.7479,-1.6891,-1.7179,-1.7943,-1.8197,-1.884,-1.9619,-0.8236,-0.8329,-0.8365,-0.8649,-0.8893,-0.9205,-1.0012,-1.0272,-1.0505,-1.0891,-1.0974,-1.1096,-1.1194,-1.1096,-1.1049,-1.1216,-1.1535,-1.1539,-1.1258,-1.1304,-1.1367,-1.1323,-1.1148,-1.101,-1.0893,-1.1088,-1.0789,-1.0002,-1.0026,-0.9753,-0.9291,-0.9039,-0.9194,-0.9821,-1.0243,-1.0921,-1.1628,-1.172,-1.1957,-1.228,-1.242,-1.2528,-1.2562,-1.2699,-1.2762,-1.2811,-1.2811,-1.2874,-1.2956,-1.3162,-1.3244,-1.3434,-1.3771,-1.3951,-1.4151,-1.3998,-1.4123,-1.4299,-1.399,-1.3751,-1.3557,-1.3402,-1.3166,-1.2931,-1.2797,-1.2467,-1.2175,-1.1975,-1.1683,-1.1487,-1.178,-1.1869,-1.1823,-1.164,-1.14,-1.0931,-0.9928,-0.9597,-0.928,-0.8585,-0.8378,-0.8414,-0.8497,-0.8466,-0.8338,-0.8161,-0.8482,-0.8654,-0.8513,-0.8438,-0.8636,-0.9257,-0.9204,-0.9623,-1.0522,-1.1497,-1.2343,-1.2838,-1.3846,-1.4696,-1.5499,-1.5964,-1.6458,-1.7014,-1.7177,-1.7334,-1.7485,-1.6773,-1.6891,-1.7479,-1.6773,-1.7048,-1.7907,-1.8191,-1.8822,-1.9443,-0.8734,-0.8608,-0.8662,-0.94,-0.9452,-0.9652,-1.0586,-1.0617,-1.0715,-1.126,-1.1244,-1.1194,-1.1194,-1.1194,-1.121,-1.1196,-1.1543,-1.1573,-1.1385,-1.1425,-1.1463,-1.1294,-1.1259,-1.1079,-1.0925,-1.1139,-1.0842,-1.0232,-1.0246,-0.9912,-0.9362,-0.9397,-0.9741,-1.0397,-1.079,-1.1387,-1.2161,-1.2301,-1.2457,-1.2641,-1.2877,-1.2877,-1.284,-1.2997,-1.2895,-1.2848,-1.2744,-1.2784,-1.2949,-1.3158,-1.3263,-1.3492,-1.3682,-1.393,-1.4124,-1.403,-1.4173,-1.4272,-1.3925,-1.3807,-1.3744,-1.3461,-1.3312,-1.3152,-1.2822,-1.2376,-1.2061,-1.1795,-1.1683,-1.1702,-1.1968,-1.1996,-1.1939,-1.1844,-1.1522,-1.1081,-1.0167,-0.9923,-0.9496,-0.8787,-0.8513,-0.8495,-0.8715,-0.8658,-0.8594,-0.8584,-0.8449,-0.8351,-0.8203,-0.8398,-0.8694,-0.9062,-0.9508,-1.0079,-1.0985,-1.1935,-1.2663,-1.3153,-1.3768,-1.4516,-1.5418,-1.5893,-1.6594,-1.7358,-1.7171,-1.7243,-1.7367,-1.6773,-1.6891,-1.725,-1.6773,-1.7002,-1.7793,-1.8064,-1.8582,-1.9069,-0.8904,-0.8696,-0.893,-0.9822,-0.9682,-0.979,-1.0721,-1.0829,-1.0973,-1.1381,-1.1326,-1.1194,-1.1194,-1.1194,-1.121,-1.1196,-1.1366,-1.1579,-1.1898,-1.1313,-1.1294,-1.2009,-1.1094,-1.091,-1.1497,-1.1397,-1.1208,-1.0801,-1.0717,-1.0502,-1.0098,-1.0085,-1.0263,-1.0641,-1.1258,-1.1926,-1.2441,-1.2899,-1.3093,-1.312,-1.3367,-1.3265,-1.2951,-1.2956,-1.3195,-1.3393,-1.3072,-1.3326,-1.3743,-1.3743,-1.3527,-1.3378,-1.3683,-1.382,-1.3868,-1.4116,-1.4013,-1.382,-1.3814,-1.3647,-1.3372,-1.3054,-1.3265,-1.3308,-1.2772,-1.2525,-1.2054,-1.1339,-1.1394,-1.1653,-1.1873,-1.1934,-1.2068,-1.2262,-1.1692,-1.1115,-1.0395,-1.0078,-0.9558,-0.874,-0.8811,-0.937,-1.0173,-0.9487,-0.9456,-1.0648,-0.9436,-0.841,-0.7899,-0.8792,-0.9247,-0.9203,-0.9684,-1.0447,-1.1337,-1.2082,-1.2741,-1.3082,-1.4382,-1.5167,-1.5418,-1.6239,-1.6845,-1.7092,-1.7092,-1.7012,-1.702,-1.6661,-1.6661,-1.702,-1.6655,-1.6891,-1.7521,-1.7781,-1.8294,-1.8815,-0.9553,-0.9468,-0.9618,-1.019,-1.0375,-1.0627,-1.106,-1.1239,-1.1236,-1.1312,-1.1501,-1.151,-1.1227,-1.1326,-1.143,-1.1405,-1.175,-1.1889,-1.1915,-1.193,-1.1911,-1.1933,-1.1842,-1.1838,-1.173,-1.1789,-1.1557,-1.0918,-1.0813,-1.0345,-0.9744,-0.9974,-1.0491,-1.1206,-1.1639,-1.2282,-1.3152,-1.3297,-1.3362,-1.3378,-1.3408,-1.3289,-1.299,-1.2936,-1.2822,-1.2661,-1.2661,-1.2709,-1.2876,-1.3098,-1.3098,-1.3088,-1.3552,-1.3746,-1.373,-1.3641,-1.3896,-1.404,-1.3868,-1.3895,-1.3927,-1.3645,-1.3602,-1.3647,-1.3319,-1.2734,-1.2159,-1.1634,-1.1585,-1.1752,-1.2079,-1.2164,-1.2159,-1.2203,-1.192,-1.1631,-1.1201,-1.0629,-1.0159,-0.9999,-0.9547,-0.9419,-0.9972,-0.9975,-0.9822,-0.9698,-0.9909,-0.9543,-0.8471,-0.8604,-0.9065,-0.9639,-1.0731,-1.1692,-1.2774,-1.3458,-1.3964,-1.4382,-1.4787,-1.5482,-1.6363,-1.6918,-1.728,-1.7358,-1.7358,-1.7178,-1.7026,-1.6661,-1.6661,-1.7026,-1.6655,-1.6891,-1.7515,-1.7774,-1.8178,-1.8511,-0.9917,-0.988,-0.9974,-1.0547,-1.0679,-1.0801,-1.1162,-1.1179,-1.126,-1.1447,-1.1611,-1.1666,-1.1562,-1.1671,-1.1701,-1.1516,-1.1832,-1.1976,-1.2049,-1.212,-1.2101,-1.1978,-1.2019,-1.2028,-1.1723,-1.1889,-1.1649,-1.1191,-1.0764,-1.0277,-0.9827,-0.9954,-1.0418,-1.1309,-1.1411,-1.2098,-1.3172,-1.3257,-1.3397,-1.3626,-1.3546,-1.3316,-1.3113,-1.2935,-1.2772,-1.255,-1.2441,-1.2441,-1.2659,-1.2881,-1.2881,-1.2989,-1.3423,-1.3537,-1.3614,-1.3683,-1.3965,-1.4159,-1.3789,-1.3853,-1.3938,-1.3565,-1.3529,-1.3577,-1.3247,-1.2812,-1.2299,-1.1759,-1.1667,-1.1905,-1.2312,-1.2334,-1.2319,-1.2309,-1.2161,-1.19,-1.1623,-1.0749,-1.0315,-1.0774,-0.9885,-0.9531,-1.0362,-1.0605,-1.0629,-1.0393,-1.0433,-1.0163,-0.9469,-0.9207,-0.9367,-0.9952,-1.1306,-1.2437,-1.3266,-1.3986,-1.4629,-1.5178,-1.5482,-1.6028,-1.6712,-1.7141,-1.7334,-1.7334,-1.7217,-1.7038,-1.6779,-1.6431,-1.6543,-1.6779,-1.6537,-1.6891,-1.7503,-1.779,-1.8157,-1.8375,-1.019,-1.009,-1.0122,-1.0764,-1.0524,-1.0496,-1.1072,-1.1002,-1.1074,-1.1746,-1.1671,-1.1718,-1.2077,-1.2143,-1.1917,-1.1604,-1.1754,-1.1967,-1.2156,-1.1959,-1.1815,-1.1969,-1.1778,-1.1715,-1.1742,-1.1697,-1.162,-1.1461,-1.0738,-1.0314,-1.0264,-0.9985,-1.0305,-1.0902,-1.0902,-1.1534,-1.2703,-1.2906,-1.3314,-1.3757,-1.3659,-1.3537,-1.3207,-1.2989,-1.2881,-1.2772,-1.255,-1.255,-1.2881,-1.2881,-1.2881,-1.2881,-1.3207,-1.3315,-1.3423,-1.3975,-1.4191,-1.4083,-1.3753,-1.3645,-1.3537,-1.3098,-1.3098,-1.3151,-1.2723,-1.2616,-1.2457,-1.1925,-1.187,-1.2074,-1.2495,-1.2447,-1.2307,-1.2524,-1.2387,-1.2059,-1.1567,-1.0574,-1.0118,-1.0877,-0.9983,-0.9831,-1.1129,-1.1353,-1.1582,-1.2341,-1.1096,-1.0428,-1.0728,-1.0468,-1.0241,-1.0203,-1.162,-1.2649,-1.3072,-1.4151,-1.4933,-1.5412,-1.6243,-1.6714,-1.6736,-1.6984,-1.7105,-1.7117,-1.676,-1.6547,-1.6419,-1.62,-1.6312,-1.6537,-1.6537,-1.6903,-1.7633,-1.7997,-1.8277,-1.8608,-1.0432,-1.0523,-1.0605,-1.0844,-1.0854,-1.1066,-1.1215,-1.1435,-1.155,-1.1595,-1.1959,-1.2139,-1.1917,-1.2176,-1.2247,-1.194,-1.2211,-1.235,-1.2397,-1.229,-1.2159,-1.2107,-1.214,-1.2107,-1.1962,-1.2093,-1.2079,-1.1677,-1.1045,-1.0678,-1.0473,-1.0219,-1.0502,-1.1204,-1.1204,-1.1926,-1.3158,-1.3214,-1.3449,-1.367,-1.3511,-1.3207,-1.2989,-1.2659,-1.255,-1.255,-1.2436,-1.2441,-1.255,-1.255,-1.255,-1.255,-1.2881,-1.2989,-1.3098,-1.3428,-1.3537,-1.3537,-1.3423,-1.3423,-1.3315,-1.3207,-1.3098,-1.2935,-1.2617,-1.2423,-1.2121,-1.185,-1.1779,-1.193,-1.2197,-1.2164,-1.2183,-1.2435,-1.2164,-1.1798,-1.1442,-1.0762,-1.041,-1.0591,-1.0324,-1.0481,-1.1194,-1.1581,-1.1905,-1.2093,-1.1507,-1.138,-1.1939,-1.126,-1.0806,-1.0694,-1.2521,-1.3706,-1.4035,-1.4646,-1.5217,-1.5754,-1.641,-1.6863,-1.7002,-1.7062,-1.7086,-1.7049,-1.6932,-1.6615,-1.62,-1.6312,-1.6419,-1.6537,-1.6779,-1.7381,-1.8276,-1.8508,-1.9028,-1.9562,-1.0821,-1.0923,-1.09,-1.0801,-1.09,-1.1002,-1.1002,-1.1271,-1.1471,-1.1657,-1.2035,-1.2247,-1.2115,-1.2304,-1.2394,-1.2285,-1.2375,-1.2441,-1.2441,-1.2441,-1.2394,-1.228,-1.238,-1.2389,-1.228,-1.2167,-1.195,-1.1414,-1.1224,-1.0958,-1.0613,-1.0428,-1.0588,-1.1082,-1.1082,-1.1571,-1.255,-1.2659,-1.2989,-1.3315,-1.3207,-1.2989,-1.2881,-1.255,-1.2441,-1.2441,-1.2441,-1.2441,-1.2441,-1.2441,-1.255,-1.2659,-1.2881,-1.2881,-1.2881,-1.3098,-1.3207,-1.3315,-1.3098,-1.3098,-1.3098,-1.2876,-1.2881,-1.2852,-1.2519,-1.2495,-1.2354,-1.2018,-1.1925,-1.1925,-1.2024,-1.2093,-1.2205,-1.2408,-1.188,-1.1376,-1.1173,-1.0533,-1.0123,-1.0496,-1.0587,-1.0974,-1.1648,-1.2256,-1.2384,-1.2084,-1.1979,-1.1932,-1.2146,-1.1835,-1.1625,-1.1716,-1.2883,-1.3609,-1.404,-1.5043,-1.5678,-1.604,-1.6756,-1.7068,-1.7092,-1.7104,-1.7008,-1.702,-1.6785,-1.6549,-1.6087,-1.6425,-1.6537,-1.6537,-1.6903,-1.7463,-1.8308,-1.8768,-1.9233,-1.9945,-1.1161,-1.1194,-1.1096,-1.09,-1.09,-1.0913,-1.0946,-1.1125,-1.1332,-1.1841,-1.2054,-1.2247,-1.2422,-1.2441,-1.2441,-1.2441,-1.2441,-1.2441,-1.2441,-1.2441,-1.2441,-1.2441,-1.2441,-1.2441,-1.2441,-1.2114,-1.1787,-1.1236,-1.1302,-1.1086,-1.0798,-1.0542,-1.0554,-1.0692,-1.0692,-1.1021,-1.1568,-1.1896,-1.2332,-1.2881,-1.2881,-1.2881,-1.2772,-1.255,-1.2441,-1.2441,-1.2441,-1.2441,-1.2441,-1.2441,-1.255,-1.2772,-1.2772,-1.2772,-1.2772,-1.2772,-1.2989,-1.3098,-1.2881,-1.2772,-1.2772,-1.2441,-1.255,-1.2659,-1.2441,-1.255,-1.255,-1.2114,-1.1981,-1.2024,-1.1973,-1.1976,-1.2135,-1.2413,-1.1645,-1.1003,-1.0861,-1.019,-0.9953,-1.0583,-1.0942,-1.1425,-1.2329,-1.2735,-1.2766,-1.2274,-1.2176,-1.2086,-1.1912,-1.2211,-1.2539,-1.2859,-1.3072,-1.347,-1.3971,-1.5421,-1.6234,-1.6239,-1.7032,-1.7292,-1.7044,-1.6996,-1.6868,-1.6908,-1.6661,-1.6312,-1.6087,-1.6425,-1.6537,-1.6661,-1.702,-1.7639,-1.8263,-1.8829,-1.9529,-2.0224,-1.1189,-1.1194,-1.1194,-1.1194,-1.11,-1.1157,-1.1339,-1.1541,-1.1742,-1.2063,-1.2266,-1.2403,-1.2436,-1.2659,-1.2772,-1.2772,-1.2772,-1.2659,-1.2441,-1.2441,-1.2441,-1.2441,-1.2441,-1.2441,-1.2441,-1.2114,-1.2005,-1.1896,-1.1319,-1.1101,-1.1017,-1.0773,-1.0668,-1.0692,-1.0692,-1.1021,-1.1568,-1.1896,-1.2223,-1.255,-1.2772,-1.2767,-1.2441,-1.2441,-1.2441,-1.2441,-1.2441,-1.2441,-1.2441,-1.2441,-1.2436,-1.2441,-1.2441,-1.2441,-1.2441,-1.2441,-1.255,-1.255,-1.2441,-1.2441,-1.2441,-1.2441,-1.2219,-1.2223,-1.2332,-1.2114,-1.1787,-1.2005,-1.1873,-1.1751,-1.2001,-1.1873,-1.186,-1.2327,-1.1531,-1.0799,-1.0927,-1.0573,-1.0536,-1.1065,-1.1439,-1.2052,-1.2884,-1.2422,-1.2096,-1.248,-1.1962,-1.1829,-1.2332,-1.2755,-1.3312,-1.3873,-1.3868,-1.4345,-1.5076,-1.581,-1.6393,-1.6588,-1.6785,-1.6924,-1.6956,-1.6768,-1.646,-1.6205,-1.6425,-1.6312,-1.6087,-1.6667,-1.6903,-1.702,-1.7614,-1.8332,-1.9239,-1.9838,-2.0669,-2.1372,-1.1194,-1.1096,-1.0998,-1.0998,-1.0998,-1.1072,-1.1285,-1.1587,-1.1893,-1.211,-1.2313,-1.2441,-1.2441,-1.2659,-1.2881,-1.2659,-1.2772,-1.2772,-1.2441,-1.2441,-1.2441,-1.2441,-1.2441,-1.2332,-1.2219,-1.211,-1.1787,-1.1568,-1.1455,-1.1236,-1.1126,-1.1017,-1.0911,-1.0911,-1.0802,-1.0802,-1.1131,-1.1568,-1.1896,-1.2005,-1.2441,-1.255,-1.2441,-1.2441,-1.2441,-1.2441,-1.2441,-1.2441,-1.2441,-1.2441,-1.2441,-1.2441,-1.2441,-1.2441,-1.2441,-1.2441,-1.2441,-1.2441,-1.2441,-1.2441,-1.2332,-1.2219,-1.2114,-1.2005,-1.2005,-1.1787,-1.1568,-1.1568,-1.1568,-1.1568,-1.1568,-1.1568,-1.1678,-1.2114,-1.129,-1.0632,-1.0817,-1.0712,-1.0449,-1.0427,-1.1545,-1.22,-1.2183,-1.2404,-1.251,-1.2495,-1.2397,-1.2488,-1.2812,-1.2923,-1.3423,-1.4453,-1.4676,-1.4948,-1.5395,-1.5951,-1.6239,-1.6139,-1.6499,-1.6574,-1.646,-1.636,-1.6205,-1.6081,-1.6425,-1.6312,-1.6205,-1.6903,-1.7049,-1.6803,-1.7499,-1.8153,-1.8964,-1.955,-2.047,-2.1538,-1.1194,-1.0998,-1.0904,-1.0904,-1.0941,-1.1047,-1.1249,-1.1658,-1.1968,-1.2181,-1.2342,-1.2441,-1.2441,-1.2659,-1.2772,-1.255,-1.2767,-1.2772,-1.255,-1.2441,-1.2441,-1.2441,-1.2441,-1.2219,-1.2005,-1.2005,-1.1678,-1.1126,-1.135,-1.135,-1.1126,-1.1021,-1.1017,-1.1126,-1.0802,-1.0692,-1.0692,-1.135,-1.1568,-1.1678,-1.2219,-1.2441,-1.2441,-1.2441,-1.2441,-1.2441,-1.2441,-1.2441,-1.2441,-1.2441,-1.2441,-1.2441,-1.2441,-1.2441,-1.2441,-1.2441,-1.2441,-1.2441,-1.2441,-1.2327,-1.2223,-1.2005,-1.2005,-1.1896,-1.1678,-1.1568,-1.1459,-1.1126,-1.124,-1.135,-1.1126,-1.124,-1.1459,-1.1896,-1.1011,-1.0476,-1.0826,-1.0632,-1.0419,-1.0209,-1.1431,-1.2264,-1.1763,-1.2562,-1.2881,-1.2436,-1.2707,-1.2913,-1.2957,-1.3072,-1.3645,-1.4733,-1.5034,-1.5199,-1.503,-1.553,-1.5755,-1.5597,-1.6069,-1.6218,-1.6056,-1.6088,-1.6087,-1.6081,-1.6425,-1.6425,-1.6318,-1.7132,-1.7241,-1.6819,-1.7443,-1.7995,-1.8684,-1.9251,-2.0196,-2.1222,-1.1194,-1.1194,-1.1194,-1.1194,-1.1364,-1.1562,-1.1765,-1.1978,-1.2186,-1.2394,-1.2427,-1.2441,-1.2441,-1.2659,-1.2881,-1.2881,-1.2881,-1.2881,-1.2881,-1.255,-1.2441,-1.2441,-1.2441,-1.2219,-1.2005,-1.2005,-1.1678,-1.1126,-1.1131,-1.1131,-1.1126,-1.0802,-1.0911,-1.1126,-1.0802,-1.0692,-1.0692,-1.135,-1.1568,-1.1678,-1.2219,-1.2441,-1.2441,-1.2441,-1.2441,-1.2441,-1.2441,-1.2441,-1.2441,-1.2441,-1.2441,-1.2441,-1.2441,-1.2441,-1.2441,-1.2441,-1.2441,-1.2441,-1.2441,-1.2223,-1.2001,-1.2005,-1.1787,-1.1568,-1.1568,-1.135,-1.1126,-1.1126,-1.0911,-1.0802,-1.1017,-1.0911,-1.0911,-1.1568,-1.0805,-1.041,-1.1115,-1.072,-1.0621,-1.1498,-1.169,-1.2107,-1.3053,-1.254,-1.2223,-1.2327,-1.2611,-1.2613,-1.252,-1.3575,-1.4377,-1.4619,-1.4955,-1.4877,-1.423,-1.443,-1.4762,-1.5104,-1.5361,-1.5602,-1.571,-1.597,-1.6087,-1.6081,-1.6425,-1.6661,-1.6903,-1.7367,-1.7473,-1.7424,-1.7874,-1.835,-1.8925,-1.9583,-2.0167,-2.0801,-1.1194,-1.1203,-1.1197,-1.1397,-1.1364,-1.1569,-1.1878,-1.2192,-1.2428,-1.2635,-1.2876,-1.2876,-1.2767,-1.2989,-1.2989,-1.2659,-1.255,-1.255,-1.2332,-1.2114,-1.2005,-1.2436,-1.2441,-1.2219,-1.2005,-1.2005,-1.1678,-1.1126,-1.135,-1.135,-1.1126,-1.1021,-1.0911,-1.0802,-1.0802,-1.0582,-1.0472,-1.124,-1.1568,-1.1678,-1.2219,-1.255,-1.2659,-1.2659,-1.2767,-1.2989,-1.2989,-1.2876,-1.2659,-1.2659,-1.255,-1.2441,-1.2441,-1.2441,-1.2441,-1.2441,-1.2441,-1.2332,-1.2223,-1.2114,-1.2005,-1.1787,-1.1568,-1.1236,-1.1131,-1.0911,-1.0802,-1.0802,-1.0802,-1.0692,-1.0802,-1.0802,-1.0802,-1.124,-1.0919,-1.078,-1.1278,-1.1059,-1.1019,-1.1163,-1.1393,-1.1706,-1.1887,-1.2001,-1.2165,-1.2621,-1.271,-1.3091,-1.3809,-1.4224,-1.437,-1.4202,-1.4212,-1.4269,-1.4301,-1.458,-1.4803,-1.497,-1.5181,-1.5434,-1.5585,-1.5795,-1.5844,-1.6081,-1.6425,-1.6661,-1.7026,-1.7367,-1.7388,-1.7329,-1.7629,-1.7972,-1.8394,-1.8871,-1.9486,-2.0167,-1.1194,-1.1169,-1.1116,-1.1318,-1.1531,-1.1759,-1.2014,-1.2409,-1.2719,-1.2861,-1.3098,-1.3098,-1.2881,-1.2989,-1.2767,-1.2332,-1.2219,-1.2114,-1.1896,-1.1787,-1.1896,-1.2223,-1.2332,-1.2219,-1.2005,-1.2005,-1.1678,-1.1126,-1.1345,-1.1345,-1.1126,-1.0907,-1.0798,-1.0802,-1.0692,-1.0476,-1.0476,-1.135,-1.1678,-1.1787,-1.2441,-1.2767,-1.2989,-1.2989,-1.3098,-1.3315,-1.3207,-1.3098,-1.2881,-1.2767,-1.255,-1.2441,-1.2441,-1.2441,-1.2441,-1.2441,-1.2327,-1.2219,-1.2005,-1.1896,-1.1673,-1.1459,-1.124,-1.0907,-1.0692,-1.0692,-1.0692,-1.0692,-1.0692,-1.0692,-1.0802,-1.0802,-1.0802,-1.1017,-1.0916,-1.0837,-1.1056,-1.116,-1.1056,-1.0837,-1.1054,-1.135,-1.124,-1.1731,-1.2266,-1.2734,-1.315,-1.3773,-1.4766,-1.4881,-1.4693,-1.4078,-1.4055,-1.3991,-1.4083,-1.4312,-1.4468,-1.4547,-1.4848,-1.521,-1.5494,-1.5564,-1.5839,-1.6194,-1.6307,-1.6661,-1.7138,-1.725,-1.7259,-1.7292,-1.7391,-1.7582,-1.7877,-1.8252,-1.8721,-1.9306,-1.1194,-1.1169,-1.1116,-1.1116,-1.1657,-1.2143,-1.2139,-1.2529,-1.2881,-1.2881,-1.2881,-1.2881,-1.2881,-1.255,-1.2332,-1.2005,-1.2005,-1.1896,-1.1568,-1.1896,-1.2005,-1.2005,-1.2223,-1.2219,-1.2005,-1.2005,-1.1678,-1.1126,-1.1126,-1.1126,-1.1126,-1.0582,-1.0582,-1.1017,-1.0582,-1.0472,-1.0802,-1.1678,-1.2005,-1.2114,-1.2989,-1.3315,-1.3315,-1.3315,-1.3315,-1.3315,-1.2989,-1.2881,-1.2881,-1.255,-1.2441,-1.2441,-1.2441,-1.2441,-1.2441,-1.2441,-1.2223,-1.2005,-1.2005,-1.1568,-1.1126,-1.1126,-1.0911,-1.0692,-1.0692,-1.0692,-1.0692,-1.0692,-1.0692,-1.0802,-1.1017,-1.0907,-1.0802,-1.1017,-1.0911,-1.0692,-1.0692,-1.0692,-1.0692,-1.0692,-1.0692,-1.0911,-1.1568,-1.197,-1.2422,-1.2748,-1.3841,-1.4535,-1.4767,-1.5336,-1.5235,-1.4311,-1.4533,-1.4193,-1.3391,-1.3524,-1.3532,-1.376,-1.421,-1.4786,-1.5262,-1.5494,-1.5952,-1.6537,-1.62,-1.6667,-1.7485,-1.7138,-1.7138,-1.743,-1.7227,-1.7241,-1.755,-1.7919,-1.8023,-1.8164,-1.1194,-1.1281,-1.1378,-1.1341,-1.1873,-1.2304,-1.2162,-1.2529,-1.2881,-1.2881,-1.3098,-1.3098,-1.2881,-1.2772,-1.2659,-1.2327,-1.1896,-1.1568,-1.124,-1.1568,-1.1678,-1.1678,-1.2114,-1.2219,-1.2005,-1.2219,-1.1891,-1.1126,-1.135,-1.1131,-1.0582,-1.0366,-1.0147,-0.9926,-1.0147,-1.0257,-1.0143,-1.1459,-1.1896,-1.1787,-1.2659,-1.3098,-1.3315,-1.3315,-1.3537,-1.3867,-1.3537,-1.3315,-1.3098,-1.2881,-1.255,-1.2441,-1.2441,-1.2441,-1.2441,-1.2441,-1.2223,-1.2005,-1.1787,-1.1568,-1.135,-1.1126,-1.0911,-1.0802,-1.0911,-1.0802,-1.0802,-1.0911,-1.0802,-1.0802,-1.1017,-1.1021,-1.1017,-1.1126,-1.1021,-1.0911,-1.0692,-1.0911,-1.0911,-1.0692,-1.0911,-1.1071,-1.1428,-1.2046,-1.2473,-1.2956,-1.4188,-1.5007,-1.5023,-1.5003,-1.4775,-1.4548,-1.3894,-1.3589,-1.3391,-1.3664,-1.3707,-1.3879,-1.441,-1.4914,-1.5135,-1.5445,-1.5839,-1.6194,-1.6081,-1.6312,-1.6773,-1.6903,-1.6897,-1.6838,-1.7001,-1.7129,-1.7185,-1.7371,-1.7648,-1.8158,-1.1194,-1.1267,-1.1253,-1.1235,-1.1685,-1.2075,-1.1935,-1.2461,-1.2788,-1.2871,-1.2989,-1.3098,-1.2881,-1.2767,-1.255,-1.2219,-1.1896,-1.1568,-1.1455,-1.1678,-1.1787,-1.1896,-1.2114,-1.2114,-1.1896,-1.1896,-1.1673,-1.1126,-1.124,-1.0911,-1.0257,-1.0257,-1.0036,-0.9599,-1.0036,-1.0147,-1.0036,-1.1459,-1.1896,-1.1787,-1.2659,-1.3257,-1.3665,-1.3665,-1.3889,-1.4326,-1.3998,-1.3718,-1.3423,-1.2989,-1.2659,-1.2441,-1.2441,-1.2441,-1.2441,-1.2441,-1.2114,-1.1787,-1.1678,-1.1459,-1.135,-1.1126,-1.1131,-1.1131,-1.124,-1.1017,-1.0911,-1.1017,-1.1017,-1.0911,-1.1236,-1.135,-1.135,-1.135,-1.1236,-1.1017,-1.0692,-1.0802,-1.0907,-1.0692,-1.0867,-1.1065,-1.1181,-1.2108,-1.3008,-1.3853,-1.4781,-1.5172,-1.4852,-1.4808,-1.4585,-1.4035,-1.3722,-1.3475,-1.3391,-1.3697,-1.3805,-1.4073,-1.4544,-1.5019,-1.5353,-1.5477,-1.579,-1.5937,-1.5919,-1.602,-1.64,-1.6738,-1.6661,-1.6497,-1.6773,-1.6885,-1.6739,-1.6965,-1.7274,-1.7869,-1.1194,-1.1169,-1.1006,-1.0791,-1.1364,-1.1775,-1.1741,-1.2226,-1.2631,-1.2803,-1.2856,-1.2871,-1.2856,-1.254,-1.2332,-1.2001,-1.1787,-1.1678,-1.2001,-1.2005,-1.2114,-1.2332,-1.2114,-1.1787,-1.1568,-1.124,-1.1131,-1.1017,-1.0798,-1.0582,-1.0257,-1.0257,-1.0147,-0.9816,-1.0147,-1.0257,-1.0366,-1.1568,-1.2005,-1.2005,-1.2985,-1.3556,-1.3977,-1.4087,-1.4214,-1.4452,-1.4209,-1.3957,-1.3563,-1.2994,-1.2673,-1.2465,-1.2469,-1.2469,-1.2469,-1.236,-1.2019,-1.1568,-1.1568,-1.135,-1.1126,-1.1131,-1.1459,-1.1678,-1.1678,-1.1345,-1.1126,-1.1126,-1.1126,-1.1236,-1.1568,-1.1568,-1.1568,-1.1568,-1.135,-1.1017,-1.0692,-1.0692,-1.0696,-1.0716,-1.0867,-1.1093,-1.1126,-1.2223,-1.3626,-1.5241,-1.5247,-1.5041,-1.4462,-1.4906,-1.4598,-1.3236,-1.3849,-1.3965,-1.3536,-1.3718,-1.395,-1.4336,-1.458,-1.504,-1.5596,-1.5596,-1.5585,-1.5599,-1.5612,-1.582,-1.6079,-1.644,-1.6537,-1.6514,-1.6605,-1.6457,-1.6316,-1.6606,-1.6984,-1.7483,-1.1194,-1.1169,-1.1061,-1.1095,-1.147,-1.1779,-1.1569,-1.1931,-1.2202,-1.2073,-1.2345,-1.2488,-1.2331,-1.2346,-1.2332,-1.2001,-1.1787,-1.1678,-1.2001,-1.1787,-1.1678,-1.1787,-1.1455,-1.1131,-1.0911,-1.124,-1.124,-1.0802,-1.0911,-1.0802,-1.0257,-1.0257,-1.0147,-0.9816,-1.0147,-1.0257,-1.0366,-1.1787,-1.2114,-1.1787,-1.2876,-1.3332,-1.3416,-1.3644,-1.409,-1.4343,-1.4155,-1.3945,-1.3542,-1.2825,-1.2764,-1.3015,-1.2802,-1.2696,-1.2696,-1.2358,-1.2022,-1.1568,-1.1568,-1.135,-1.1236,-1.1678,-1.1896,-1.1896,-1.1896,-1.1678,-1.1459,-1.1459,-1.1459,-1.1459,-1.1568,-1.1568,-1.1568,-1.1568,-1.135,-1.1017,-1.0692,-1.0907,-1.0965,-1.0891,-1.1168,-1.1532,-1.2177,-1.332,-1.4325,-1.5241,-1.5063,-1.4828,-1.4703,-1.4681,-1.4672,-1.4611,-1.4599,-1.4505,-1.4326,-1.4381,-1.4386,-1.4222,-1.446,-1.4842,-1.5235,-1.5477,-1.5472,-1.5378,-1.5499,-1.5585,-1.55,-1.62,-1.6425,-1.629,-1.6733,-1.6923,-1.6981,-1.7264,-1.7735,-1.8387,-1.0998,-1.107,-1.1048,-1.1039,-1.1363,-1.1536,-1.1332,-1.1601,-1.1836,-1.1817,-1.2006,-1.2143,-1.2139,-1.2233,-1.2229,-1.2214,-1.2005,-1.1896,-1.2005,-1.1787,-1.1568,-1.1568,-1.1236,-1.1021,-1.0911,-1.0911,-1.0911,-1.0692,-1.0798,-1.0692,-1.0257,-1.0257,-1.0036,-0.9596,-1.0036,-1.0257,-1.0147,-1.1455,-1.1896,-1.1678,-1.255,-1.3067,-1.335,-1.3575,-1.3881,-1.42,-1.4076,-1.378,-1.3247,-1.3133,-1.2949,-1.2836,-1.2947,-1.2691,-1.2409,-1.2288,-1.1833,-1.135,-1.135,-1.135,-1.1459,-1.1678,-1.1896,-1.2005,-1.2114,-1.2001,-1.1787,-1.1678,-1.1678,-1.1678,-1.1459,-1.1568,-1.1678,-1.1459,-1.124,-1.1017,-1.0692,-1.088,-1.1081,-1.0956,-1.1232,-1.1906,-1.3026,-1.3668,-1.4325,-1.5015,-1.4876,-1.4672,-1.4659,-1.4766,-1.4959,-1.4943,-1.4611,-1.4554,-1.4549,-1.4209,-1.4269,-1.4493,-1.4718,-1.5002,-1.5353,-1.5359,-1.5349,-1.5262,-1.5258,-1.5344,-1.5268,-1.6082,-1.6307,-1.6188,-1.6984,-1.7261,-1.7222,-1.7734,-1.88,-1.9884,-1.0703,-1.0943,-1.1007,-1.0932,-1.1146,-1.1363,-1.1162,-1.1295,-1.1466,-1.1694,-1.1672,-1.177,-1.1915,-1.1884,-1.201,-1.2313,-1.2005,-1.1896,-1.1896,-1.1678,-1.1459,-1.1459,-1.1236,-1.1021,-1.1021,-1.0582,-1.0476,-1.0692,-1.0692,-1.0582,-1.0366,-1.0366,-1.0036,-0.9599,-1.0036,-1.0147,-0.9926,-1.1131,-1.1568,-1.1568,-1.2223,-1.2913,-1.3407,-1.3482,-1.3769,-1.4093,-1.4127,-1.3608,-1.3153,-1.3479,-1.3148,-1.2526,-1.2957,-1.2548,-1.1986,-1.219,-1.1637,-1.1126,-1.1126,-1.124,-1.1459,-1.1678,-1.1787,-1.1891,-1.2219,-1.2114,-1.1905,-1.1612,-1.1809,-1.1796,-1.1283,-1.159,-1.1787,-1.1236,-1.1017,-1.0911,-1.0692,-1.085,-1.098,-1.1009,-1.1442,-1.2183,-1.3384,-1.3711,-1.4079,-1.4735,-1.485,-1.4787,-1.4659,-1.5149,-1.5395,-1.5109,-1.4916,-1.4691,-1.454,-1.4091,-1.4073,-1.4729,-1.4907,-1.5274,-1.5477,-1.5116,-1.5114,-1.5146,-1.5135,-1.5108,-1.5268,-1.6038,-1.6362,-1.6368,-1.7247,-1.7501,-1.7597,-1.8529,-1.9894,-2.129,-1.0703,-1.0824,-1.0936,-1.11,-1.1217,-1.1241,-1.1241,-1.1197,-1.1157,-1.1302,-1.1392,-1.1353,-1.1212,-1.1089,-1.1366,-1.1987,-1.1564,-1.135,-1.1678,-1.135,-1.1131,-1.1131,-1.0911,-1.0802,-1.0802,-1.0472,-1.0476,-1.0692,-1.0476,-1.0472,-1.0692,-1.0692,-1.0472,-1.0147,-1.0257,-1.0147,-0.9926,-1.1131,-1.1459,-1.1236,-1.2332,-1.2918,-1.316,-1.3194,-1.3819,-1.4513,-1.4458,-1.4265,-1.3819,-1.3372,-1.3039,-1.2739,-1.2725,-1.2316,-1.1863,-1.1824,-1.1513,-1.1126,-1.1126,-1.0911,-1.1021,-1.1787,-1.1564,-1.1345,-1.1891,-1.1896,-1.1617,-1.1454,-1.1687,-1.1841,-1.1458,-1.1576,-1.1568,-1.1126,-1.0911,-1.0692,-1.0692,-1.085,-1.1025,-1.1171,-1.1976,-1.2631,-1.2967,-1.3508,-1.4019,-1.4505,-1.4988,-1.5358,-1.5564,-1.6339,-1.6488,-1.6039,-1.623,-1.5886,-1.4885,-1.4999,-1.4794,-1.4147,-1.4624,-1.4961,-1.5116,-1.4769,-1.4765,-1.4914,-1.5016,-1.5108,-1.5252,-1.5859,-1.6449,-1.6887,-1.7554,-1.8253,-1.8999,-2.0113,-2.0988,-2.1618,-1.0511,-1.0699,-1.0744,-1.0923,-1.11,-1.1038,-1.082,-1.0686,-1.0708,-1.0717,-1.0757,-1.0878,-1.0909,-1.1163,-1.1429,-1.1832,-1.1507,-1.1459,-1.1568,-1.1131,-1.0911,-1.0911,-1.0802,-1.0582,-1.0476,-1.0147,-1.0036,-1.0253,-1.0257,-1.0476,-1.0692,-1.0582,-1.0363,-1.0036,-0.9816,-0.971,-0.9596,-1.0472,-1.0798,-1.0911,-1.1787,-1.2404,-1.2673,-1.2574,-1.3098,-1.3786,-1.4167,-1.3943,-1.3639,-1.3639,-1.3,-1.2187,-1.2729,-1.205,-1.1312,-1.16,-1.131,-1.0911,-1.0911,-1.1021,-1.135,-1.1678,-1.1568,-1.1459,-1.1678,-1.1459,-1.1186,-1.1376,-1.1685,-1.1757,-1.1289,-1.135,-1.1364,-1.0928,-1.0802,-1.0692,-1.0692,-1.0936,-1.1175,-1.1358,-1.2315,-1.3007,-1.3161,-1.3829,-1.4422,-1.4879,-1.527,-1.5697,-1.6239,-1.6786,-1.7038,-1.696,-1.6452,-1.5916,-1.5244,-1.4557,-1.4113,-1.402,-1.3795,-1.4076,-1.4729,-1.4624,-1.4572,-1.4828,-1.4945,-1.503,-1.5276,-1.5835,-1.6316,-1.6826,-1.7649,-1.8737,-1.9964,-2.0964,-2.1827,-2.2349]},{"header":{"parameterUnit":"m.s-1","parameterCategory":1,"la1":30.6,"la2":28.766,"lo1":-90.7593,"lo2":-88.6598,"dy":0.0162,"dx":0.0183,"nx":116,"ny":114,"refTime":"2023-10-20T06:00:00:Z","depth":0,"parameterNumber":3,"parameterNumberName":"V-component_of_WINDS"},"data":[0.0,0.0,0.0,0.0,0.0,0.0,0.0,0.0,0.0,0.0,0.0,0.0,0.0,0.0,0.0,0.0,0.0,0.0,0.0,0.0,0.0,0.0,0.0,0.0,0.0,0.0,0.0,0.0,0.0,0.0,0.0,0.0,0.0,0.0,0.0,0.0,0.0,0.0,0.0,0.0,0.0,0.0,0.0,0.0,0.0,0.0,0.0,0.0,0.0,0.0,0.0,0.0,0.0,0.0,0.0,0.0,0.0,0.0,0.0,0.0,0.0,0.0,0.0,0.0,0.0,0.0,0.0,0.0,0.0,0.0,0.0,0.0,0.0,0.0,0.0,0.0,0.0,0.0,0.0,0.0,0.0,0.0,0.0,0.0,0.0,0.0,0.0,0.0,0.0,0.0,0.0,0.0,0.0,0.0,0.0,0.0,0.0,0.0,0.0,0.0,0.0,0.0,0.0,0.0,0.0,0.0,0.0,0.0,0.0,0.0,0.0,0.0,0.0,0.0,0.0,0.0,0.0,0.0,0.0,0.0,0.0,0.0,0.0,0.0,0.0,0.0,0.0,0.0,0.0,0.0,0.0,0.0,0.0,0.0,0.0,0.0,0.0,0.0,0.0,0.0,0.0,0.0,0.0,0.0,0.0,0.0,0.0,0.0,0.0,0.0,0.0,0.0,0.0,0.0,0.0,0.0,0.0,0.0,0.0,0.0,0.0,0.0,0.0,0.0,0.0,0.0,0.0,0.0,0.0,0.0,0.0,0.0,0.0,0.0,0.0,0.0,0.0,0.0,0.0,0.0,0.0,0.0,0.0,0.0,0.0,0.0,0.0,0.0,0.0,0.0,0.0,0.0,0.0,0.0,0.0,0.0,0.0,0.0,0.0,0.0,0.0,0.0,0.0,0.0,0.0,0.0,0.0,0.0,0.0,0.0,0.0,0.0,0.0,0.0,0.0,0.0,0.0,0.0,0.0,0.0,0.0,0.0,0.0,0.0,0.0,0.0,0.0,0.0,0.0,0.0,0.0,0.0,0.0,0.0,0.0,0.0,0.0,0.0,0.0,0.0,0.0,0.0,0.0,0.0,0.0,0.0,0.0,0.0,0.0,0.0,0.0,0.0,0.0,0.0,0.0,0.0,0.0,0.0,0.0,0.0,0.0,0.0,0.0,0.0,0.0,0.0,0.0,0.0,0.0,0.0,0.0,0.0,0.0,0.0,0.0,0.0,0.0,0.0,0.0,0.0,0.0,0.0,0.0,0.0,0.0,0.0,0.0,0.0,0.0,0.0,0.0,0.0,0.0,0.0,0.0,0.0,0.0,0.0,0.0,0.0,0.0,0.0,0.0,0.0,0.0,0.0,0.0,0.0,0.0,0.0,0.0,0.0,0.0,0.0,0.0,0.0,0.0,0.0,0.0,0.0,0.0,0.0,0.0,0.0,0.0,0.0,0.0,0.0,0.0,0.0,0.0,0.0,0.0,0.0,0.0,0.0,0.0,0.0,0.0,0.0,0.0,0.0,0.0,0.0,0.0,0.0,0.0,0.0,0.0,0.0,0.0,0.0,0.0,0.0,0.0,0.0,0.0,0.0,0.0,0.0,0.0,0.0,0.0,0.0,0.0,0.0,0.0,0.0,0.0,0.0,0.0,0.0,0.0,0.0,0.0,0.0,0.0,0.0,0.0,0.0,0.0,0.0,0.0,0.0,0.0,0.0,0.0,0.0,0.0,0.0,0.0,0.0,0.0,0.0,0.0,0.0,0.0,0.0,0.0,0.0,0.0,0.0,0.0,0.0,0.0,0.0,0.0,0.0,0.0,0.0,0.0,0.0,0.0,0.0,0.0,0.0,0.0,0.0,0.0,0.0,0.0,0.0,0.0,0.0,0.0,0.0,0.0,0.0,0.0,0.0,0.0,0.0,0.0,0.0,0.0,0.0,0.0,0.0,0.0,0.0,0.0,0.0,0.0,0.0,0.0,0.0,0.0,0.0,0.0,0.0,0.0,0.0,0.0,0.0,0.0,0.0,0.0,0.0,0.0,0.0,0.0,0.0,0.0,0.0,0.0,0.0,0.0,0.0,0.0,0.0,0.0,0.0,0.0,0.0,0.0,0.0,0.0,0.0,0.0,0.0,0.0,0.0,0.0,0.0,0.0,0.0,0.0,0.0,0.0,0.0,0.0,0.0,0.0,0.0,0.0,0.0,0.0,0.0,0.0,0.0,0.0,0.0,0.0,0.0,0.0,0.0,0.0,0.0,0.0,0.0,0.0,0.0,0.0,0.0,0.0,0.0,0.0,0.0,0.0,0.0,0.0,0.0,0.0,0.0,0.0,0.0,0.0,0.0,0.0,0.0,0.0,0.0,0.0,0.0,0.0,0.0,0.0,0.0,0.0,0.0,0.0,0.0,0.0,0.0,0.0,0.0,0.0,0.0,0.0,0.0,0.0,0.0,0.0,0.0,0.0,0.0,0.0,0.0,0.0,0.0,0.0,0.0,0.0,0.0,0.0,0.0,0.0,0.0,0.0,0.0,0.0,0.0,0.0,0.0,0.0,0.0,0.0,0.0,0.0,0.0,0.0,0.0,0.0,0.0,0.0,0.0,0.0,0.0,0.0,0.0,0.0,0.0,0.0,0.0,0.0,0.0,0.0,0.0,0.0,0.0,0.0,0.0,0.0,0.0,0.0,0.0,0.0,0.0,0.0,0.0,0.0,0.0,0.0,0.0,0.0,0.0,0.0,0.0,0.0,0.0,0.0,0.0,0.0,0.0,0.0,0.0,0.0,0.0,0.0,0.0,0.0,0.0,0.0,0.0,0.0,0.0,0.0,0.0,0.0,0.0,0.0,0.0,0.0,0.0,0.0,0.0,0.0,0.0,0.0,0.0,0.0,0.0,0.0,0.0,0.0,0.0,0.0,0.0,0.0,0.0,0.0,0.0,0.0,0.0,0.0,0.0,0.0,0.0,0.0,0.0,0.0,0.0,0.0,0.0,0.0,0.0,0.0,0.0,0.0,0.0,0.0,0.0,0.0,0.0,0.0,0.0,0.0,0.0,0.0,0.0,0.0,0.0,0.0,0.0,0.0,0.0,0.0,0.0,0.0,0.0,0.0,0.0,0.0,0.0,0.0,0.0,0.0,0.0,0.0,0.0,0.0,0.0,0.0,0.0,0.0,0.0,0.0,0.0,0.0,0.0,0.0,0.0,0.0,0.0,0.0,0.0,0.0,0.0,0.0,0.0,0.0,0.0,0.0,0.0,0.0,0.0,0.0,0.0,0.0,0.0,0.0,0.0,0.0,0.0,0.0,0.0,0.0,0.0,0.0,0.0,0.0,0.0,0.0,0.0,0.0,0.0,0.0,0.0,0.0,0.0,0.0,0.0,0.0,0.0,0.0,0.0,0.0,0.0,0.0,0.0,0.0,0.0,0.0,0.0,0.0,0.0,0.0,0.0,0.0,0.0,0.0,0.0,0.0,0.0,0.0,0.0,0.0,0.0,0.0,0.0,0.0,0.0,0.0,0.0,0.0,0.0,0.0,0.0,0.0,0.0,0.0,0.0,0.0,0.0,0.0,0.0,0.0,0.0,0.0,0.0,0.0,0.0,0.0,0.0,0.0,0.0,0.0,0.0,0.0,0.0,0.0,0.0,0.0,0.0,0.0,0.0,0.0,0.0,0.0,0.0,0.0,0.0,0.0,0.0,0.0,0.0,0.0,0.0,0.0,0.0,0.0,0.0,0.0,0.0,0.0,0.0,0.0,0.0,0.0,0.0,0.0,0.0,0.0,0.0,0.0,0.0,0.0,0.0,0.0,0.0,0.0,0.0,0.0,0.0,0.0,0.0,0.0,0.0,0.0,0.0,0.0,0.0,0.0,0.0,0.0,0.0,0.0,0.0,0.0,0.0,0.0,0.0,0.0,0.0,0.0,0.0,0.0,0.0,0.0,0.0,0.0,0.0,0.0,0.0,0.0,0.0,0.0,0.0,0.0,0.0,0.0,0.0,0.0,0.0,0.0,0.0,0.0,0.0,0.0,0.0,0.0,0.0,0.0,0.0,0.0,0.0,0.0,0.0,0.0,0.0,0.0,0.0,0.0,0.0,0.0,0.0,0.0,0.0,0.0,0.0,0.0,0.0,0.0,0.0,0.0,0.0,0.0,0.0,0.0,0.0,0.0,0.0,0.0,0.0,0.0,0.0,0.0,0.0,0.0,0.0,0.0,0.0,0.0,0.0,0.0,0.0,0.0,0.0,0.0,0.0,0.0,0.0,0.0,0.0,0.0,0.0,0.0,0.0,0.0,0.0,0.0,0.0,0.0,0.0,0.0,0.0,0.0,0.0,0.0,0.0,0.0,0.0,0.0,0.0,0.0,0.0,0.0,0.0,0.0,0.0,0.0,0.0,0.0,0.0,0.0,0.0,0.0,0.0,0.0,0.0,0.0,0.0,0.0,0.0,0.0,0.0,0.0,0.0,0.0,0.0,0.0,0.0,0.0,0.0,0.0,0.0,0.0,0.0,0.0,0.0,0.0,0.0,0.0,0.0,0.0,0.0,0.0,0.0,0.0,0.0,0.0,0.0,0.0,0.0,0.0,0.0,0.0,0.0,0.0,0.0,0.0,0.0,0.0,0.0,0.0,0.0,0.0,0.0,0.0,0.0,0.0,0.0,0.0,0.0,0.0,0.0,0.0,0.0,0.0,0.0,0.0,0.0,0.0,0.0,0.0,0.0,0.0,0.0,0.0,0.0,0.0,0.0,0.0,0.0,0.0,0.0,0.0,0.0,0.0,0.0,0.0,0.0,0.0,0.0,0.0,0.0,0.0,0.0,0.0,0.0,0.0,0.0,0.0,0.0,0.0,0.0,0.0,0.0,0.0,0.0,0.0,0.0,0.0,0.0,0.0,0.0,0.0,0.0,0.0,0.0,0.0,0.0,0.0,0.0,0.0,0.0,0.0,0.0,0.0,0.0,0.0,0.0,0.0,0.0,0.0,0.0,0.0,0.0,0.0,0.0,0.0,0.0,0.0,0.0,0.0,0.0,0.0,0.0,0.0,0.0,0.0,0.0,0.0,0.0,0.0,0.0,0.0,0.0,0.0,0.0,0.0,0.0,0.0,0.0,0.0,0.0,0.0,0.0,0.0,0.0,0.0,0.0,0.0,0.0,0.0,0.0,0.0,0.0,0.0,0.0,0.0,0.0,0.0,0.0,0.0,0.0,0.0,0.0,0.0,0.0,0.0,0.0,0.0,0.0,0.0,0.0,0.0,0.0,0.0,0.0,0.0,0.0,0.0,0.0,0.0,0.0,0.0,0.0,0.0,0.0,0.0,0.0,0.0,0.0,0.0,0.0,0.0,0.0,0.0,0.0,0.0,0.0,0.0,0.0,0.0,0.0,0.0,0.0,0.0,0.0,0.0,0.0,0.0,0.0,0.0,0.0,0.0,0.0,0.0,0.0,0.0,0.0,0.0,0.0,0.0,0.0,0.0,0.0,0.0,0.0,0.0,0.0,0.0,0.0,0.0,0.0,0.0,0.0,0.0,0.0,0.0,0.0,0.0,0.0,0.0,0.0,0.0,0.0,0.0,0.0,0.0,0.0,0.0,0.0,0.0,0.0,0.0,0.0,0.0,0.0,0.0,0.0,0.0,0.0,0.0,0.0,0.0,0.0,0.0,0.0,0.0,0.0,0.0,0.0,0.0,0.0,0.0,0.0,0.0,0.0,0.0,0.0,0.0,0.0,0.0,0.0,0.0,0.0,0.0,0.0,0.0,0.0,0.0,0.0,0.0,0.0,0.0,0.0,0.0,0.0,0.0,0.0,0.0,0.0,0.0,0.0,0.0,0.0,0.0,0.0,0.0,0.0,0.0,0.0,0.0,0.0,0.0,0.0,0.0,0.0,0.0,0.0,0.0,0.0,0.0,0.0,0.0,0.0,0.0,0.0,0.0,0.0,0.0,0.0,0.0,0.0,0.0,0.0,0.0,0.0,0.0,0.0,0.0,0.0,0.0,0.0,0.0,0.0,0.0,0.0,0.0,0.0,0.0,0.0,0.0,0.0,0.0,0.0,0.0,0.0,0.0,0.0,0.0,0.0,0.0,0.0,0.0,0.0,0.0,0.0,-3.3595,-3.2462,0.0,0.0,0.0,0.0,0.0,0.0,0.0,0.0,0.0,0.0,0.0,0.0,0.0,0.0,0.0,0.0,0.0,0.0,0.0,0.0,0.0,0.0,0.0,0.0,0.0,0.0,0.0,0.0,0.0,0.0,0.0,0.0,0.0,0.0,0.0,0.0,0.0,0.0,0.0,0.0,0.0,0.0,0.0,0.0,0.0,0.0,0.0,0.0,0.0,0.0,0.0,0.0,0.0,0.0,0.0,0.0,0.0,0.0,0.0,0.0,0.0,0.0,0.0,0.0,0.0,0.0,0.0,0.0,0.0,0.0,0.0,0.0,0.0,0.0,0.0,0.0,0.0,0.0,0.0,0.0,0.0,0.0,0.0,0.0,0.0,0.0,0.0,0.0,0.0,0.0,0.0,0.0,0.0,0.0,0.0,0.0,0.0,0.0,0.0,0.0,0.0,0.0,0.0,0.0,0.0,0.0,0.0,0.0,0.0,0.0,0.0,0.0,0.0,0.0,-3.8726,-3.7137,0.0,0.0,0.0,0.0,0.0,0.0,0.0,0.0,0.0,0.0,0.0,0.0,0.0,0.0,0.0,0.0,0.0,0.0,0.0,0.0,0.0,0.0,0.0,0.0,0.0,0.0,0.0,0.0,0.0,0.0,0.0,0.0,0.0,0.0,0.0,0.0,0.0,0.0,0.0,0.0,0.0,0.0,0.0,0.0,0.0,0.0,0.0,0.0,0.0,0.0,0.0,0.0,0.0,0.0,0.0,0.0,0.0,0.0,0.0,0.0,0.0,0.0,0.0,0.0,0.0,0.0,0.0,0.0,0.0,0.0,0.0,0.0,0.0,0.0,0.0,0.0,0.0,0.0,0.0,0.0,0.0,0.0,0.0,0.0,0.0,0.0,0.0,0.0,0.0,0.0,0.0,0.0,0.0,0.0,0.0,0.0,0.0,0.0,0.0,0.0,0.0,0.0,0.0,0.0,0.0,0.0,0.0,0.0,-4.3962,-4.5124,-4.7095,-4.7877,-4.8282,-4.811,-4.3966,-4.2353,-4.2519,-4.0815,0.0,0.0,0.0,0.0,0.0,0.0,0.0,0.0,0.0,0.0,0.0,0.0,0.0,0.0,0.0,0.0,0.0,0.0,0.0,0.0,0.0,0.0,0.0,0.0,0.0,0.0,0.0,0.0,0.0,0.0,0.0,0.0,0.0,0.0,0.0,0.0,0.0,0.0,-2.8171,-3.0522,-3.1429,-3.1011,-2.9366,0.0,0.0,0.0,0.0,0.0,0.0,0.0,0.0,0.0,0.0,0.0,0.0,0.0,0.0,0.0,0.0,0.0,0.0,0.0,0.0,0.0,0.0,0.0,0.0,0.0,0.0,0.0,0.0,0.0,0.0,0.0,0.0,0.0,0.0,0.0,0.0,0.0,0.0,0.0,0.0,0.0,0.0,0.0,-2.6403,-2.8187,0.0,0.0,0.0,0.0,0.0,0.0,0.0,0.0,0.0,0.0,0.0,0.0,0.0,-4.0421,-4.2184,-4.4375,-4.6091,-4.733,-4.8851,-4.9627,-4.9828,-5.0664,-5.1036,-5.0966,-5.0228,0.0,-4.6691,-4.517,0.0,0.0,0.0,0.0,0.0,0.0,0.0,0.0,0.0,0.0,0.0,0.0,0.0,0.0,0.0,0.0,0.0,0.0,0.0,0.0,0.0,0.0,0.0,0.0,0.0,0.0,0.0,0.0,0.0,0.0,0.0,0.0,0.0,0.0,0.0,0.0,-2.8294,-2.962,-3.0549,-3.2047,-3.3015,-3.3448,-3.3045,-3.2176,-3.1049,-3.0721,0.0,0.0,0.0,0.0,0.0,0.0,0.0,0.0,0.0,0.0,0.0,0.0,0.0,0.0,0.0,0.0,0.0,0.0,0.0,0.0,0.0,0.0,0.0,0.0,0.0,0.0,0.0,0.0,0.0,0.0,0.0,0.0,0.0,0.0,0.0,0.0,0.0,0.0,0.0,-2.5633,-2.8571,-3.0661,-3.1042,-3.1274,0.0,0.0,0.0,0.0,0.0,0.0,0.0,0.0,0.0,-4.0878,-4.3006,-4.514,-4.7304,-4.8327,-4.9524,-5.0829,-5.1473,-5.2001,-5.2468,-5.2787,-5.2955,-5.2955,-5.2919,-5.2026,-5.0426,-4.8822,-4.81,-4.7768,0.0,0.0,0.0,0.0,-4.0077,-3.9128,0.0,0.0,0.0,0.0,0.0,0.0,0.0,0.0,0.0,0.0,0.0,0.0,0.0,0.0,0.0,-2.1351,0.0,0.0,0.0,0.0,0.0,0.0,0.0,0.0,0.0,0.0,0.0,0.0,-2.9916,-3.1182,-3.2577,-3.3597,-3.442,-3.5115,-3.5858,-3.5349,-3.3864,-3.3169,-3.2244,0.0,0.0,0.0,0.0,0.0,0.0,0.0,0.0,0.0,0.0,0.0,0.0,0.0,0.0,0.0,0.0,0.0,0.0,0.0,0.0,0.0,0.0,0.0,0.0,0.0,0.0,0.0,0.0,0.0,0.0,0.0,0.0,0.0,0.0,0.0,0.0,0.0,0.0,-2.8015,-3.0741,-3.3211,-3.3987,-3.4581,0.0,0.0,0.0,0.0,0.0,0.0,-4.0058,-4.2034,-4.397,-4.5851,-4.7234,-4.9133,-5.1611,-5.1603,-5.2375,-5.3952,-5.3828,-5.4128,-5.4726,-5.4708,-5.4708,-5.4726,-5.4726,-5.4426,-5.3716,-5.1777,-5.0882,-5.0542,-4.8763,-4.7529,-4.6688,-4.609,-4.5263,-4.4637,0.0,0.0,0.0,0.0,0.0,0.0,0.0,0.0,0.0,0.0,0.0,0.0,0.0,0.0,-2.1388,-2.363,-2.3906,-2.4541,0.0,0.0,0.0,0.0,0.0,0.0,0.0,0.0,0.0,-2.9448,-3.1715,-3.3257,-3.4117,-3.5825,-3.663,-3.6736,-3.7652,-3.7027,-3.5262,-3.4731,-3.3467,-3.1786,0.0,0.0,0.0,0.0,0.0,0.0,0.0,0.0,0.0,0.0,0.0,0.0,0.0,0.0,0.0,0.0,0.0,0.0,0.0,0.0,0.0,0.0,0.0,0.0,0.0,0.0,0.0,0.0,0.0,0.0,0.0,0.0,0.0,0.0,0.0,0.0,0.0,0.0,0.0,-3.5883,-3.772,0.0,0.0,0.0,0.0,-3.9667,-4.0752,-4.2776,-4.6004,-4.6476,-4.7766,-5.022,-5.0434,-5.1705,-5.4183,-5.4221,-5.4959,-5.6518,-5.6609,-5.661,-5.6482,-5.6519,-5.6519,-5.6463,-5.6463,-5.6463,-5.6331,-5.3877,-5.2401,-5.1622,-5.1559,-5.0998,-5.015,-5.0112,-4.9571,-4.8992,0.0,0.0,0.0,0.0,0.0,0.0,0.0,0.0,0.0,0.0,0.0,0.0,0.0,-2.1679,-2.2908,-2.3738,-2.5136,-2.6255,-2.6856,0.0,0.0,0.0,0.0,0.0,0.0,0.0,-2.9566,-3.1828,-3.3113,-3.4774,-3.6672,-3.7789,-3.858,-3.9208,-3.9498,-3.9282,-3.8561,-3.692,-3.5569,-3.4388,-3.2611,-3.0711,0.0,0.0,0.0,0.0,0.0,0.0,0.0,0.0,0.0,0.0,0.0,0.0,0.0,0.0,0.0,0.0,0.0,0.0,0.0,0.0,0.0,0.0,0.0,0.0,0.0,0.0,0.0,0.0,0.0,0.0,0.0,0.0,0.0,0.0,0.0,0.0,0.0,-3.8218,-3.9185,0.0,-4.1738,-4.2234,-4.2939,-4.4114,-4.5978,-4.7638,-4.8978,-4.9575,-5.0542,-5.2098,-5.2713,-5.3703,-5.5179,-5.5742,-5.6286,-5.6851,-5.6797,-5.676,-5.6779,-5.6724,-5.6724,-5.6779,-5.6779,-5.6815,-5.6776,-5.5876,-5.4996,-5.4156,-5.3665,-5.3271,-5.2956,-5.2956,-5.2364,-5.1607,0.0,0.0,0.0,0.0,0.0,0.0,0.0,0.0,0.0,0.0,0.0,-2.0536,-2.1388,-2.2811,-2.4028,-2.4797,-2.6229,-2.7333,-2.8,0.0,0.0,0.0,0.0,0.0,0.0,-2.9494,-3.1283,-3.3894,-3.4936,-3.6602,-3.8814,-3.9319,-3.9878,-4.051,-4.0456,-4.051,-4.049,-3.8979,-3.7721,-3.6589,-3.4714,-3.2839,-3.0956,0.0,0.0,0.0,0.0,0.0,0.0,0.0,0.0,0.0,0.0,0.0,0.0,0.0,0.0,0.0,0.0,0.0,0.0,0.0,0.0,0.0,0.0,0.0,0.0,0.0,0.0,0.0,0.0,0.0,0.0,0.0,0.0,0.0,0.0,-3.4783,-3.7619,-4.0345,-4.1695,-4.2956,-4.4349,-4.5817,-4.6845,-4.7259,-4.9317,-5.0892,-5.1607,-5.2151,-5.2989,-5.4214,-5.4271,-5.4945,-5.6329,-5.6348,-5.6779,-5.7585,-5.7548,-5.7585,-5.7585,-5.7585,-5.7622,-5.7713,-5.7713,-5.7713,-5.7694,-5.7413,-5.6962,-5.6324,-5.49,-5.4375,-5.4334,-5.3703,-5.3072,-5.2538,0.0,0.0,0.0,0.0,0.0,0.0,0.0,0.0,0.0,0.0,-2.03,-2.1151,-2.3539,-2.3775,-2.468,-2.6997,-2.712,-2.7745,-2.9357,-2.8748,0.0,0.0,0.0,0.0,-2.8541,-3.1629,-3.3957,-3.548,-3.7194,-3.885,-4.042,-4.0546,-4.0582,-4.0582,-4.0582,-4.0672,-4.0846,-4.0795,-3.9835,-3.8262,-3.7475,-3.5726,-3.34,0.0,0.0,0.0,0.0,0.0,0.0,0.0,0.0,0.0,0.0,0.0,0.0,0.0,0.0,0.0,0.0,0.0,0.0,0.0,0.0,0.0,0.0,0.0,0.0,0.0,0.0,0.0,0.0,0.0,0.0,0.0,0.0,0.0,-3.4991,-3.7833,-4.0561,-4.2345,-4.5453,-4.7111,-4.6389,-4.8586,-4.9768,-4.8972,-5.0598,-5.236,-5.4035,-5.4275,-5.5076,-5.6574,-5.5169,-5.5471,-5.7714,-5.6183,-5.6612,-5.8899,-5.91,-5.912,-5.9024,-5.9197,-5.9271,-5.929,-5.929,-5.929,-5.9234,-5.8464,-5.8145,-5.7865,-5.5336,-5.4415,-5.4243,-5.2514,-5.1881,-5.2027,0.0,0.0,0.0,0.0,0.0,0.0,0.0,0.0,0.0,0.0,-2.0753,-2.1724,-2.359,-2.461,-2.57,-2.7087,-2.8094,-2.8663,-2.864,0.0,0.0,0.0,0.0,0.0,-3.1721,-3.318,-3.5008,-3.7216,-3.8328,-3.9716,-4.1361,-4.192,-4.2192,-4.223,-4.2192,-4.2229,-4.2322,-4.2468,-4.1868,-4.0761,-3.9549,-3.7544,-3.5217,0.0,0.0,0.0,0.0,0.0,0.0,0.0,0.0,0.0,0.0,0.0,0.0,0.0,0.0,0.0,0.0,0.0,0.0,0.0,0.0,0.0,0.0,0.0,0.0,0.0,0.0,0.0,0.0,0.0,0.0,0.0,-3.6692,-3.8574,-3.9223,-4.1137,-4.3314,-4.5552,-4.7132,-4.8236,-4.8698,-5.0488,-5.1657,-5.1547,-5.3088,-5.4279,-5.4876,-5.5453,-5.5473,-5.4837,-5.6033,-5.65,-5.6126,-5.736,-5.8331,-5.8964,-5.8483,-5.8578,-5.912,-5.8634,-5.8746,-5.929,-5.929,-5.929,-5.9271,-5.9065,-5.8953,-5.8709,-5.678,-5.6067,-5.6011,-5.5435,-5.5193,-5.5175,0.0,0.0,0.0,0.0,0.0,0.0,0.0,0.0,0.0,0.0,-2.1383,-2.2527,-2.4433,-2.529,-2.6257,-2.7503,-2.8342,-2.8795,-2.8764,0.0,0.0,0.0,0.0,-3.2755,-3.3494,-3.4909,-3.6572,-3.8419,-3.9679,-4.0908,-4.2212,-4.2663,-4.2862,-4.29,-4.288,-4.288,-4.2994,-4.3105,-4.2887,-4.2377,-4.1674,-3.9593,-3.6862,-3.6103,-3.4546,-3.2721,-3.2647,-3.1563,-3.0049,-2.9148,0.0,0.0,0.0,0.0,0.0,0.0,0.0,0.0,0.0,0.0,0.0,0.0,0.0,0.0,0.0,0.0,0.0,0.0,0.0,0.0,0.0,0.0,0.0,0.0,-3.9849,-4.1784,-4.3336,-4.4673,-4.603,-4.7443,-4.8969,-5.0131,-5.0706,-5.2354,-5.3325,-5.3125,-5.4277,-5.5208,-5.5695,-5.6083,-5.5955,-5.51,-5.6405,-5.6703,-5.5847,-5.7169,-5.8213,-5.8884,-5.8497,-5.8555,-5.9061,-5.8652,-5.8747,-5.9178,-5.9234,-5.9234,-5.9178,-5.9234,-5.9196,-5.897,0.0,0.0,0.0,0.0,-5.5844,-5.6307,0.0,0.0,0.0,0.0,0.0,0.0,0.0,0.0,0.0,0.0,0.0,-2.3149,-2.5301,-2.5597,-2.6249,-2.779,-2.8037,-2.85,0.0,0.0,0.0,-3.208,-3.2921,-3.3713,-3.4425,-3.6593,-3.8205,-3.9319,-4.0818,-4.1994,-4.29,-4.29,-4.29,-4.2938,-4.2938,-4.2994,-4.3104,-4.3104,-4.3123,-4.3214,-4.3393,-4.1549,-3.8631,-3.7831,-3.6562,-3.5309,-3.586,-3.4655,-3.2748,-3.2584,0.0,0.0,0.0,0.0,0.0,0.0,0.0,0.0,0.0,0.0,0.0,0.0,0.0,0.0,0.0,0.0,0.0,0.0,0.0,0.0,0.0,0.0,0.0,0.0,-4.2624,-4.4509,-4.6929,-4.8012,-4.8545,-4.8471,-5.072,-5.2312,-5.2428,-5.3952,-5.4642,-5.3998,-5.4611,-5.5375,-5.6178,-5.6402,0.0,0.0,0.0,-5.653,-5.6302,-5.6469,-5.7286,-5.8716,-5.8766,-5.8806,-5.8899,-5.8889,-5.891,-5.8984,-5.9139,-5.9139,-5.9024,-5.9139,-5.9139,-5.8854,-5.7434,-5.6836,-5.6668,-5.5099,-5.5414,-5.6469,0.0,0.0,0.0,0.0,0.0,0.0,0.0,0.0,0.0,-2.0226,-2.0898,-2.1975,-2.3743,-2.4272,-2.4954,-2.6091,-2.726,-2.8674,0.0,0.0,-3.1984,-3.276,-3.4684,-3.581,-3.597,-3.7059,-3.842,-4.0021,-4.0327,-4.1302,-4.2822,-4.2822,-4.2899,-4.3049,-4.3049,-4.3067,-4.3104,-4.316,-4.316,-4.3123,-4.316,-4.2395,-4.1211,-4.0406,-3.9446,-3.831,-3.6445,-3.5457,-3.4865,-3.3691,-3.2928,-3.2345,-3.1473,0.0,0.0,0.0,0.0,0.0,0.0,0.0,0.0,0.0,0.0,0.0,0.0,0.0,0.0,0.0,0.0,0.0,0.0,0.0,0.0,-4.2514,-4.4307,-4.6085,-4.7942,-4.9507,-5.0149,-4.9446,-5.1603,-5.3237,-5.3397,-5.4385,-5.4964,-5.4931,-5.5061,-5.5172,-5.5282,-5.6565,-5.6695,-5.5452,-5.7292,-5.7643,-5.6402,-5.7624,-5.8401,-5.8698,-5.8092,0.0,-5.8881,-5.831,-5.8387,-5.8984,-5.9139,-5.9139,-5.9024,-5.9139,-5.908,-5.8902,-5.8586,-5.8375,-5.8237,-5.794,-5.7973,-5.8215,0.0,0.0,0.0,0.0,0.0,0.0,0.0,0.0,0.0,0.0,-2.1212,-2.2256,-2.388,-2.4226,-2.4723,-2.5664,-2.6774,0.0,0.0,-3.0866,-3.2163,-3.4167,-3.5323,-3.6307,-3.7164,-3.7954,-3.8834,-3.9806,-4.0582,-4.1376,-4.2206,-4.2662,-4.2899,-4.2936,-4.2956,-4.2974,-4.2955,-4.3086,-4.3086,-4.2994,-4.3214,-4.2977,-4.2359,-4.156,-3.9964,-3.7998,-3.7283,-3.5897,-3.4514,-3.4673,-3.4186,-3.3458,-3.3195,-3.2918,-3.2305,0.0,0.0,0.0,0.0,0.0,0.0,0.0,0.0,0.0,0.0,0.0,0.0,0.0,0.0,-3.7357,-3.9452,0.0,-4.3493,-4.5145,-4.6819,-4.82,-4.9067,-5.0579,-5.1445,-5.098,-5.2871,-5.4229,-5.4288,-5.5169,-5.5525,-5.5135,-5.5097,-5.5245,-5.5633,-5.645,-5.6543,-5.5786,-5.7658,-5.7918,-5.6381,-5.7899,-5.8716,-5.8698,-5.8412,-5.849,-5.8899,-5.902,-5.9265,-5.9676,-6.0166,-6.0295,-6.0136,-6.0192,-6.0129,-6.0064,-6.0064,-5.9501,-5.8716,-5.8716,-5.8958,-5.9255,0.0,0.0,0.0,0.0,0.0,0.0,0.0,0.0,0.0,0.0,0.0,-2.2256,-2.3508,-2.3702,-2.4162,0.0,0.0,0.0,0.0,-3.0378,-3.2258,-3.5349,-3.5536,-3.6323,-3.7931,-3.8546,-3.9013,-3.9352,-4.0583,-4.1342,-4.1611,-4.23,-4.2718,-4.286,-4.29,-4.2862,-4.2822,-4.2974,-4.2994,-4.29,-4.3232,-4.3105,-4.2592,-4.1922,-4.0023,-3.7664,-3.7887,-3.629,-3.4202,-3.5369,-3.4911,-3.389,-3.4018,-3.4086,-3.3654,-3.151,-3.1214,0.0,0.0,0.0,0.0,0.0,0.0,0.0,0.0,-3.3625,-3.5404,-3.7607,-3.9491,-4.1438,-4.376,-4.5542,-4.6925,-4.7737,-4.9159,-5.0194,-5.0342,-5.1506,-5.2393,-5.258,-5.3994,-5.4962,-5.492,-5.5672,-5.5918,-5.5319,-5.5152,-5.5317,-5.6004,-5.6357,-5.6469,-5.6302,-5.7862,-5.8085,-5.6825,-5.8107,-5.8758,-5.8739,-5.8881,-5.894,-5.8958,-5.9878,-6.0292,-6.0329,-6.1132,-6.1405,-6.1302,-6.123,-6.1113,-6.0945,-6.0945,-6.0035,-5.8754,-5.9069,-5.9404,-5.9608,0.0,0.0,0.0,0.0,0.0,0.0,0.0,0.0,0.0,0.0,0.0,0.0,0.0,0.0,0.0,0.0,0.0,0.0,0.0,-3.0658,-3.261,-3.5285,-3.5935,-3.6738,-3.7881,-3.7882,-3.8313,-3.9229,-3.9338,-4.0148,-4.1593,-4.172,-4.2211,-4.3067,-4.2938,-4.29,-4.29,-4.29,-4.288,-4.2822,-4.2938,-4.2484,-4.1738,-4.1722,-4.1432,-4.0708,-3.7879,-3.6739,-3.6431,-3.5326,-3.4848,-3.4788,-3.4982,-3.4573,-3.3813,-3.2816,-3.2144,-3.1607,-3.1213,-3.1653,-3.236,-3.3128,-3.3925,-3.4945,0.0,-3.7577,-3.8748,-4.0498,-4.2202,-4.3896,-4.5614,-4.7239,-4.8605,-4.9492,-5.0398,-5.1229,-5.2028,-5.2287,-5.2715,-5.3533,-5.4383,-5.492,-5.4983,-5.519,-5.5602,-5.6178,-5.5602,-5.5153,-5.515,-5.6562,-5.7045,-5.632,-5.7862,-5.8665,-5.8598,-5.8784,-5.8921,-5.8964,-5.9003,-5.9003,-5.9022,-5.99,-6.0292,-6.0329,-6.1032,-6.1302,-6.1279,-6.123,-6.0741,-6.0054,-6.0054,-5.9497,-5.8884,-6.037,-6.0054,-5.8897,0.0,0.0,0.0,0.0,0.0,0.0,0.0,0.0,0.0,0.0,0.0,0.0,0.0,0.0,0.0,0.0,0.0,0.0,-2.7652,-2.9272,-3.1235,-3.3728,-3.4976,-3.6078,-3.711,-3.7524,-3.7971,-3.8507,-3.8941,-3.9482,-4.0166,-4.0709,-4.1088,-4.1357,-4.1413,-4.1358,-4.1319,-4.1901,-4.208,-4.1962,-4.2643,-4.2316,-4.1387,-4.1069,-4.0311,-3.9265,-3.7933,-3.6258,0.0,0.0,-3.4732,-3.4786,-3.4486,-3.4163,-3.3873,-3.3592,-3.2952,-3.2434,-3.2771,-3.3456,-3.4301,-3.5138,-3.6012,-3.7082,-3.8678,-3.9753,-4.0866,-4.2464,-4.4193,-4.5578,-4.6264,-4.8081,-4.9452,-4.9341,-5.0805,-5.2084,-5.2456,-5.2901,-5.3199,-5.3125,-5.3309,-5.366,-5.4258,-5.4428,-5.4782,-5.5544,-5.5283,-5.5486,-5.6413,-5.7119,-5.7565,-5.7695,-5.8364,-5.8758,-5.8899,-5.8899,-5.8921,-5.8984,-5.9081,-5.9081,-5.904,-6.0525,-6.1628,-6.2384,-6.2146,-6.2005,-6.1918,-6.1893,-6.1689,-6.1317,-6.0853,-6.0741,-6.076,-6.0017,-5.9924,-6.0147,0.0,0.0,0.0,0.0,0.0,0.0,0.0,0.0,0.0,0.0,0.0,0.0,0.0,0.0,0.0,0.0,0.0,0.0,0.0,-2.8135,-3.0101,-3.2601,-3.4018,0.0,-3.6251,-3.6987,-3.7416,-3.7608,-3.8366,-3.8798,-3.8976,-3.9716,-4.0057,-4.0029,-4.0236,-4.0236,-4.0139,-4.1061,-4.1258,-4.1017,-4.206,-4.1751,-4.0628,-3.9968,-3.8636,-3.7164,-3.7284,-3.5486,0.0,0.0,-3.3833,-3.3678,-3.3231,-3.3154,-3.3269,-3.3541,-3.3357,-3.3264,-3.4068,-3.5071,-3.6086,-3.6906,-3.8155,-3.9536,-4.0866,-4.1908,-4.3076,-4.4628,-4.5941,-4.6828,-4.6828,-4.8444,-4.9577,-4.9002,-5.0599,-5.1992,-5.2234,-5.2568,-5.2568,-5.1955,-5.1399,-5.1528,-5.2642,-5.3237,-5.4036,-5.528,-5.5373,-5.5893,-5.71,-5.7602,-5.7899,-5.8029,-5.8475,-5.8758,-5.8921,-5.8921,-5.8982,-5.9063,-5.9177,-5.9139,-5.9137,-6.0677,-6.2039,-6.3163,-6.2519,-6.2191,-6.2079,-6.2079,-6.193,-6.1689,-6.1336,-6.141,-6.1521,-5.9961,-6.0165,-6.115,0.0,0.0,0.0,0.0,0.0,0.0,0.0,0.0,0.0,0.0,0.0,0.0,0.0,0.0,0.0,0.0,0.0,0.0,0.0,-2.7944,-2.9962,-3.2586,-3.3419,-3.4353,-3.5408,-3.6112,-3.6523,-3.6629,-3.7184,-3.7858,-3.8605,-3.879,-3.922,-3.9917,-4.0029,-4.0065,-4.0042,-4.081,-4.0721,-4.0113,-4.0999,-4.0466,-3.9085,-3.8294,-3.679,-3.5206,-3.5462,0.0,0.0,0.0,-3.1717,-3.1138,-3.1253,-3.1364,-3.1636,-3.2401,-3.3191,-3.4007,-3.4987,-3.6426,-3.7812,-3.8711,-4.0789,-4.2872,-4.3689,-4.4562,-4.5639,-4.7256,-4.7627,-4.7664,-4.7664,-4.837,-4.8927,-4.8909,-4.9633,-5.0469,-5.1323,-5.0729,-5.0173,-5.0101,-4.8694,-4.8361,-4.9954,-5.1509,-5.3493,-5.6079,-5.6265,-5.6283,-5.6339,-5.7825,-5.7973,-5.6413,-5.7899,-5.8821,-5.9003,-5.9003,-5.912,-5.929,-5.9215,-5.9196,-5.9214,-5.9998,-6.0718,-6.1377,-6.134,-6.1316,-6.1243,-6.1243,-6.0741,-6.0072,-6.089,-6.0704,-6.0072,-6.0853,-6.1168,-6.1317,0.0,0.0,0.0,0.0,0.0,0.0,0.0,0.0,0.0,0.0,0.0,0.0,0.0,0.0,0.0,0.0,0.0,0.0,0.0,-2.5999,-2.7735,-2.9039,-3.0986,-3.2422,-3.3316,-3.4163,-3.4977,-3.5736,-3.5776,-3.5954,-3.6274,-3.6274,-3.6646,-3.7317,-3.7484,-3.7824,-3.8262,-3.9103,-3.9281,-3.9008,-3.9313,-3.9139,-3.8572,-3.7273,-3.6079,-3.4993,0.0,0.0,0.0,0.0,-3.1356,-3.0728,-3.0351,-3.0223,-3.0464,-3.1396,-3.2637,-3.389,-3.4944,-3.6833,-3.8718,-3.9637,-4.1327,-4.3002,-4.3819,-4.4674,-4.5454,-4.5992,-4.6531,-4.6735,-4.6197,-4.7185,-4.8041,-4.811,-4.9208,-5.0341,-5.1286,-5.1156,-5.0766,-5.021,-4.9635,-4.9486,-5.0025,-5.008,-5.112,-5.3664,-5.4408,-5.5246,-5.6246,-5.7323,-5.7899,-5.7899,-5.8419,-5.8821,-5.8984,-5.8942,-5.9022,-5.9215,-5.908,-5.9339,-5.9883,-5.9462,-5.9976,-6.1265,-6.0641,-6.0375,-6.0351,-6.0351,-6.0518,-6.0741,-6.0463,-6.1168,-6.2339,-6.2097,-6.2339,-6.2766,0.0,0.0,0.0,0.0,0.0,0.0,0.0,0.0,0.0,0.0,0.0,0.0,0.0,0.0,0.0,0.0,0.0,0.0,0.0,0.0,-2.59,-2.6799,-2.8702,-2.9998,-3.0503,-3.1305,-3.2247,-3.3312,-3.3389,-3.3618,-3.4006,-3.4252,-3.4585,-3.5041,-3.5507,-3.5913,-3.6312,-3.7147,-3.7482,-3.7422,-3.7422,-3.7461,-3.7379,-3.5807,-3.4765,0.0,0.0,0.0,0.0,0.0,-3.0535,-3.0137,-2.9503,-2.9779,-3.0581,-3.1814,-3.3121,-3.4504,-3.6057,-3.7874,-3.9623,-4.0859,-4.2198,-4.3448,-4.4283,-4.4896,-4.5287,-4.5287,-4.5677,-4.5663,-4.4568,-4.5426,-4.6283,-4.6349,-4.7689,-4.9061,-4.9968,-5.0079,-4.9893,-4.9338,-4.9245,-4.9338,-4.9633,-4.952,-5.0412,-5.2847,-5.3888,-5.4967,-5.6227,-5.7342,-5.8029,-5.8293,-5.8609,-5.8881,-5.9081,-5.904,-5.908,-5.9196,-5.908,-5.9281,-5.9806,-5.9082,-5.9376,-6.0408,-5.9743,-5.9478,-5.9478,-5.9478,-5.998,-6.0723,-6.0463,-6.1521,-6.3156,-6.2914,-6.3111,-6.3437,0.0,0.0,0.0,0.0,0.0,0.0,0.0,0.0,0.0,0.0,0.0,0.0,0.0,0.0,0.0,0.0,0.0,0.0,0.0,0.0,0.0,-2.5773,-2.6692,-2.7203,-2.7203,-2.7767,-2.8523,-2.9516,-3.0076,-3.08,-3.1686,-3.2487,-3.2889,-3.2995,-3.3983,-3.4351,-3.4251,-3.5018,-3.5292,-3.5292,-3.5331,-3.5465,-3.5478,-3.395,0.0,0.0,0.0,0.0,0.0,-2.9213,-2.9358,-2.9329,-2.8879,-3.002,-3.1851,-3.3489,-3.4549,-3.5763,-3.8147,-3.946,-4.0554,-4.2273,-4.3348,-4.4209,-4.5045,-4.5231,-4.5212,-4.5175,-4.5055,-4.4453,-4.2841,-4.3212,-4.3767,-4.3836,-4.5278,-4.6735,-4.7571,-4.7738,-4.7742,-4.7673,-4.7729,-4.806,-4.8906,-4.9812,-5.1337,-5.3571,-5.4614,-5.5471,-5.6134,-5.7751,-5.8349,-5.7689,-5.8471,-5.902,-5.9196,-5.9196,-5.9196,-5.9196,-5.9196,-5.9139,-5.8984,-5.8921,-5.8899,-5.8899,-5.8758,-5.8716,-5.8716,-5.8754,-5.9255,-6.0054,-6.0927,-6.1763,-6.2562,-6.3323,-6.3511,-6.34,0.0,0.0,0.0,0.0,0.0,0.0,0.0,0.0,0.0,0.0,0.0,0.0,0.0,0.0,0.0,0.0,0.0,0.0,0.0,0.0,0.0,0.0,0.0,0.0,0.0,0.0,0.0,0.0,0.0,-2.7208,-2.7558,-2.815,-2.8785,-2.9454,-3.0282,-3.0973,-3.1541,-3.234,-3.2686,-3.2665,0.0,-3.3144,-3.3604,0.0,0.0,0.0,0.0,0.0,-2.8925,-2.9034,-2.9283,-2.9647,-3.0215,-3.112,-3.2356,-3.4091,-3.5198,-3.6289,-3.8265,-3.9853,-4.1193,-4.229,-4.3254,-4.3952,-4.4128,-4.423,-4.4059,-4.3421,-4.319,-4.259,-4.0997,-4.1354,-4.211,-4.2815,-4.436,-4.5982,-4.7497,-4.8221,-4.8593,-4.8558,-4.9203,-4.9684,-4.9905,-5.0826,-5.1903,-5.303,-5.3888,-5.4429,-5.4577,-5.6681,-5.8098,-5.8628,-5.8852,-5.9061,-5.9196,-5.9196,-5.9139,-5.9042,-5.9042,-5.9042,-5.8984,-5.8964,-5.8961,-5.8899,-5.8859,-5.8799,-5.8754,-5.9367,-6.011,-6.0945,-6.1781,-6.2599,-6.3323,-6.3527,-6.3511,-6.34,0.0,0.0,0.0,0.0,0.0,0.0,0.0,0.0,0.0,0.0,0.0,0.0,0.0,0.0,0.0,0.0,0.0,0.0,0.0,0.0,0.0,0.0,0.0,0.0,0.0,0.0,0.0,0.0,0.0,0.0,0.0,-2.5377,-2.6044,-2.6551,-2.7657,-2.8373,-2.8816,0.0,0.0,0.0,0.0,0.0,0.0,0.0,0.0,0.0,0.0,0.0,-2.8588,-2.9129,-2.9725,-3.0541,-3.222,-3.3113,-3.3835,-3.5473,-3.6552,-3.7589,-3.9294,-4.0685,-4.1908,-4.2765,-4.319,-4.3286,-4.2889,-4.276,-4.2297,-4.0769,-4.0541,-4.0171,-3.8584,-3.9571,-4.0799,-4.1354,-4.355,-4.5649,-4.6995,-4.7553,-4.811,-4.8816,-4.9352,-4.9998,-5.0829,-5.1417,-5.2049,-5.2872,-5.3695,-5.4427,-5.51,-5.6779,-5.8124,-5.9063,-5.9081,-5.9139,-5.9234,-5.9215,-5.9177,-5.914,-5.912,-5.912,-5.914,-5.912,-5.9022,-5.8961,-5.8899,-5.8818,-5.8772,-5.9571,-6.0425,-6.128,-6.2097,-6.2896,-6.3602,-6.3602,-6.3465,-6.3307,0.0,0.0,0.0,0.0,0.0,0.0,0.0,0.0,0.0,0.0,0.0,0.0,0.0,0.0,0.0,0.0,0.0,0.0,0.0,0.0,0.0,0.0,0.0,0.0,0.0,0.0,0.0,0.0,0.0,0.0,0.0,0.0,0.0,0.0,0.0,0.0,0.0,0.0,0.0,0.0,0.0,0.0,0.0,0.0,0.0,0.0,0.0,0.0,-2.8025,-2.9386,-3.0523,-3.181,-3.4238,-3.522,-3.5736,-3.7147,-3.8022,-3.8939,-4.0573,-4.1559,-4.2341,-4.3232,-4.3051,-4.2421,-4.1484,-4.112,-4.032,-3.8087,-3.7851,-3.7612,-3.6175,-3.7784,-3.9448,-3.9602,-4.244,-4.4957,-4.603,-4.6252,-4.6921,-4.8556,-4.8853,-4.9663,-5.1529,-5.1678,-5.2068,-5.3091,-5.3709,-5.4759,-5.6388,-5.7303,-5.8258,-5.9196,-5.9215,-5.9253,-5.929,-5.9253,-5.9253,-5.929,-5.9253,-5.9234,-5.9309,-5.9253,-5.9139,-5.9003,-5.8961,-5.884,-5.8772,-5.9701,-6.0518,-6.1298,-6.2209,-6.3007,-6.362,-6.3557,-6.34,-6.3213,0.0,0.0,0.0,0.0,0.0,0.0,0.0,0.0,0.0,0.0,0.0,0.0,0.0,0.0,0.0,0.0,0.0,0.0,0.0,0.0,0.0,0.0,0.0,0.0,0.0,0.0,0.0,0.0,-1.8663,0.0,0.0,0.0,0.0,0.0,0.0,0.0,0.0,0.0,0.0,0.0,0.0,0.0,0.0,0.0,0.0,0.0,0.0,-2.7274,-2.7236,0.0,-3.1621,-3.3226,-3.452,-3.5849,-3.7113,-3.8047,-3.84,-3.8875,-4.054,-4.1156,-4.1515,-4.2304,-4.2496,-4.2046,-4.0528,-3.9651,-3.8793,-3.7552,-3.6747,-3.5955,-3.495,-3.5842,-3.6906,-3.7577,-3.9547,-4.181,-4.404,-4.4911,-4.5997,-4.7783,-4.8621,-4.9769,-5.1597,-5.1765,-5.2417,-5.4037,-5.3662,-5.404,-5.5619,-5.708,-5.8297,-5.9234,-5.9272,-5.9309,-5.929,-5.9309,-5.9309,-5.929,-5.9309,-5.9309,-5.929,-5.9309,-5.9196,-5.8984,-5.9003,-5.8902,-5.8828,-6.0351,-6.1057,-6.1354,-6.2822,-6.349,-6.3602,-6.3465,-6.3354,-6.3213,0.0,0.0,0.0,0.0,0.0,0.0,0.0,0.0,0.0,0.0,0.0,0.0,0.0,0.0,0.0,0.0,0.0,0.0,0.0,0.0,0.0,0.0,0.0,0.0,0.0,-1.8096,-1.784,-1.7873,0.0,-1.774,-1.7864,-1.8503,-1.8864,-1.8907,-1.9728,0.0,0.0,0.0,0.0,0.0,0.0,0.0,0.0,0.0,0.0,0.0,0.0,-2.624,-2.6325,0.0,-3.0438,-3.2223,-3.4193,-3.5611,-3.665,-3.7033,-3.7758,-3.8611,-3.9414,-4.0302,-4.1101,-4.1556,-4.1103,-4.0209,-3.894,-3.7931,-3.6778,-3.4968,-3.4762,-3.4569,-3.3381,-3.455,-3.5869,-3.6394,-3.8077,-4.0222,-4.2802,-4.355,-4.4697,-4.6908,-4.7523,-4.865,-5.0975,-5.0736,-5.1555,-5.4202,-5.3639,-5.409,-5.6103,-5.7753,-5.884,-5.929,-5.929,-5.929,-5.929,-5.9272,-5.9272,-5.929,-5.9178,-5.9178,-5.9309,-5.9272,-5.9158,-5.8984,-5.8984,-5.9126,-5.9422,-6.0685,-6.1447,-6.1949,-6.3156,-6.3557,-6.3511,-6.3492,-6.3354,-6.3213,0.0,0.0,0.0,0.0,0.0,0.0,0.0,0.0,0.0,0.0,0.0,0.0,0.0,0.0,0.0,0.0,0.0,0.0,0.0,0.0,0.0,0.0,0.0,0.0,0.0,0.0,0.0,-1.7462,-1.7361,0.0,0.0,0.0,0.0,0.0,-1.8821,-1.9061,-1.8977,0.0,0.0,0.0,0.0,-2.3357,0.0,0.0,0.0,0.0,0.0,-2.5232,-2.5337,-2.7077,-2.8411,-2.9828,-3.2444,-3.4329,-3.5574,-3.5605,-3.6667,-3.7908,-3.8091,-3.925,-4.0445,-4.0547,-3.9687,-3.8504,-3.7422,-3.6314,-3.4852,-3.2625,-3.2811,-3.3041,-3.2,-3.3382,-3.4871,-3.5421,-3.6942,-3.8982,-4.1617,-4.2063,-4.3225,-4.6238,-4.6392,-4.7462,-5.0549,-5.0062,-5.0806,-5.3921,-5.3714,-5.4446,-5.6774,-5.8258,-5.9121,-5.929,-5.929,-5.929,-5.929,-5.9253,-5.9253,-5.9309,-5.912,-5.914,-5.9309,-5.9215,-5.9139,-5.8984,-5.8984,-5.9238,-5.9738,-6.0778,-6.1577,-6.2246,-6.323,-6.3511,-6.34,-6.3511,-6.3354,-6.3165,0.0,0.0,0.0,0.0,0.0,0.0,0.0,0.0,0.0,0.0,0.0,0.0,0.0,0.0,0.0,0.0,0.0,0.0,0.0,0.0,0.0,0.0,0.0,0.0,0.0,0.0,0.0,-1.7408,-1.7337,0.0,0.0,0.0,0.0,0.0,0.0,-1.7988,-1.8651,-1.8818,0.0,0.0,0.0,0.0,0.0,0.0,0.0,0.0,0.0,-2.4646,-2.4299,-2.5987,-2.6201,-2.6111,-2.7922,-3.1297,-3.4555,-3.4604,-3.5326,-3.6303,-3.703,-3.8045,-3.8927,-3.8927,-3.8879,-3.8345,-3.663,-3.4987,-3.3476,-3.2264,-3.1428,-3.1052,-3.1466,-3.1964,-3.2799,-3.4297,-3.549,-3.7204,-3.9951,-4.0228,-4.1778,-4.6108,-4.5935,-4.713,-5.1293,-5.1003,-5.133,-5.3151,-5.3921,-5.5047,-5.6812,-5.7732,-5.8558,-5.9271,-5.929,-5.929,-5.929,-5.929,-5.929,-5.929,-5.9215,-5.9215,-5.9309,-5.9215,-5.9139,-5.8984,-5.8984,-5.8921,-5.8939,-6.0537,-6.1243,-6.1466,-6.3007,-6.3511,-6.34,-6.326,-6.3147,-6.3002,0.0,0.0,0.0,0.0,0.0,0.0,0.0,0.0,0.0,0.0,0.0,0.0,0.0,0.0,0.0,0.0,0.0,0.0,0.0,0.0,0.0,0.0,0.0,0.0,0.0,0.0,-1.7658,-1.7635,-1.7572,0.0,0.0,0.0,0.0,0.0,0.0,-1.7686,-1.7765,-1.8078,0.0,0.0,0.0,0.0,0.0,0.0,0.0,0.0,0.0,0.0,-2.3342,-2.4507,-2.4708,-2.4684,-2.5897,-2.7818,-2.9994,-3.1709,-3.3262,-3.4588,-3.5418,-3.6437,-3.7257,-3.7257,-3.6948,-3.6287,-3.4895,-3.3632,-3.2327,-3.0769,-3.038,-3.03,-3.0092,-3.0991,-3.2187,-3.3509,-3.46,-3.6029,-3.8228,-3.9393,-4.112,-4.4091,-4.4985,-4.6701,-5.0128,-5.061,-5.1606,-5.3833,-5.4303,-5.4965,-5.6061,-5.7394,-5.8483,-5.9271,-5.929,-5.929,-5.929,-5.929,-5.929,-5.9309,-5.9158,-5.9139,-5.9253,-5.908,-5.9001,-5.8961,-5.8961,-5.9101,-5.9515,-6.0723,-6.1503,-6.2041,-6.3066,-6.34,-6.326,-6.3213,-6.3117,-6.3002,0.0,0.0,0.0,0.0,0.0,0.0,0.0,0.0,0.0,0.0,0.0,0.0,0.0,0.0,0.0,0.0,0.0,0.0,0.0,0.0,0.0,0.0,0.0,0.0,0.0,0.0,-1.7635,-1.7878,-1.7816,-1.7816,0.0,0.0,-1.7681,-1.7687,0.0,0.0,0.0,0.0,0.0,0.0,0.0,0.0,0.0,0.0,0.0,0.0,0.0,0.0,0.0,0.0,0.0,-2.3636,-2.4264,-2.5042,0.0,-2.908,-3.1175,-3.2821,-3.3706,-3.4882,-3.5831,-3.586,-3.5312,-3.4532,-3.3704,-3.2464,-3.1064,-2.9612,-2.9461,-2.9435,-2.913,-3.013,-3.1482,0.0,-3.4157,-3.5575,-3.765,-3.9195,-4.0811,-4.2701,-4.4165,-4.6097,-4.8852,-5.0372,-5.1889,-5.3639,-5.403,-5.4505,-5.5216,-5.6605,-5.7863,-5.8915,-5.8952,-5.9065,-5.929,-5.929,-5.929,-5.9309,-5.9101,-5.9081,-5.9196,-5.898,-5.8769,-5.8545,-5.8806,-5.8874,-5.8958,-6.0555,-6.1391,-6.18,-6.2946,-6.3307,-6.3213,-6.3165,-6.3051,-6.2953,0.0,0.0,0.0,0.0,0.0,0.0,0.0,0.0,0.0,0.0,0.0,0.0,0.0,0.0,0.0,0.0,0.0,0.0,0.0,0.0,0.0,0.0,0.0,0.0,0.0,0.0,0.0,-1.8091,-1.8027,-1.8065,-1.819,-1.7988,-1.7966,-1.8091,0.0,0.0,0.0,0.0,0.0,0.0,0.0,0.0,0.0,0.0,0.0,0.0,0.0,0.0,0.0,0.0,0.0,0.0,0.0,-2.329,-2.4472,0.0,-2.9305,-3.093,-3.1874,-3.3375,-3.472,-3.479,-3.4246,-3.3643,-3.3386,-3.1454,-2.9647,-2.9272,-2.8563,-2.8205,-2.8893,-2.9301,-3.0384,-3.2987,-3.4243,-3.5872,-3.859,-3.9634,-4.0762,-4.2581,-4.3743,-4.5357,-4.7772,-5.0541,-5.2133,-5.204,-5.2875,-5.3704,-5.4371,-5.5197,-5.6399,-5.807,-5.8126,-5.8502,-5.929,-5.929,-5.929,-5.9309,-5.9101,-5.9081,-5.9196,-5.898,-5.8434,-5.767,-5.8545,-5.7906,-5.6599,-5.9868,-6.0704,-6.0141,-6.2483,-6.3307,-6.3165,-6.3051,-6.2904,-6.2805,0.0,0.0,0.0,0.0,0.0,0.0,0.0,0.0,0.0,0.0,0.0,0.0,0.0,0.0,0.0,0.0,0.0,0.0,0.0,0.0,0.0,0.0,0.0,0.0,0.0,0.0,0.0,0.0,0.0,-1.8263,-1.8342,-1.8184,-1.8146,-1.8225,-1.8103,-1.81,0.0,0.0,0.0,0.0,0.0,0.0,-1.8486,0.0,0.0,0.0,0.0,0.0,0.0,0.0,0.0,0.0,0.0,0.0,0.0,-2.4944,-2.7048,-2.9055,-2.9898,-3.0962,-3.1582,-3.0548,-3.09,-3.108,-2.9431,-2.9223,-2.905,-2.7932,-2.7857,-2.8113,-2.8457,-2.9161,-3.0405,-3.2502,-3.4156,-3.5688,-3.7209,-3.9082,-4.0725,-4.1901,-4.503,-4.7861,-4.986,-5.146,-5.25,-5.2849,-5.3773,-5.4326,-5.439,-5.4634,-5.5817,-5.8032,-5.8107,-5.8465,-5.9196,-5.9215,-5.9215,-5.9101,-5.8982,-5.8961,-5.898,-5.884,-5.8609,-5.8368,-5.8628,-5.8163,-5.7342,-6.0072,-6.0642,-6.0018,-6.2346,-6.3194,-6.3051,-6.2904,-6.2855,-6.2805,0.0,0.0,0.0,0.0,0.0,0.0,0.0,0.0,0.0,0.0,0.0,0.0,0.0,0.0,0.0,0.0,0.0,0.0,0.0,0.0,0.0,0.0,0.0,0.0,0.0,0.0,0.0,0.0,0.0,0.0,0.0,0.0,-1.9025,-1.8825,-1.8763,-1.8565,0.0,0.0,0.0,0.0,0.0,0.0,-1.7409,0.0,0.0,0.0,0.0,0.0,0.0,0.0,0.0,0.0,0.0,0.0,0.0,0.0,-2.5323,-2.6843,-2.8045,-2.8938,-2.9323,-2.8433,-2.8711,-2.8846,-2.7317,-2.7496,-2.7781,-2.7147,-2.7415,-2.787,-2.8334,-2.9261,-3.0545,-3.2313,-3.3924,-3.5447,-3.6972,-3.9063,-4.1157,-4.309,-4.597,-4.8409,-5.0096,-5.1556,-5.2569,-5.2949,-5.4094,-5.4673,-5.4458,-5.4424,-5.5254,-5.7112,-5.7488,-5.8146,-5.9234,-5.9215,-5.9139,-5.9081,-5.898,-5.8899,-5.8918,-5.8758,-5.8531,-5.8271,-5.8586,-5.8025,0.0,-5.9658,-6.0135,-5.9442,-6.1809,-6.2656,-6.2579,-6.2745,-6.2805,-6.2805,0.0,0.0,0.0,0.0,0.0,0.0,0.0,0.0,0.0,0.0,0.0,0.0,0.0,0.0,0.0,0.0,0.0,0.0,0.0,0.0,0.0,0.0,0.0,0.0,0.0,0.0,0.0,-1.8336,-1.9063,-1.9528,-1.9709,0.0,0.0,-1.9723,-1.9644,-1.9181,0.0,0.0,0.0,0.0,0.0,0.0,0.0,0.0,0.0,0.0,0.0,0.0,0.0,0.0,0.0,0.0,0.0,0.0,0.0,0.0,0.0,0.0,0.0,-2.7173,-2.7727,-2.7806,-2.738,-2.6881,-2.6606,-2.6195,0.0,-2.6867,-2.7191,-2.7579,-2.8529,-2.958,-3.0822,-3.236,-3.3629,-3.5254,-3.7671,-3.9554,-4.2023,-4.5557,-4.6516,-4.7438,-4.8838,-5.1076,-5.2409,-5.24,-5.3954,-5.4761,-5.4519,-5.4458,-5.4766,-5.5592,-5.638,-5.7582,-5.9196,-5.9196,-5.9158,-5.9102,-5.8942,-5.884,-5.8784,-5.8739,-5.8289,-5.7621,-5.8308,-5.7668,-5.6381,-5.8781,-5.9233,-5.8633,-6.1025,-6.19,-6.185,-6.2561,-6.2805,-6.2805,0.0,0.0,0.0,0.0,0.0,0.0,0.0,0.0,0.0,0.0,0.0,0.0,0.0,0.0,0.0,0.0,0.0,0.0,0.0,0.0,0.0,0.0,0.0,0.0,0.0,0.0,0.0,-1.7549,-1.8395,-1.9142,-1.979,-2.0005,0.0,0.0,0.0,0.0,0.0,0.0,0.0,0.0,0.0,0.0,0.0,0.0,0.0,0.0,-1.7289,-1.7692,0.0,0.0,0.0,0.0,0.0,0.0,0.0,0.0,-2.2933,-2.333,-2.3277,0.0,-2.5544,-2.4436,-2.4909,-2.5374,0.0,-2.4931,-2.5821,-2.6303,-2.6892,-2.7815,-2.9527,-3.0167,-3.0927,-3.2428,-3.4208,-3.6007,-3.7903,-4.0701,-4.3361,-4.5519,-4.6544,-4.7476,-4.8507,-5.0992,-5.252,-5.24,-5.3913,-5.4749,-5.4597,-5.4472,-5.4766,-5.5592,-5.5747,-5.6592,-5.8222,-5.8723,-5.8644,-5.7991,-5.8483,-5.8423,-5.7866,-5.8419,-5.8605,-5.8401,-5.7854,-5.7404,-5.7122,-5.8258,-5.8559,-5.8481,-6.0913,-6.1758,-6.1734,-6.2511,-6.2805,-6.2805,0.0,0.0,0.0,0.0,0.0,0.0,0.0,0.0,0.0,0.0,0.0,0.0,0.0,0.0,0.0,0.0,0.0,0.0,0.0,0.0,0.0,0.0,0.0,0.0,0.0,0.0,0.0,0.0,0.0,-1.9615,0.0,0.0,0.0,0.0,0.0,0.0,0.0,0.0,0.0,0.0,-1.567,0.0,0.0,0.0,0.0,0.0,-1.7117,-1.7628,0.0,-1.926,-2.0195,-2.096,0.0,0.0,0.0,0.0,-2.2127,-2.2686,-2.2345,-2.3259,-2.4217,-2.3776,-2.4081,-2.4385,-2.407,-2.4676,-2.5518,-2.6164,-2.6936,-2.7947,-2.9425,-3.0506,-3.1678,-3.3245,-3.4782,-3.6784,-3.9656,-4.2662,-4.5051,-4.6369,-4.7616,-4.8445,-4.8655,-5.1038,-5.252,-5.24,-5.3883,-5.4717,-5.4584,-5.4458,-5.4597,-5.5047,-5.5282,-5.6032,-5.7342,-5.8051,-5.812,-5.7614,-5.839,-5.8535,-5.8085,-5.8512,-5.8716,-5.8661,-5.7682,-5.7511,-5.7814,-5.7864,-5.7954,-5.8254,-6.0038,-6.0827,-6.1153,-6.1961,-6.2493,-6.2805,0.0,0.0,0.0,0.0,0.0,0.0,0.0,0.0,0.0,0.0,0.0,0.0,0.0,0.0,0.0,0.0,0.0,0.0,0.0,0.0,0.0,0.0,0.0,0.0,0.0,0.0,0.0,0.0,0.0,0.0,0.0,0.0,-2.1889,0.0,0.0,0.0,0.0,0.0,0.0,-1.629,-1.4738,0.0,0.0,0.0,0.0,0.0,0.0,0.0,0.0,-1.9349,-2.0162,-2.0838,-2.0859,0.0,0.0,0.0,0.0,0.0,-2.2285,-2.2892,-2.375,-2.448,-2.4239,-2.4046,-2.4869,-2.5163,-2.5517,-2.645,-2.7207,-2.8099,-2.9296,-3.099,-3.2751,-3.433,-3.5859,-3.8162,-4.185,-4.4694,-4.6588,-4.7163,-4.8693,-4.9504,-4.8922,-5.1057,-5.2484,-5.2428,-5.3883,-5.4686,-5.4519,-5.4458,-5.4409,-5.4375,-5.4872,-5.5491,-5.6294,-5.7117,-5.745,-5.726,-5.8207,-5.8557,-5.8345,-5.8605,-5.8716,-5.8619,-5.7701,-5.7703,-5.8294,-5.7482,-5.7479,-5.807,-5.9016,-5.9779,-6.0511,-6.13,-6.2108,-6.2805,0.0,0.0,0.0,0.0,0.0,0.0,0.0,0.0,0.0,0.0,0.0,0.0,0.0,0.0,0.0,0.0,0.0,0.0,0.0,0.0,0.0,0.0,0.0,0.0,0.0,0.0,0.0,0.0,0.0,0.0,-2.1126,-2.1992,-2.2037,0.0,0.0,0.0,-1.8928,-1.7291,-1.6592,-1.643,-1.4777,0.0,0.0,0.0,0.0,0.0,0.0,0.0,0.0,-1.8377,-1.9445,-2.016,-2.0221,0.0,0.0,0.0,0.0,0.0,-2.1742,-2.3213,-2.4907,-2.4932,-2.4904,-2.5117,-2.6023,-2.6292,-2.6615,-2.7567,-2.7822,-2.8581,-3.0936,-3.2414,-3.3742,-3.5165,-3.8733,-4.1751,-4.2963,-4.5546,-4.6961,-4.6064,-4.7704,-4.8827,-4.8662,-5.1019,-5.2566,-5.2512,-5.3827,-5.4597,-5.4597,-5.4472,-5.4375,-5.4324,-5.4312,-5.4316,-5.4392,-5.5825,-5.6195,-5.5584,-5.7051,-5.7342,-5.671,-5.8085,-5.8656,-5.8474,-5.7611,-5.7592,-5.8186,-5.7242,-5.7326,-5.807,-5.8896,-5.9703,-6.0511,-6.13,-6.2108,-6.2805,0.0,0.0,0.0,0.0,0.0,0.0,0.0,0.0,0.0,0.0,0.0,0.0,0.0,0.0,0.0,0.0,0.0,0.0,0.0,0.0,0.0,0.0,0.0,0.0,0.0,0.0,0.0,0.0,0.0,-2.088,-2.1747,-2.1714,-2.1542,-2.1249,0.0,0.0,-1.8911,-1.779,-1.7287,-1.7111,0.0,0.0,0.0,0.0,0.0,0.0,0.0,0.0,0.0,0.0,-1.9453,-2.0045,-1.9687,0.0,0.0,0.0,0.0,0.0,-2.1717,-2.3142,-2.4924,-2.5768,-2.6319,-2.6914,-2.7855,-2.8788,-2.9611,-3.0124,-3.091,-3.1904,-3.3088,-3.4137,-3.5484,-3.757,-4.1658,-4.4661,-4.4991,-4.6949,-4.8153,-4.7555,-4.8732,-4.9523,-4.9371,-5.133,-5.271,-5.2967,-5.4018,-5.4603,-5.4505,-5.4424,-5.4375,-5.4308,-5.4181,-5.4073,-5.4,-5.4613,-5.5022,-5.5116,-5.6772,-5.7327,-5.6989,-5.8159,-5.8614,-5.8455,-5.7568,-5.7567,-5.8142,-5.7198,-5.7281,-5.8033,-5.8419,-5.9318,-6.0548,-6.1796,-6.2493,-6.2805,0.0,0.0,0.0,0.0,0.0,0.0,0.0,0.0,0.0,0.0,0.0,0.0,0.0,0.0,0.0,0.0,0.0,0.0,0.0,0.0,0.0,0.0,0.0,0.0,0.0,0.0,-1.8896,-1.917,-2.0569,-2.1693,-2.2545,-2.1779,-2.134,0.0,0.0,0.0,-1.8605,-1.7713,-1.7439,-1.7478,0.0,0.0,0.0,0.0,0.0,0.0,0.0,0.0,0.0,0.0,0.0,0.0,0.0,0.0,0.0,-1.9605,-2.0689,-2.2076,-2.2078,-2.3473,-2.5171,-2.6226,-2.7115,-2.8081,-2.9395,-3.0876,-3.2042,-3.235,-3.3575,-3.4649,-3.4877,-3.5805,-3.74,-4.0148,-4.3719,-4.6247,-4.6457,-4.814,-4.9285,-4.9005,-4.9759,-5.0307,-5.0342,-5.1718,-5.2826,-5.3395,-5.4233,-5.4641,-5.4476,-5.4476,-5.4443,-5.4359,-5.4217,-5.4091,-5.4019,-5.3888,-5.411,-5.4741,-5.6474,-5.7274,-5.7249,-5.8211,-5.8572,-5.8449,-5.7728,-5.7733,-5.8097,-5.7381,-5.7446,-5.7997,-5.7997,-5.8988,-6.0566,-6.2016,-6.2658,-6.2805,0.0,0.0,0.0,0.0,0.0,0.0,0.0,0.0,0.0,0.0,0.0,0.0,0.0,0.0,0.0,0.0,0.0,0.0,0.0,0.0,0.0,0.0,0.0,0.0,0.0,-1.9099,-2.0012,-2.0834,-2.164,-2.2458,-2.3318,-2.2624,-2.1941,-2.1231,0.0,-1.8603,-1.7869,-1.6323,-1.6155,-1.6903,-1.6035,0.0,0.0,0.0,0.0,0.0,0.0,0.0,0.0,0.0,0.0,0.0,0.0,0.0,-2.0316,-2.0381,-2.1586,-2.2923,-2.2923,-2.482,-2.6619,-2.5801,-2.6244,-2.7525,-3.0046,-3.1364,-3.231,-3.3141,-3.3944,-3.4792,-3.5734,-3.7227,-3.9242,-4.2142,-4.4024,-4.5422,-4.6263,-4.859,-4.9892,-4.9015,-4.9735,-5.056,-5.123,-5.2106,-5.2853,-5.3456,-5.4295,-5.4755,-5.4673,-5.4692,-5.4608,-5.4505,-5.4284,-5.4144,-5.4091,-5.3907,-5.3831,-5.3905,-5.5577,-5.6395,-5.6432,-5.7849,-5.8486,-5.8393,-5.8186,-5.8097,-5.7997,-5.7941,-5.7941,-5.7997,-5.7997,-5.8988,-6.0511,-6.1374,-6.2163,-6.2805,0.0,0.0,0.0,0.0,0.0,0.0,0.0,0.0,0.0,0.0,0.0,0.0,0.0,0.0,0.0,0.0,0.0,0.0,0.0,0.0,0.0,0.0,0.0,-1.7115,-1.9152,-1.9874,-2.042,-2.089,-2.2182,-2.2805,-2.2705,-2.1946,0.0,0.0,0.0,-1.8854,-1.8677,-1.8058,-1.8027,-1.8331,-1.7564,-1.7285,0.0,0.0,0.0,0.0,0.0,0.0,0.0,0.0,-1.915,-1.917,-1.9119,-1.9664,-2.0298,-2.0368,-2.1624,-2.2997,-2.2997,-2.4506,-2.6097,-2.6224,-2.7278,-2.873,-3.0429,-3.2786,-3.4868,-3.5817,-3.703,-3.8184,-3.9079,-4.0302,-4.185,-4.3954,-4.5671,-4.7041,-4.7942,-4.9362,-5.0164,-4.9816,-5.0087,-5.0622,-5.1402,-5.1739,-5.2365,-5.3489,-5.3857,-5.4231,-5.4686,-5.4692,-5.4641,-5.4486,-5.4371,-5.4233,-5.4091,-5.3963,-5.3888,-5.3813,-5.4946,-5.5782,-5.6339,-5.7311,-5.7981,-5.8393,-5.8242,-5.8133,-5.7997,-5.7997,-5.7997,-5.8052,-5.8547,-5.9428,-6.0511,-6.13,-6.2108,-6.2805,0.0,0.0,0.0,0.0,0.0,0.0,0.0,0.0,0.0,0.0,0.0,0.0,0.0,0.0,0.0,0.0,0.0,0.0,0.0,0.0,0.0,0.0,0.0,-1.6835,-1.8933,-1.9495,-2.0261,-2.1242,-2.241,-2.2767,-2.2303,0.0,0.0,0.0,0.0,-1.8939,-1.887,-1.8898,-1.8812,-1.8577,-1.8365,-1.8141,0.0,0.0,0.0,0.0,0.0,0.0,0.0,0.0,-1.92,-1.9206,-1.9409,-1.9863,-2.0408,-2.0916,-2.2173,-2.3382,-2.3364,-2.4653,-2.6154,-2.6574,-2.8186,-2.9946,-3.0993,-3.371,-3.6383,-3.768,-3.905,-4.0344,-4.1402,-4.2003,-4.2964,-4.4908,-4.6437,-4.7754,-4.8945,-4.9786,-5.0302,-5.0302,-5.0302,-5.0622,-5.1408,-5.1503,-5.1999,-5.3177,-5.3243,-5.3451,-5.3955,-5.3974,-5.4075,-5.4239,-5.4129,-5.4093,-5.4233,-5.4092,-5.3944,-5.3813,-5.437,-5.5224,-5.632,-5.6936,-5.7685,-5.8393,-5.8197,-5.8088,-5.7997,-5.7997,-5.7997,-5.8052,-5.8621,-5.9318,-6.0126,-6.0915,-6.1722,-6.2475,0.0,0.0,0.0,0.0,0.0,0.0,0.0,0.0,0.0,0.0,0.0,0.0,0.0,0.0,0.0,0.0,0.0,0.0,0.0,0.0,0.0,0.0,0.0,-1.5813,-1.7364,-1.7927,-1.9507,-2.2194,-2.2238,-2.2321,-2.235,-2.0892,0.0,0.0,0.0,-1.8794,-1.8111,-1.8255,-1.7861,-1.7201,-1.8068,-1.7944,-1.741,0.0,0.0,0.0,0.0,0.0,0.0,0.0,-1.9053,-1.9197,-1.9885,-2.0192,-2.0626,-2.2225,-2.3437,-2.4284,-2.4152,-2.5634,-2.7134,-2.6799,-2.8734,-3.0928,-3.1728,-3.3974,-3.6443,-3.8336,-3.9445,-4.057,-4.2113,-4.1822,-4.2195,-4.4874,-4.5935,-4.7057,-4.8869,-4.9805,-5.0302,-5.0302,-5.0302,-5.0603,-5.1408,-5.1484,-5.1777,-5.2436,-5.2493,-5.2465,-5.24,-5.24,-5.2798,-5.3669,-5.3447,-5.3677,-5.4486,-5.4181,-5.3944,-5.3813,-5.3813,-5.4686,-5.632,-5.6834,-5.7562,-5.8375,-5.8088,-5.7997,-5.7997,-5.7997,-5.7997,-5.7997,-5.7997,-5.8492,-5.9318,-6.0107,-6.0915,-6.1722,0.0,0.0,0.0,0.0,0.0,0.0,0.0,0.0,0.0,0.0,0.0,0.0,0.0,0.0,0.0,0.0,0.0,0.0,0.0,0.0,0.0,0.0,0.0,0.0,0.0,0.0,-1.9546,-2.1131,-2.1312,-2.1218,0.0,0.0,0.0,-1.96,0.0,0.0,-1.9062,-1.9719,-1.9555,-1.8878,-1.9146,-1.913,-1.8945,0.0,0.0,0.0,0.0,0.0,0.0,0.0,0.0,0.0,-1.9254,-2.012,-2.1168,-2.1639,-2.292,-2.4262,-2.473,-2.6293,-2.786,-2.8331,-3.0398,-3.256,-3.3518,-3.5337,-3.7502,-3.9879,-4.0656,-4.1342,-4.2957,-4.3141,-4.3897,-4.65,-4.7619,-4.8552,-4.9716,-5.0078,-5.0255,-5.0302,-5.0302,-5.0397,-5.0641,-5.066,-5.0931,-5.1661,-5.1737,-5.1931,-5.2381,-5.24,-5.2504,-5.2691,-5.3138,-5.3395,-5.3421,-5.3882,-5.3963,-5.3734,-5.3734,-5.4232,-5.5229,-5.5942,-5.6688,-5.7449,-5.7849,-5.7997,-5.7997,-5.7997,-5.7997,-5.7997,-5.7997,-5.8492,-5.9318,-6.0107,-6.0915,-6.1722,0.0,0.0,0.0,0.0,0.0,0.0,0.0,0.0,0.0,0.0,-1.3746,-1.3761,0.0,0.0,0.0,0.0,0.0,0.0,0.0,0.0,0.0,0.0,0.0,0.0,0.0,-1.7588,-1.8788,0.0,0.0,0.0,0.0,0.0,0.0,-1.9808,0.0,-2.0609,-1.9939,-2.0825,-2.037,-1.9105,-1.9421,-1.9393,-1.9117,0.0,0.0,0.0,0.0,0.0,0.0,0.0,0.0,0.0,-1.9327,-2.0083,-2.0984,-2.1653,-2.3411,-2.5217,-2.5546,-2.7059,-2.8823,-2.9843,-3.1584,-3.3761,-3.6441,-3.7664,-3.8844,-4.1127,-4.1613,-4.2193,-4.3853,-4.4246,-4.5038,-4.7253,-4.8338,-4.92,-5.0092,-5.0188,-5.0212,-5.0302,-5.0302,-5.0302,-5.0302,-5.0255,-5.0392,-5.085,-5.0836,-5.0965,-5.1339,-5.1358,-5.1481,-5.1744,-5.2465,-5.2892,-5.3046,-5.3697,-5.3907,-5.3658,-5.3637,-5.3776,-5.4151,-5.5336,-5.627,-5.7055,-5.7712,-5.7997,-5.7997,-5.7997,-5.7997,-5.7997,-5.7997,-5.8309,-5.8822,-5.963,-6.0438,-6.1245,0.0,0.0,0.0,0.0,0.0,0.0,0.0,0.0,0.0,0.0,-1.3746,-1.3793,0.0,0.0,0.0,0.0,0.0,0.0,0.0,0.0,0.0,0.0,0.0,0.0,0.0,0.0,0.0,0.0,0.0,0.0,0.0,0.0,-1.9618,-2.0521,0.0,-2.1235,-2.0673,-2.1456,-2.0504,-1.8466,-1.9207,-1.9059,-1.8471,-1.9059,0.0,0.0,0.0,0.0,0.0,0.0,0.0,0.0,-1.9719,-1.9989,-2.0313,-2.1904,-2.4255,-2.6328,-2.622,-2.7767,-2.9723,-3.1172,-3.2465,-3.4637,-3.9529,-4.0222,-4.0302,-4.2073,-4.2461,-4.3019,-4.4683,-4.509,-4.5703,-4.7324,-4.837,-4.927,-5.0068,-5.0188,-5.0231,-5.0278,-5.0302,-5.0302,-5.0278,-5.0182,-5.0108,-5.0082,-4.9978,-4.9871,-4.9807,-4.9807,-5.0118,-5.0749,-5.1506,-5.2183,-5.2869,-5.3493,-5.3683,-5.3491,-5.3465,-5.3378,-5.3261,-5.5024,-5.6282,-5.7103,-5.773,-5.7997,-5.7997,-5.7997,-5.7997,-5.7997,-5.7997,-5.7997,-5.8107,-5.8914,-5.9722,-6.0529,0.0,0.0,0.0,0.0,0.0,0.0,0.0,0.0,0.0,0.0,0.0,0.0,0.0,0.0,0.0,0.0,0.0,0.0,0.0,0.0,0.0,0.0,0.0,0.0,0.0,0.0,0.0,0.0,0.0,0.0,0.0,0.0,0.0,-2.0503,0.0,-2.0818,-2.0683,-2.0926,-2.0344,-1.9263,-1.9419,-1.9405,-1.9257,-1.9298,-1.9167,0.0,0.0,0.0,0.0,0.0,0.0,0.0,-1.9002,-1.954,-2.0151,-2.0532,-2.2021,-2.3848,-2.5084,-2.7273,-2.9591,-3.131,-3.3523,-3.5784,-3.7604,-3.9425,-4.1232,-4.3028,-4.3369,-4.3672,-4.4724,-4.5464,-4.6215,-4.7277,-4.87,-4.9796,-5.0089,-5.0133,-5.0158,-5.0212,-5.0278,-5.0255,-5.0158,-5.0163,-5.0139,-5.0031,-4.9986,-4.9925,-4.9807,-4.9807,-4.9825,-4.9868,-5.0647,-5.1074,-5.1064,-5.2302,-5.2865,-5.2676,-5.3127,-5.3295,-5.3261,-5.5024,-5.6551,-5.7804,-5.7923,-5.7997,-5.7997,-5.7997,-5.7997,-5.7997,-5.7997,-5.7997,-5.8107,-5.8914,-5.9722,-6.0529,0.0,0.0,0.0,0.0,0.0,0.0,0.0,0.0,0.0,0.0,0.0,0.0,0.0,0.0,0.0,0.0,0.0,0.0,0.0,0.0,0.0,0.0,0.0,0.0,0.0,0.0,0.0,0.0,0.0,0.0,0.0,0.0,0.0,-2.1173,0.0,-2.1034,-2.0714,-2.0692,-2.0259,-1.9536,-1.9493,-1.945,-1.9438,-1.9311,-1.9214,-1.9134,-1.9036,0.0,0.0,0.0,0.0,0.0,0.0,0.0,-2.0131,-2.0511,-2.2141,-2.407,-2.5365,-2.7669,-3.0372,-3.3138,-3.5162,-3.6919,-3.8671,-4.0401,-4.2011,-4.3369,-4.3956,-4.4378,-4.4819,-4.5918,-4.6904,-4.7321,-4.8852,-5.0031,-5.0082,-5.0133,-5.0158,-5.0207,-5.0231,-5.0207,-5.0108,-5.0108,-5.0082,-5.0005,-4.9978,-4.9898,-4.975,-4.975,-4.9692,-4.9551,-5.0322,-5.0828,-5.102,-5.2117,-5.2772,-5.2932,-5.3197,-5.3658,-5.4381,-5.5269,-5.6536,-5.7997,-5.7997,-5.8042,-5.8088,-5.8042,-5.8042,-5.8106,-5.8042,-5.7997,-5.8052,-5.8474,-5.9134,-5.9942,0.0,0.0,0.0,0.0,0.0,0.0,0.0,0.0,0.0,0.0,0.0,0.0,0.0,0.0,0.0,0.0,0.0,0.0,0.0,0.0,0.0,0.0,0.0,0.0,0.0,0.0,0.0,0.0,0.0,0.0,0.0,0.0,0.0,-2.2103,0.0,-2.1496,-2.0911,-2.0733,-2.023,-1.9597,-1.9489,-1.9398,-1.9375,-1.9248,-1.9166,-1.9082,-1.8966,-1.8914,-1.8878,-1.877,0.0,0.0,0.0,0.0,-2.0146,-2.0813,-2.2674,-2.4751,-2.5647,-2.8095,-3.1318,-3.5036,-3.6569,-3.7736,-3.9928,-4.1411,-4.2475,-4.3061,-4.407,-4.4895,-4.4938,-4.6334,-4.7473,-4.7448,-4.8929,-5.0108,-5.0108,-5.0182,-5.0207,-5.0188,-5.0188,-5.0163,-5.0082,-5.0031,-5.0005,-4.9978,-4.9925,-4.9816,-4.9692,-4.9692,-4.9623,-4.949,-5.0147,-5.0796,-5.1417,-5.2117,-5.2735,-5.3318,-5.3285,-5.4026,-5.539,-5.5537,-5.64,-5.7795,-5.7941,-5.7969,-5.7949,-5.7987,-5.8061,-5.8133,-5.8042,-5.7997,-5.7997,-5.7997,-5.851,-5.9336,0.0,0.0,0.0,0.0,0.0,0.0,0.0,0.0,0.0,0.0,-1.3746,-1.3826,0.0,0.0,0.0,0.0,0.0,0.0,0.0,0.0,0.0,0.0,0.0,0.0,0.0,0.0,0.0,0.0,0.0,0.0,-2.0604,0.0,0.0,-2.2916,0.0,-2.1925,-2.1782,-2.1127,-2.0364,-1.9601,-1.9578,-1.9479,-1.9305,-1.9289,-1.9212,-1.9099,-1.9087,-1.9001,-1.8895,-1.8807,-1.8788,0.0,0.0,0.0,-2.0096,-2.015,-2.1388,-2.2937,-2.3873,-2.7276,-3.1424,-3.4963,-3.6588,-3.7416,-3.7668,-4.014,-4.2219,-4.1567,-4.3275,-4.4919,-4.4986,-4.6358,-4.7523,-4.7571,-4.8979,-5.0133,-5.0182,-5.0188,-5.0182,-5.0133,-5.0163,-5.0114,-4.9933,-4.9978,-4.9978,-4.9925,-4.9843,-4.9778,-4.9692,-4.9634,-4.9563,-4.949,-4.9602,-4.9971,-5.0642,-5.119,-5.1844,-5.2545,-5.3005,-5.3683,-5.4583,-5.5262,-5.6088,-5.7005,-5.7703,-5.7593,-5.7024,-5.7721,-5.7997,-5.8042,-5.7997,-5.7997,-5.7997,-5.7997,-5.851,-5.9336,0.0,0.0,0.0,0.0,0.0,0.0,0.0,0.0,0.0,0.0,0.0,-1.388,0.0,0.0,0.0,0.0,0.0,0.0,0.0,0.0,0.0,0.0,0.0,0.0,0.0,0.0,0.0,0.0,0.0,0.0,-2.0804,-2.0692,-2.1578,-2.3252,-2.2933,-2.2502,-2.2017,-2.1716,-2.1328,-2.0949,-2.0982,-2.0938,-2.0812,-2.0812,-2.0423,-2.0001,-2.086,-2.0535,-1.974,-2.0137,-1.9956,-1.9507,-1.9004,0.0,0.0,0.0,-2.1554,-2.2854,-2.4784,-2.7169,-2.9829,-3.2847,-3.5108,-3.6669,-3.7036,-3.9849,-4.2252,-4.1869,-4.3426,-4.4895,-4.4919,-4.6383,-4.7547,-4.7498,-4.8979,-5.0139,-5.0158,-5.0139,-5.0133,-5.0108,-5.0089,-5.0038,-4.9906,-4.9925,-4.9933,-4.9879,-4.9843,-4.9778,-4.9692,-4.9653,-4.9563,-4.949,-4.9409,-4.972,-5.0459,-5.1076,-5.1955,-5.3043,-5.3171,-5.3653,-5.4418,-5.4766,-5.5372,-5.6198,-5.7446,-5.7602,-5.6967,-5.7712,-5.8042,-5.8088,-5.8042,-5.7997,-5.7997,-5.7997,-5.8217,-5.8639,0.0,0.0,0.0,0.0,0.0,0.0,0.0,0.0,0.0,0.0,0.0,0.0,0.0,0.0,0.0,0.0,0.0,0.0,0.0,0.0,0.0,0.0,0.0,0.0,0.0,0.0,0.0,0.0,0.0,-1.7924,-2.0819,-2.0723,-2.164,-2.3385,-2.359,-2.3332,-2.2719,-2.2532,-2.239,-2.2359,-2.2405,-2.2263,-2.2036,-2.2463,-2.1865,-2.1016,-2.2612,-2.2209,-2.1061,-2.1606,-2.1369,-2.0717,-1.9849,-2.0101,0.0,0.0,0.0,-2.3371,-2.5823,-2.7166,-2.8513,-3.1191,-3.3721,-3.5724,-3.6573,-3.9289,-4.1732,-4.1964,-4.3369,-4.4649,-4.4881,-4.6212,-4.7267,-4.7194,-4.8509,-4.9534,-4.9504,-4.967,-4.9727,-4.9474,-4.9594,-4.958,-4.9299,-4.9462,-4.9595,-4.9568,-4.9702,-4.9778,-4.9692,-4.9653,-4.9563,-4.9521,-4.939,-4.965,-5.0393,-5.1299,-5.2308,-5.3499,-5.34,-5.3631,-5.413,-5.4332,-5.4644,-5.5078,-5.6959,-5.7334,-5.6717,-5.7684,-5.8106,-5.8152,-5.8042,-5.7997,-5.7997,-5.7997,-5.7997,-5.8125,0.0,0.0,0.0,0.0,0.0,0.0,0.0,0.0,0.0,0.0,0.0,0.0,0.0,0.0,0.0,-1.4185,-1.4255,-1.4293,-1.4293,-1.4293,-1.4331,-1.4387,0.0,0.0,-1.4589,0.0,0.0,0.0,0.0,-1.9036,-2.0895,-2.0692,-2.1578,-2.3337,-2.4102,-2.4437,-2.4433,-2.3668,-2.3329,-2.3322,-2.3325,-2.2812,-2.2176,-2.3685,-2.3209,-2.1943,-2.3548,-2.3585,-2.285,-2.2831,-2.2795,-2.2612,-2.1661,-2.1933,-2.2569,0.0,0.0,0.0,-2.6008,-2.7145,-2.8452,-3.1143,-3.3142,-3.4716,-3.5572,-3.7934,-4.0174,-4.0999,-4.256,-4.4009,-4.4834,-4.5798,-4.6477,-4.6542,-4.727,-4.7842,-4.7842,-4.8476,-4.8637,-4.7751,-4.8353,-4.8517,-4.7605,-4.8268,-4.8734,-4.8672,-4.9372,-4.9778,-4.9692,-4.9653,-4.9593,-4.9593,-4.9402,-4.965,-5.0393,-5.1714,-5.2749,-5.3499,-5.3499,-5.3418,-5.3392,-5.4165,-5.4062,-5.3463,-5.5981,-5.6507,-5.582,-5.749,-5.8106,-5.7997,-5.7997,-5.7997,-5.7997,-5.7997,-5.7997,-5.8125,0.0,0.0,0.0,0.0,0.0,0.0,0.0,0.0,0.0,0.0,0.0,0.0,0.0,-1.5085,-1.5311,-1.5777,-1.5873,-1.5901,-1.5905,-1.5901,-1.5914,-1.5941,-1.6046,-1.611,-1.6128,-1.6532,0.0,0.0,0.0,-1.7869,-2.0052,-1.9407,-2.0344,-2.2554,-2.3375,-2.4344,-2.535,-2.5052,-2.4939,-2.4993,-2.5498,-2.5534,-2.5344,-2.5906,-2.5758,-2.5386,-2.6451,-2.6265,-2.5412,-2.4838,-2.5299,-2.561,-2.2684,-2.2997,-2.4295,-2.3682,-2.3735,-2.4121,-2.4728,-2.5562,-2.662,-2.8162,-3.0299,-3.2387,-3.3709,-3.6596,-3.9211,-4.0091,-4.2128,-4.387,-4.4163,-4.538,-4.6349,-4.6373,-4.7082,-4.7662,-4.7709,-4.7862,-4.7889,-4.7585,-4.7808,-4.784,-4.7511,-4.7758,-4.7922,-4.7896,-4.8083,-4.8418,-4.8957,-4.8842,-4.898,-4.9446,-4.9308,-4.9799,-5.1041,-5.1528,-5.2381,-5.3616,-5.3616,-5.3558,-5.3459,-5.3654,-5.3553,-5.3345,-5.538,-5.5999,-5.5721,-5.7381,-5.8042,-5.7997,-5.7997,-5.7997,-5.7997,-5.7997,-5.7997,-5.8033,0.0,0.0,0.0,0.0,0.0,0.0,0.0,0.0,0.0,0.0,0.0,0.0,0.0,0.0,-1.595,-1.6692,-1.6783,-1.6802,-1.6787,-1.6798,-1.6812,-1.6844,-1.694,-1.7001,-1.7021,-1.7417,0.0,0.0,0.0,0.0,0.0,-1.8957,-1.9746,-2.1697,-2.2536,-2.399,-2.5779,-2.5498,-2.5721,-2.6299,-2.7139,-2.7511,-2.7656,-2.8446,-2.8446,-2.8127,-2.9176,-2.8969,-2.8109,-2.7512,-2.801,-2.8304,-2.5023,-2.4654,-2.5239,-2.4351,-2.4315,-2.4501,-2.4167,-2.5142,-2.6307,-2.6604,-2.8672,-3.0974,-3.2378,-3.5008,-3.7502,-3.8704,-4.1086,-4.3016,-4.3266,-4.4753,-4.5912,-4.5936,-4.6416,-4.6805,-4.6851,-4.6982,-4.701,-4.6749,-4.6928,-4.696,-4.6676,-4.6903,-4.7049,-4.7049,-4.7238,-4.7556,-4.8115,-4.7985,-4.8246,-4.8909,-4.908,-4.975,-5.0952,-5.0971,-5.1621,-5.2862,-5.3139,-5.3172,-5.3053,-5.3271,-5.3318,-5.3387,-5.5067,-5.5742,-5.5721,-5.7381,-5.8042,-5.7997,-5.8042,-5.8042,-5.7997,-5.8042,-5.8042,-5.7997,0.0,0.0,0.0,0.0,0.0,0.0,0.0,0.0,0.0,0.0,0.0,0.0,0.0,0.0,0.0,-1.6908,-1.6913,-1.687,-1.687,-1.6866,-1.6894,-1.6959,-1.704,-1.7101,-1.717,-1.8006,-1.8435,0.0,0.0,0.0,0.0,0.0,-1.9874,-2.0829,-2.1697,-2.3412,-2.5649,-2.4949,-2.56,-2.7209,-2.807,-2.8499,-2.8854,-3.1141,-3.1046,-2.9907,-3.1439,-3.1532,-3.0858,-3.0723,-3.08,-3.0576,-2.8738,-2.6948,-2.5354,-2.4522,-2.4854,-2.5335,0.0,0.0,0.0,-2.6919,-2.8547,-3.0594,-3.1626,-3.3175,-3.4977,-3.6861,-3.9315,-4.1374,-4.2189,-4.3817,-4.5049,-4.5115,-4.5154,-4.5192,-4.5192,-4.5803,-4.5941,-4.5105,-4.5702,-4.5824,-4.499,-4.5672,-4.614,-4.6088,-4.6859,-4.7288,-4.7173,-4.7183,-4.7456,-4.8021,-4.8688,-4.9368,-5.0098,-5.0098,-5.0489,-5.1195,-5.1991,-5.2264,-5.2161,-5.3053,-5.3359,-5.3298,-5.5061,-5.5698,-5.5765,-5.7471,-5.8106,-5.7997,-5.8152,-5.8106,-5.7997,-5.8152,-5.8106,-5.7997,0.0,0.0,0.0,0.0,0.0,0.0,0.0,0.0,0.0,0.0,0.0,0.0,0.0,0.0,0.0,-1.8753,-1.8713,-1.8665,-1.8599,-1.8605,-1.8624,-1.8642,-1.8698,-1.8771,-1.8828,-1.9124,-1.9271,0.0,0.0,0.0,0.0,0.0,0.0,0.0,-2.112,-2.1971,-2.3296,-2.4818,-2.6464,-2.8109,-2.8896,-2.9964,-3.1166,-3.184,-3.2178,-3.2332,-3.22,-3.2366,-3.2495,-3.1257,-3.1984,-3.3004,-3.07,-2.8015,-2.5763,-2.6004,-2.5912,-2.5782,-2.6061,0.0,0.0,0.0,0.0,0.0,-3.0615,-3.1862,-3.3395,-3.5781,-3.7891,-3.9567,-4.0426,-4.2069,-4.3254,-4.319,-4.4262,-4.5125,-4.5125,-4.5247,-4.5276,-4.5029,-4.5195,-4.5233,-4.5005,-4.5195,-4.5328,-4.5304,-4.5488,-4.5836,-4.6377,-4.6751,-4.7503,-4.8824,-4.8375,-4.8757,-5.0098,-5.0098,-5.0489,-5.1195,-5.1417,-5.1767,-5.2259,-5.2404,-5.2847,-5.3511,-5.4981,-5.5723,-5.592,-5.7426,-5.8042,-5.7997,-5.8152,-5.8106,-5.7997,-5.8152,-5.8106,-5.7997,0.0,0.0,0.0,0.0,0.0,0.0,0.0,0.0,0.0,0.0,0.0,0.0,0.0,0.0,0.0,-1.9557,-1.9752,-1.974,-1.9375,-1.9344,-1.9344,-1.9341,-1.9405,-1.9464,-1.9536,-1.9578,-1.962,0.0,0.0,0.0,0.0,0.0,0.0,0.0,0.0,-2.1806,-2.2421,-2.4535,-2.6378,-2.7994,-2.9157,-3.0659,-3.2296,-3.3271,-3.3534,-3.3462,-3.4043,-3.4323,-3.4301,-3.3325,-3.3412,-3.3568,-3.1416,-2.9398,-2.7718,-2.7103,-2.7121,-2.7289,-2.7065,-2.7475,-2.8015,-2.8203,0.0,0.0,-2.9913,-3.0835,-3.189,-3.344,-3.5746,-3.7602,-3.8033,-3.9924,-4.1374,-4.1194,-4.2096,-4.3373,-4.4871,-4.5038,-4.4991,-4.4991,-4.4986,-4.4943,-4.4943,-4.4943,-4.4943,-4.4943,-4.4919,-4.5098,-4.5533,-4.6036,-4.6731,-4.7673,-4.769,-4.8147,-4.9094,-4.9429,-4.9988,-5.0694,-5.0639,-5.1007,-5.1704,-5.1977,-5.2401,-5.2972,-5.4491,-5.5392,-5.5945,-5.7059,-5.7749,-5.807,-5.7873,-5.7857,-5.8042,-5.8223,-5.8179,-5.7997,0.0,0.0,0.0,0.0,0.0,0.0,0.0,0.0,0.0,0.0,0.0,0.0,0.0,0.0,0.0,0.0,-2.0299,-2.0323,-1.9604,-1.9475,-1.9416,-1.9409,-1.9479,-1.9522,-1.9601,-1.9601,-1.9628,0.0,0.0,0.0,0.0,0.0,0.0,0.0,0.0,0.0,-2.2369,-2.3958,-2.5649,-2.7366,-2.911,-3.0863,-3.2675,-3.4851,-3.4795,-3.3819,-3.6032,-3.6348,-3.5766,-3.5766,-3.4708,-3.3165,-3.1594,-3.097,-3.042,-2.8185,-2.854,-2.9344,-2.7792,-2.854,-2.9551,-2.8671,-2.9063,0.0,-2.9511,-3.0107,-3.0744,-3.0859,-3.3299,-3.5383,-3.5282,-3.7404,-3.9096,-3.8852,-3.9145,-4.0604,-4.414,-4.4573,-4.4564,-4.4683,-4.4654,-4.4605,-4.463,-4.4706,-4.4762,-4.4762,-4.4838,-4.4903,-4.4947,-4.5284,-4.5544,-4.5731,-4.6829,-4.7516,-4.7701,-4.8407,-4.9117,-4.9842,-4.9732,-5.0044,-5.0796,-5.1495,-5.1897,-5.211,-5.3681,-5.4865,-5.5754,-5.6389,-5.7242,-5.8039,-5.7519,-5.756,-5.7914,-5.8344,-5.8294,-5.8042,0.0,0.0,0.0,0.0,0.0,0.0,0.0,0.0,0.0,0.0,0.0,0.0,0.0,0.0,0.0,0.0,-2.1079,-2.0685,-2.0548,-1.9874,-1.9489,-1.9485,-1.9504,-1.9536,-1.9597,-1.9587,-1.9614,0.0,0.0,0.0,0.0,0.0,0.0,0.0,0.0,0.0,-2.1505,-2.2526,-2.468,-2.75,-2.9217,-3.1241,-3.3392,-3.448,-3.4724,-3.4499,-3.4924,-3.4977,-3.4846,-3.4846,-3.4577,-3.4124,-3.3173,-3.2402,-3.1609,-3.0489,-3.0434,-3.049,-2.9476,-2.9889,-3.0433,-2.957,-2.9961,0.0,-2.9522,-3.0004,-3.0782,-3.1329,-3.1982,-3.259,-3.3105,-3.4303,-3.5175,-3.5076,-3.6348,-3.8413,-4.1387,-4.1693,-4.1938,-4.281,-4.2791,-4.2767,-4.2863,-4.3483,-4.3899,-4.3929,-4.4486,-4.5117,-4.5798,-4.5077,-4.5225,-4.6536,-4.6047,-4.6382,-4.7683,-4.78,-4.8213,-4.8864,-4.879,-4.9119,-4.985,-5.0016,-5.0809,-5.2118,-5.3028,-5.3994,-5.4954,-5.557,-5.6423,-5.7371,-5.795,-5.777,-5.7313,-5.8109,-5.8286,-5.8152,0.0,0.0,0.0,0.0,0.0,0.0,0.0,0.0,0.0,0.0,0.0,0.0,0.0,0.0,0.0,0.0,0.0,0.0,0.0,0.0,-2.0653,-2.022,-1.9778,-1.9587,-1.966,-1.9636,0.0,0.0,0.0,0.0,0.0,0.0,0.0,0.0,0.0,-2.1985,-2.3163,-2.3612,-2.5942,-2.9355,-2.9355,-3.0553,-3.2543,-3.4225,-3.43,-3.3712,-3.5329,-3.5866,-3.5897,-3.631,-3.5874,-3.5008,-3.4287,-3.37,-3.3074,-3.188,-3.1824,-3.1879,-3.064,-3.0584,-3.0809,-3.0358,-3.0225,0.0,0.0,-2.9967,-3.0185,-3.098,-3.1016,-3.0991,-3.133,-3.209,-3.2514,-3.2077,-3.3192,-3.4785,-3.6794,-3.925,-4.1229,-4.2229,-4.1893,-4.1774,-4.2332,-4.2319,-4.2629,-4.3529,-4.4342,-4.4985,-4.542,-4.4804,-4.4815,-4.564,-4.5426,-4.5709,-4.6541,-4.7244,-4.799,-4.875,-4.8605,-4.8955,-4.9651,-4.9651,-5.0112,-5.0961,-5.211,-5.3166,-5.4183,-5.5165,-5.5705,-5.5945,-5.726,-5.7457,-5.7111,-5.8079,-5.8312,-5.8197,-1.4717,0.0,0.0,0.0,0.0,0.0,0.0,0.0,0.0,0.0,0.0,0.0,0.0,-2.4214,-2.4382,-2.2557,0.0,0.0,-2.2328,-2.2525,-2.2412,-2.17,-2.0522,-1.9967,-2.0169,-1.9882,0.0,0.0,0.0,0.0,0.0,0.0,0.0,0.0,0.0,-2.3446,-2.5292,-2.5146,-2.7476,-3.113,-2.9611,-3.0073,-3.1896,-3.4112,-3.4112,-3.3355,-3.6163,-3.7152,-3.7192,-3.7826,-3.7174,-3.5938,-3.5155,-3.487,-3.4508,-3.2918,-3.299,-3.3189,-3.1371,-3.1128,-3.1334,-3.1164,-3.0693,-3.0448,0.0,0.0,0.0,-3.0482,-3.0249,-2.9953,-2.9934,-3.0369,-3.0513,-2.9874,-3.054,-3.1525,-3.2641,-3.6443,-3.9543,-4.0684,-4.0141,-4.0042,-4.1056,-4.0693,-4.1135,-4.2882,-4.3819,-4.4298,-4.4272,-4.4436,-4.4515,-4.4458,-4.5028,-4.5425,-4.5605,-4.6943,-4.8007,-4.882,-4.8678,-4.8882,-4.9432,-4.9597,-4.9763,-4.9984,-5.1393,-5.2559,-5.3529,-5.4834,-5.5012,-5.4699,-5.667,-5.7143,-5.6934,-5.8049,-5.8356,-5.8242,-1.4785,-1.4794,0.0,0.0,0.0,0.0,0.0,0.0,0.0,0.0,0.0,-2.3084,-2.5389,-2.6453,-2.7204,-2.7767,-2.8085,-2.7816,-2.6821,-2.5399,-2.4558,-2.4449,-2.2133,-2.1189,-2.191,-2.0514,-2.0138,0.0,0.0,0.0,0.0,0.0,0.0,0.0,-2.1352,-2.3175,-2.6024,-2.5316,-2.738,-3.103,-3.0135,-3.1197,-3.3431,-3.4353,-3.5047,-3.5628,-3.6712,-3.7103,-3.7099,-3.7141,-3.7103,-3.6877,-3.6023,-3.5821,-3.5583,-3.3864,-3.3957,-3.4088,-3.1522,-3.1933,-3.2929,-3.2075,-3.2331,-3.2795,-3.2739,0.0,-3.1209,-3.042,0.0,-2.9033,-2.8967,0.0,0.0,-2.8931,-2.9667,-3.0577,-3.1555,-3.2289,-3.3426,-3.5268,-3.5293,-3.551,-3.6528,-3.7821,-3.9306,-4.1073,-4.207,-4.2498,-4.2333,-4.377,-4.4515,-4.4314,-4.5028,-4.5717,-4.6378,-4.7256,-4.7988,-4.8623,-4.8623,-4.8532,-4.8471,-4.9281,-5.0016,-5.071,-5.1591,-5.2454,-5.3322,-5.4179,-5.4491,-5.4663,-5.7254,-5.7334,-5.616,-5.7821,-5.8393,-5.8349,-1.4794,-1.4822,-1.4877,0.0,0.0,0.0,0.0,0.0,0.0,0.0,0.0,-2.4747,-2.7335,-2.8373,-2.884,-2.8764,-3.0613,-3.0761,-2.8413,-2.7599,-2.74,-2.7831,-2.3982,-2.2429,-2.3733,-2.2154,-2.1469,0.0,-2.1544,0.0,0.0,0.0,0.0,0.0,-2.2521,-2.4582,-2.7604,-2.6754,-2.9055,-3.3167,-3.2241,-3.3108,-3.4883,-3.4415,-3.5003,-3.6228,-3.7374,-3.7793,-3.7868,-3.8302,-3.8182,-3.7765,-3.7357,-3.6948,-3.6487,-3.575,-3.5743,-3.5642,-3.3975,-3.4087,-3.4446,-3.3556,-3.3235,-3.3142,-3.3059,-3.2358,-3.158,-3.1224,0.0,0.0,0.0,0.0,0.0,0.0,-2.9012,-2.9683,-3.015,-2.9882,-3.0658,-3.3443,-3.3265,-3.3262,-3.4188,-3.5852,-3.7338,-3.8496,-3.9908,-4.1099,-4.1916,-4.3171,-4.398,-4.4354,-4.496,-4.5462,-4.5815,-4.6916,-4.7625,-4.7975,-4.8366,-4.8476,-4.8437,-4.9265,-4.9816,-5.022,-5.1467,-5.222,-5.2665,-5.3867,-5.4019,-5.3694,-5.5981,-5.6669,-5.6526,-5.7729,-5.8197,-5.8305,-1.547,-1.5358,-1.5328,-1.5572,0.0,0.0,0.0,0.0,-2.2033,-2.3207,-2.4496,-2.6527,-2.9763,-3.0703,-3.1131,-3.1238,-3.3597,-3.3991,-3.1455,-3.0672,-3.0638,-3.1413,-2.6764,-2.495,-2.6631,-2.4339,-2.3234,0.0,0.0,0.0,0.0,0.0,0.0,0.0,-2.3745,-2.5829,-2.8673,-2.849,-3.0861,-3.4694,-3.4212,-3.4797,-3.5901,-3.5325,-3.5647,-3.6668,-3.8103,-3.8483,-3.8432,-3.917,-3.8915,-3.8295,-3.8197,-3.766,-3.7009,-3.7004,-3.6956,-3.6677,-3.574,-3.5684,-3.569,-3.4803,-3.4171,-3.3766,-3.3771,-3.286,-3.2048,-3.2139,-3.1376,0.0,0.0,0.0,-2.9252,-2.8802,0.0,-2.9191,-2.9291,-2.84,-2.8736,-3.1483,-3.1402,-3.1589,-3.2698,-3.3941,-3.503,-3.5829,-3.7309,-3.8758,-4.0094,-4.1702,-4.2948,-4.369,-4.4748,-4.5419,-4.5674,-4.6826,-4.757,-4.7879,-4.831,-4.8532,-4.8531,-4.9303,-4.98,-5.0094,-5.1412,-5.2146,-5.2481,-5.3634,-5.3719,-5.335,-5.4803,-5.5948,-5.6877,-5.7555,-5.7968,-5.8242,-1.7213,-1.6656,-1.6423,-1.7273,-1.8165,-1.9307,-2.0934,-2.1848,-2.3253,-2.5744,-2.617,-2.817,-3.3187,-3.3821,-3.4824,-3.7215,-3.7638,-3.774,-3.7619,-3.5235,-3.4225,-3.509,-3.0929,-2.9406,-3.1138,-2.7072,-2.5335,-2.6173,0.0,0.0,0.0,0.0,0.0,0.0,-2.4581,-2.6323,-2.8711,-3.0313,-3.2373,-3.4695,-3.549,-3.596,-3.633,-3.7577,-3.7709,-3.737,-3.884,-3.894,-3.8479,-3.9029,-3.882,-3.8289,-3.8128,-3.7622,-3.7088,-3.7028,-3.6913,-3.659,-3.5646,-3.601,-3.6456,-3.5583,-3.5404,-3.5429,-3.5522,-3.4141,-3.2906,-3.3022,-3.2367,-3.179,-3.1902,-3.1206,-3.0644,-3.0626,-2.9874,0.0,0.0,-2.7871,-2.7207,-2.8142,-2.8979,-3.0137,-3.1869,-3.1986,-3.2296,-3.3231,-3.4087,-3.4946,-3.5768,-3.8952,-4.1158,-4.194,-4.4258,-4.5873,-4.6657,-4.7341,-4.8091,-4.8853,-4.8695,-4.8569,-4.855,-4.9283,-5.0013,-5.0802,-5.1628,-5.2435,-5.317,-5.3225,-5.3598,-5.417,-5.4243,-5.532,-5.6804,-5.7125,-5.7728,-5.8393,-1.8958,-1.8388,-1.7735,-1.7585,-1.826,-1.9343,-2.0975,-2.2904,-2.467,-2.6015,-2.769,-3.0312,-3.4388,-3.5851,-3.7072,-3.8487,-3.8722,-3.8738,-3.8695,-3.6252,-3.5682,-3.7668,-3.3617,-3.2121,-3.3813,-3.024,-2.8793,-2.9675,-2.7058,0.0,0.0,0.0,0.0,0.0,-2.4998,-2.622,-2.8642,-3.0264,-3.2349,-3.4701,-3.6592,-3.7497,-3.7713,-3.8164,-3.789,-3.7419,-3.8367,-3.8871,-3.9076,-3.9163,-3.9051,-3.888,-3.8774,-3.8614,-3.8425,-3.8391,-3.8338,-3.8285,-3.846,-3.8738,-3.8933,-3.8541,-3.8174,-3.7745,-3.7198,-3.6623,-3.5776,-3.4195,-3.453,-3.4498,-3.2449,-3.2262,-3.2075,-3.1012,-3.0523,-3.0088,0.0,-2.7957,-2.6785,-2.6525,-2.7191,-2.8138,-2.9319,-2.9893,-3.0562,-3.1424,-3.218,-3.3459,-3.5367,-3.7138,-3.9249,-4.168,-4.3088,-4.4729,-4.6694,-4.7222,-4.7988,-4.8909,-4.8804,-4.8697,-4.8716,-4.951,-4.9952,-5.0168,-5.1511,-5.2224,-5.2454,-5.2986,-5.3268,-5.3401,-5.3506,-5.4496,-5.5962,-5.6665,-5.756,-5.8393,-2.0732,-1.9915,-1.8968,-1.8554,-1.9897,-2.1505,-2.2875,-2.5507,-2.7736,-2.8831,-3.0937,-3.3554,-3.6731,-3.8316,-3.9482,-4.0342,-4.0221,-4.0068,-3.9999,-3.7538,-3.7252,-3.9867,-3.6362,-3.5202,-3.695,-3.3922,-3.2492,-3.2752,-2.9821,-2.8688,0.0,0.0,0.0,0.0,-2.5842,-2.6588,-2.8214,-3.0753,-3.2852,-3.4689,-3.738,-3.8415,-3.8367,-3.8343,-3.789,-3.7419,-3.8319,-3.8964,-3.9436,-3.9583,-3.9621,-3.9621,-3.9593,-3.9547,-3.9547,-3.9547,-3.9666,-3.993,-4.0466,-4.0596,-4.0503,-4.0184,-3.9841,-3.9342,-3.8498,-3.8116,-3.7575,-3.6367,-3.6497,-3.6317,-3.4607,-3.3989,-3.3296,-3.1991,-3.1239,-3.0412,0.0,-2.7791,-2.6674,-2.6154,-2.6543,-2.7173,-2.8012,-2.8905,-2.9609,-3.0068,-3.0524,-3.1765,-3.4,-3.546,-3.7657,-4.0756,-4.2143,-4.396,-4.6203,-4.6761,-4.7509,-4.8497,-4.8674,-4.8732,-4.8824,-4.9602,-5.0065,-5.0245,-5.1277,-5.2029,-5.2459,-5.2697,-5.2931,-5.3103,-5.3164,-5.4136,-5.5603,-5.625,-5.7327,-5.8523,-2.2325,-2.1123,-2.0105,-2.0213,-2.2893,-2.5366,-2.6335,-2.9167,-3.1889,-3.3754,-3.5392,-3.7398,-4.002,-4.1053,-4.1877,-4.2776,-4.2105,-4.1607,-4.159,-3.9146,-3.8877,-4.151,-3.9032,-3.8536,-4.0475,-3.775,-3.6035,-3.5455,-3.1816,-3.0098,0.0,0.0,0.0,0.0,-2.7028,-2.7339,-2.7524,-3.1619,-3.3813,-3.4792,-3.7873,-3.8779,-3.8314,-3.8259,-3.7873,-3.7502,-3.8686,-3.9275,-3.9548,-4.0216,-4.0457,-4.0457,-4.0457,-4.0457,-4.0457,-4.0457,-4.0841,-4.136,-4.1496,-4.1465,-4.1213,-4.064,-4.0513,-4.0318,-3.9556,-3.8801,-3.8473,-3.9298,-3.8252,-3.7418,-3.8164,-3.6335,-3.4458,-3.3604,-3.2029,-3.0263,-2.8465,-2.7436,-2.6857,-2.682,-2.6896,-2.7251,-2.7956,-2.8868,-2.9328,-2.9144,-2.9115,-2.9861,-3.1637,-3.3808,-3.6284,-3.9077,-4.1398,-4.3472,-4.5351,-4.5941,-4.6776,-4.7816,-4.8377,-4.8678,-4.8859,-4.9529,-5.0305,-5.1043,-5.1043,-5.1869,-5.3189,-5.2434,-5.2537,-5.3206,-5.3206,-5.4283,-5.5828,-5.5992,-5.7177,-5.8716,-2.1661,-2.1295,-2.1243,-2.1844,-2.3209,-2.4679,-2.6129,-2.7565,-2.9813,-3.3455,-3.3713,-3.5293,-3.9811,-4.0444,-4.1418,-4.3521,-4.18,-4.0826,-4.1416,-3.9052,-3.8518,-4.0502,-3.8671,-3.9033,-4.2126,-3.7642,-3.6501,-3.8992,-3.35,-3.1514,-3.2759,0.0,0.0,0.0,-2.7509,-2.7627,-2.8308,-3.0546,-3.3331,-3.6416,-3.8391,-3.8857,-3.8418,-3.8801,-3.8565,-3.8174,-3.9013,-3.9693,-4.0263,-4.1043,-4.1293,-4.1293,-4.1293,-4.1293,-4.1293,-4.1293,-4.1382,-4.1588,-4.223,-4.2378,-4.2452,-4.286,-4.2612,-4.2199,-4.1917,-4.1771,-4.1399,-4.0493,-4.0849,-4.0728,-3.8664,-3.8203,-3.7317,-3.4711,-3.2347,-3.0263,-2.8577,-2.811,-2.7681,-2.7101,-2.7494,-2.7641,-2.7251,-2.8574,-2.915,-2.8355,-2.8812,-2.9544,-3.0637,-3.1813,-3.3956,-3.7188,-3.8719,-4.117,-4.4759,-4.541,-4.6539,-4.8183,-4.8706,-4.898,-4.9033,-4.9222,-4.9601,-5.0157,-5.025,-5.106,-5.2312,-5.2155,-5.2537,-5.3206,-5.3206,-5.4307,-5.6048,-5.7352,-5.8201,-5.8716,-2.2652,-2.2136,-2.2304,-2.3515,-2.4724,-2.6225,-2.83,-2.9923,-3.2176,-3.5717,-3.6016,-3.7315,-4.0997,-4.2011,-4.2697,-4.3344,-4.2427,-4.1661,-4.1333,-4.0021,-4.0022,-4.17,-4.0117,-4.0479,-4.3231,-3.96,-3.8536,-4.0215,-3.5248,-3.3108,-3.3655,0.0,0.0,0.0,-2.8091,-2.8112,-2.8717,-3.1353,-3.4173,-3.7019,-3.8585,-3.8984,0.0,-3.9043,-3.92,-3.9317,-4.0085,-4.0598,-4.1033,-4.1909,-4.214,-4.211,-4.211,-4.211,-4.211,-4.211,-4.2328,-4.2656,-4.3132,-4.3243,-4.3354,-4.3899,-4.3701,-4.3409,-4.3457,-4.3189,-4.2818,-4.2352,-4.2371,-4.2053,-4.0734,-3.9914,-3.8365,-3.5146,-3.2497,-3.0507,-2.957,-2.8802,-2.8297,-2.8147,-2.8203,-2.8035,-2.755,-2.8668,-2.8977,-2.7951,-2.8698,-2.9488,-3.0178,-3.1323,-3.3234,-3.6036,-3.8119,-4.0528,-4.3296,-4.4755,-4.6165,-4.7517,-4.8184,-4.8661,-4.9015,-4.9387,-4.9689,-4.9936,-5.0027,-5.0842,-5.2143,-5.1793,-5.2287,-5.329,-5.364,-5.4625,-5.609,-5.7468,-5.8257,-5.8716,-2.4372,-2.3655,-2.379,-2.4989,-2.709,-2.9407,-3.173,-3.3906,-3.623,-3.8903,-3.9753,-4.0826,-4.2717,-4.413,-4.4393,-4.3028,-4.3507,-4.3161,-4.1478,-4.1369,-4.2058,-4.3561,-4.2015,-4.2055,-4.4026,-4.2129,-4.0891,-4.0461,-3.6882,-3.468,-3.3734,0.0,0.0,0.0,-2.8747,-2.8879,-2.93,-3.3047,-3.5492,-3.705,-3.8611,-3.9258,-3.9323,-3.9323,-3.9863,-4.07,-4.1518,-4.1816,-4.1898,-4.2757,-4.3007,-4.2995,-4.2946,-4.2965,-4.2965,-4.2965,-4.3404,-4.3929,-4.3974,-4.3992,-4.3979,-4.4184,-4.4116,-4.4097,-4.4266,-4.3735,-4.3417,-4.4233,-4.325,-4.2471,-4.319,-4.1334,-3.8683,-3.5597,-3.31,-3.1446,-3.1203,-2.9851,-2.9139,-2.9795,-2.9289,0.0,-2.8671,-2.906,-2.8894,-2.782,-2.8713,-2.9492,-2.9965,-3.1476,-3.3253,-3.5293,-3.8199,-4.0365,-4.1745,-4.3983,-4.5612,-4.6592,-4.7345,-4.8129,-4.8946,-4.9745,-5.0116,-5.008,-5.0228,-5.1083,-5.2342,-5.158,-5.2093,-5.3373,-5.4115,-5.5027,-5.6016,-5.6839,-5.7775,-5.8675,-2.4993,-2.6357,-2.7178,-2.5425,-3.006,-3.417,-3.4596,-3.4926,-3.6306,-3.9565,-3.9452,-4.0232,-4.3278,-4.3257,-4.3422,-4.4501,-4.4056,-4.3312,-4.2242,-4.1627,-4.1746,-4.2696,-4.1117,-4.1713,-4.4906,-4.1797,-4.0848,-4.2335,-3.8021,-3.5514,-3.4699,-3.216,-3.0445,-2.951,-2.9581,-3.03,-3.1637,-3.3761,-3.5578,-3.713,-3.8796,-3.9844,-4.0416,-4.0416,-4.0921,-4.1744,-4.2687,-4.2857,-4.2776,-4.3534,-4.3862,-4.393,-4.3831,-4.3782,-4.3782,-4.3782,-4.3893,-4.3974,-4.4005,-4.4055,-4.4184,-4.4255,-4.4314,-4.4354,-4.4383,-4.427,-4.4214,-4.4449,-4.4243,-4.3941,-4.3528,-4.1939,-3.9983,-3.7981,-3.6179,-3.4588,-3.3279,-3.226,-3.1675,-3.1862,-3.1638,-3.1242,-3.0657,-2.9964,-2.9136,-2.81,-2.8765,-2.928,-2.9422,-3.035,-3.1992,-3.4442,-3.5918,-3.8423,-4.2096,-4.3088,-4.4731,-4.7005,-4.7471,-4.8181,-4.9086,-4.978,-5.008,-5.0046,-5.0842,-5.1602,-5.232,-5.2192,-5.2652,-5.3499,-5.369,-5.4692,-5.6084,-5.6232,-5.7233,-5.8553,-2.6963,-2.7585,-2.8184,-2.8341,-3.1832,-3.5207,-3.691,-3.8194,-3.9604,-4.1284,-4.069,-4.1045,-4.3536,-4.3821,-4.3969,-4.4256,-4.4749,-4.4659,-4.3758,-4.3852,-4.4106,-4.4505,-4.2867,-4.2968,-4.5154,-4.2557,-4.1684,-4.2714,-3.9638,-3.7031,-3.4908,-3.3259,-3.1538,-2.9844,-3.0749,-3.2034,-3.3614,-3.5286,-3.6652,-3.7815,-3.9464,-4.06,-4.1285,-4.1285,-4.1763,-4.2511,-4.2997,-4.3381,-4.3725,-4.4087,-4.4237,-4.43,-4.468,-4.4749,-4.4718,-4.4718,-4.4687,-4.4581,-4.4116,-4.4104,-4.4214,-4.4285,-4.4314,-4.4373,-4.4458,-4.444,-4.4468,-4.4524,-4.4578,-4.4388,-4.3636,-4.2077,-4.0484,-3.9212,-3.7299,-3.5555,-3.4374,-3.3526,-3.2882,-3.2462,-3.2352,-3.1994,-3.1235,-3.0639,-3.0076,-2.9488,-2.9412,-2.9558,-2.9898,-3.0779,-3.1877,-3.3229,-3.5791,-3.8177,-4.0356,-4.273,-4.4758,-4.6384,-4.7454,-4.8362,-4.9139,-4.9902,-4.9963,-4.9507,-5.0823,-5.1547,-5.1898,-5.2752,-5.3288,-5.3521,-5.366,-5.4679,-5.6125,-5.6184,-5.7163,-5.8511,-2.9715,-2.9768,-3.0145,-3.1638,-3.3922,-3.6363,-3.8785,-4.126,-4.2878,-4.2943,-4.2438,-4.2579,-4.3885,-4.4676,-4.4767,-4.3956,-4.5355,-4.5973,-4.5223,-4.5927,-4.6373,-4.6349,-4.4886,-4.4414,-4.5129,-4.37,-4.2898,-4.284,-4.1295,-3.8779,-3.5418,-3.4623,-3.2975,-3.0729,-3.2392,-3.4034,-3.5631,-3.7096,-3.823,-3.9196,-4.0483,-4.1443,-4.2118,-4.2118,-4.2717,-4.3558,-4.3558,-4.4148,-4.4936,-4.4936,-4.4653,-4.4464,-4.5238,-4.5469,-4.5444,-4.5631,-4.5525,-4.5201,-4.4513,-4.4277,-4.4274,-4.4314,-4.4344,-4.4373,-4.4487,-4.4515,-4.4524,-4.4605,-4.4685,-4.453,-4.3888,-4.2655,-4.1399,-4.0371,-3.8441,-3.6656,-3.5528,-3.485,-3.4187,-3.3351,-3.3254,-3.3083,-3.2593,-3.1956,-3.1582,-3.1595,-3.0506,-3.0053,-3.0562,-3.1528,-3.2292,-3.2789,-3.6085,-3.8301,-3.9233,-4.2642,-4.4898,-4.6055,-4.7451,-4.8458,-4.9139,-5.0157,-5.0089,-4.9262,-5.1119,-5.1918,-5.2011,-5.3312,-5.3774,-5.3561,-5.3813,-5.4686,-5.5884,-5.6187,-5.7112,-5.8227,-3.332,-3.5164,-3.6058,-3.3949,-3.7637,-4.0673,-4.008,-4.2096,-4.3691,-4.3707,-4.4273,-4.4683,-4.4806,-4.4929,-4.4948,-4.4781,-4.5653,-4.6165,-4.607,-4.6269,-4.6326,-4.6152,-4.539,-4.4962,-4.4919,-4.4743,-4.4341,-4.3675,-4.2737,-4.0523,-3.7141,-3.6407,-3.5022,-3.3222,-3.484,-3.6471,-3.8042,-3.8968,-4.024,-4.1653,-4.1822,-4.2385,-4.3154,-4.3154,-4.4093,-4.5444,-4.5444,-4.6006,-4.6768,-4.6768,-4.5696,-4.4533,-4.5268,-4.5499,-4.563,-4.6358,-4.6059,-4.545,-4.5375,-4.4886,-4.4383,-4.4383,-4.4458,-4.4487,-4.4515,-4.457,-4.4605,-4.4685,-4.4796,-4.4827,-4.4701,-4.4525,-4.3876,-4.2165,-4.1116,-3.9735,-3.7482,-3.7106,-3.6805,-3.6118,-3.5931,-3.6141,-3.6843,-3.4813,-3.3734,-3.4453,-3.2068,-3.0673,-3.0846,-3.1751,-3.2938,-3.4425,-3.5721,-3.7868,-4.094,-4.2648,-4.4712,-4.7068,-4.7604,-4.8296,-4.9157,-5.0652,-5.0803,-5.0135,-5.2531,-5.359,-5.359,-5.3907,-5.3944,-5.3794,-5.3981,-5.4485,-5.5224,-5.6004,-5.6718,-5.7383,-3.5322,-3.5721,-3.6234,-3.673,-3.8518,-4.027,-4.1304,-4.2788,-4.3757,-4.3682,-4.4426,-4.4919,-4.4895,-4.4919,-4.473,-4.4164,-4.5836,-4.6278,-4.4738,-4.6638,-4.7346,-4.6271,-4.6434,-4.6307,-4.5813,-4.5746,-4.5375,-4.4655,-4.4309,-4.2669,-3.9849,-3.9546,-3.8668,-3.7303,-3.7898,-3.9048,-4.0553,-4.0872,-4.1698,-4.2825,-4.3313,-4.4054,-4.4917,-4.5406,-4.6017,-4.6591,-4.6591,-4.6817,-4.7118,-4.7061,-4.6571,-4.609,-4.6866,-4.7098,-4.7018,-4.688,-4.6925,-4.6769,-4.5761,-4.569,-4.5769,-4.5244,-4.5171,-4.5097,-4.4627,-4.4578,-4.4659,-4.4693,-4.477,-4.4821,-4.4745,-4.4297,-4.3743,-4.3064,-4.1814,-4.0443,-3.9091,-3.849,-3.7924,-3.7186,-3.6652,-3.6444,-3.6805,-3.4926,-3.4073,-3.4999,-3.2505,-3.0942,-3.096,-3.2335,-3.3393,-3.3956,-3.6917,-3.9328,-4.1056,-4.3668,-4.5666,-4.709,-4.8288,-4.922,-4.9915,-5.1018,-5.1804,-5.2364,-5.2865,-5.3348,-5.3813,-5.4018,-5.3981,-5.3794,-5.4018,-5.4485,-5.5113,-5.5986,-5.6663,-5.7278,-3.7091,-3.6559,-3.6787,-3.8779,-3.9369,-4.0205,-4.2067,-4.3388,-4.4208,-4.4335,-4.4681,-4.4895,-4.4895,-4.4895,-4.4549,-4.3686,-4.5452,-4.5988,-4.4423,-4.6689,-4.7745,-4.7042,-4.7352,-4.7053,-4.5946,-4.6396,-4.6045,-4.4763,-4.5281,-4.4255,-4.1796,-4.1528,-4.0967,-4.0201,-4.0623,-4.1412,-4.2412,-4.29,-4.3444,-4.4083,-4.4909,-4.566,-4.6299,-4.6864,-4.7297,-4.7532,-4.756,-4.7711,-4.791,-4.7853,-4.7824,-4.7841,-4.8112,-4.8183,-4.8065,-4.7747,-4.7847,-4.7797,-4.6637,-4.6611,-4.6772,-4.6184,-4.6044,-4.5866,-4.5087,-4.5009,-4.5014,-4.4801,-4.477,-4.4846,-4.5059,-4.4384,-4.3792,-4.3818,-4.263,-4.1354,-4.04,-3.9797,-3.9178,-3.8442,-3.7623,-3.7166,-3.7376,-3.6065,-3.5458,-3.6103,-3.4206,-3.2882,-3.2597,-3.3998,-3.487,-3.5039,-3.8491,-4.0805,-4.1723,-4.4542,-4.6449,-4.7429,-4.8818,-4.9802,-5.043,-5.1183,-5.2232,-5.3423,-5.2847,-5.307,-5.3851,-5.4018,-5.3981,-5.3888,-5.4018,-5.4336,-5.476,-5.5596,-5.6351,-5.6992,-3.8956,-3.8823,-3.907,-3.9762,-4.072,-4.1578,-4.2214,-4.3839,-4.5271,-4.6076,-4.5426,-4.4895,-4.4895,-4.4895,-4.4549,-4.3686,-4.4348,-4.518,-4.6006,-4.6234,-4.7042,-4.8617,-4.8052,-4.6792,-4.4859,-4.6575,-4.6239,-4.3725,-4.5513,-4.5042,-4.2468,-4.1608,-4.1162,-4.1146,-4.2761,-4.3371,-4.3388,-4.4984,-4.566,-4.5754,-4.6617,-4.7032,-4.7099,-4.7118,-4.7579,-4.8294,-4.8362,-4.888,-4.9555,-4.9555,-4.9615,-4.9493,-4.8517,-4.8194,-4.8363,-4.9227,-4.887,-4.8194,-4.8176,-4.7594,-4.7022,-4.7071,-4.7032,-4.6797,-4.6055,-4.594,-4.5783,-4.506,-4.4865,-4.506,-4.5911,-4.533,-4.4648,-4.4595,-4.402,-4.298,-4.131,-4.1187,-4.099,-4.0253,-3.9338,-3.9028,-3.9694,-3.914,-3.8645,-3.8395,-3.7845,-3.7166,-3.6379,-3.6977,-3.7791,-3.8706,-4.0338,-4.1901,-4.3447,-4.5089,-4.6732,-4.84,-4.8946,-4.9608,-5.043,-5.1115,-5.1844,-5.2605,-5.2605,-5.3144,-5.3982,-5.4073,-5.4073,-5.3982,-5.4055,-5.3981,-5.3924,-5.4723,-5.5479,-5.6232,-4.057,-4.1011,-4.1658,-4.2446,-4.2803,-4.3023,-4.3156,-4.4662,-4.5488,-4.4543,-4.5704,-4.6165,-4.5028,-4.5426,-4.542,-4.4499,-4.6266,-4.6814,-4.5255,-4.7409,-4.8219,-4.6985,-4.8396,-4.8377,-4.6613,-4.7726,-4.7682,-4.6368,-4.6373,-4.5719,-4.4412,-4.4081,-4.4121,-4.453,-4.5004,-4.544,-4.5866,-4.6373,-4.6599,-4.6655,-4.754,-4.7918,-4.806,-4.8702,-4.9136,-4.9399,-4.9399,-4.9589,-4.9788,-4.975,-4.975,-4.9712,-4.9284,-4.9149,-4.9093,-4.8773,-4.8863,-4.8964,-4.8363,-4.8457,-4.857,-4.798,-4.783,-4.7594,-4.6834,-4.6308,-4.5776,-4.4985,-4.4796,-4.5035,-4.5878,-4.5795,-4.5776,-4.635,-4.5274,-4.4178,-4.3705,-4.2238,-4.1127,-4.0865,-4.015,-4.0,-4.0751,-4.0006,-3.9762,-4.0395,-3.9015,-3.7577,-3.633,-3.7642,-3.8498,-3.866,-4.1869,-4.402,-4.4918,-4.6551,-4.7909,-4.8946,-4.9132,-4.9859,-5.1117,-5.2456,-5.3181,-5.3423,-5.3423,-5.3665,-5.4,-5.4073,-5.4073,-5.4,-5.4055,-5.3981,-5.3905,-5.4704,-5.5127,-5.5325,-4.1708,-4.1958,-4.2357,-4.3103,-4.3232,-4.3322,-4.3553,-4.4838,-4.5583,-4.5073,-4.614,-4.679,-4.6373,-4.6809,-4.6499,-4.4934,-4.6587,-4.7155,-4.5765,-4.7723,-4.8534,-4.7598,-4.9117,-4.9155,-4.746,-4.8586,-4.8523,-4.7067,-4.6625,-4.6355,-4.6233,-4.5846,-4.6043,-4.6657,-4.6632,-4.6781,-4.7099,-4.74,-4.7502,-4.7519,-4.8434,-4.8842,-4.8938,-4.957,-4.9835,-4.9871,-4.9898,-4.9898,-4.9843,-4.9807,-4.9807,-4.9778,-4.9663,-4.9653,-4.951,-4.8923,-4.9107,-4.9377,-4.8893,-4.9119,-4.942,-4.8915,-4.8784,-4.8547,-4.7767,-4.6996,-4.6304,-4.588,-4.5521,-4.5621,-4.6766,-4.6437,-4.638,-4.7594,-4.6603,-4.5602,-4.5351,-4.3516,-4.2155,-4.204,-4.1174,-4.0876,-4.156,-4.1377,-4.1472,-4.2075,-4.1079,-4.0019,-3.9064,-3.9488,-4.0172,-4.1057,-4.3718,-4.562,-4.6646,-4.7597,-4.8608,-4.9646,-5.0247,-5.0834,-5.1435,-5.2754,-5.3348,-5.3348,-5.3386,-5.3628,-5.4037,-5.4164,-5.411,-5.4037,-5.4091,-5.3981,-5.3868,-5.435,-5.4661,-5.4917,-4.2446,-4.2028,-4.1759,-4.2385,-4.2606,-4.2895,-4.3596,-4.454,-4.5689,-4.7112,-4.6809,-4.6999,-4.8439,-4.8704,-4.7795,-4.5275,-4.5861,-4.6694,-4.7432,-4.7522,-4.8282,-4.9853,-5.0019,-4.9271,-4.7536,-4.9195,-4.8872,-4.6398,-4.6511,-4.7007,-4.7777,-4.6978,-4.6969,-4.7696,-4.7696,-4.7587,-4.7409,-4.8164,-4.8418,-4.8375,-4.9254,-4.9653,-4.9721,-4.9778,-4.9807,-4.9835,-4.9871,-4.9871,-4.9807,-4.9807,-4.9807,-4.9807,-4.9721,-4.9692,-4.9663,-4.9551,-4.949,-4.9521,-4.9593,-4.9623,-4.9653,-4.975,-4.975,-4.9514,-4.8758,-4.7918,-4.7313,-4.739,-4.6739,-4.6687,-4.8313,-4.7276,-4.6747,-4.8426,-4.7897,-4.7053,-4.6392,-4.4905,-4.3828,-4.3625,-4.2395,-4.1749,-4.227,-4.312,-4.3605,-4.3396,-4.3691,-4.3855,-4.3843,-4.2379,-4.2655,-4.509,-4.5754,-4.6797,-4.8362,-4.8159,-4.8842,-5.0411,-5.1912,-5.2214,-5.1509,-5.2271,-5.2642,-5.2679,-5.2753,-5.3291,-5.4127,-5.4254,-5.42,-5.4091,-5.4091,-5.4019,-5.3867,-5.3788,-5.4229,-5.4818,-4.3453,-4.3833,-4.4174,-4.4317,-4.4355,-4.4383,-4.4567,-4.5862,-4.6759,-4.6506,-4.7965,-4.8685,-4.7795,-4.8837,-4.9121,-4.7889,-4.8526,-4.9075,-4.9265,-4.9292,-4.9224,-4.9015,-4.961,-4.9478,-4.8427,-4.9421,-4.9364,-4.8175,-4.8324,-4.8166,-4.7732,-4.7567,-4.7865,-4.8528,-4.8528,-4.8738,-4.9107,-4.9315,-4.9332,-4.9292,-4.9558,-4.9721,-4.9778,-4.9843,-4.9871,-4.9871,-4.9879,-4.9898,-4.9871,-4.9871,-4.9871,-4.9871,-4.9807,-4.9778,-4.975,-4.9682,-4.9653,-4.9653,-4.9663,-4.9663,-4.9692,-4.9721,-4.975,-4.957,-4.8785,-4.8472,-4.8166,-4.7529,-4.7245,-4.7409,-4.8469,-4.8337,-4.8412,-4.9416,-4.8337,-4.7321,-4.7207,-4.5261,-4.3779,-4.3696,-4.3418,-4.324,-4.3283,-4.3989,-4.4429,-4.4357,-4.4493,-4.4808,-4.5349,-4.516,-4.501,-4.4976,-4.673,-4.78,-4.8152,-4.8664,-4.9388,-5.0347,-5.1266,-5.1899,-5.2327,-5.2512,-5.2977,-5.3665,-5.3702,-5.3924,-5.4254,-5.42,-5.4127,-5.4091,-5.4037,-5.4298,-5.4621,-5.4522,-5.4488,-5.4485,-4.4223,-4.464,-4.4967,-4.4991,-4.4967,-4.4962,-4.4962,-4.6063,-4.6879,-4.6752,-4.8268,-4.9121,-4.859,-4.9349,-4.9709,-4.9273,-4.9633,-4.9898,-4.9898,-4.9898,-4.9709,-4.9254,-4.9652,-4.969,-4.9254,-4.9724,-4.9777,-4.9442,-4.9105,-4.8924,-4.8881,-4.8541,-4.8766,-4.9477,-4.9477,-4.9626,-4.9871,-4.9843,-4.9778,-4.9692,-4.9721,-4.9778,-4.9807,-4.9871,-4.9898,-4.9898,-4.9898,-4.9898,-4.9898,-4.9898,-4.9871,-4.9843,-4.9807,-4.9807,-4.9807,-4.975,-4.9721,-4.9692,-4.975,-4.975,-4.975,-4.9788,-4.9807,-4.9693,-4.9294,-4.92,-4.9094,-4.8655,-4.8275,-4.8275,-4.9136,-4.8958,-4.8951,-4.9765,-4.8548,-4.7384,-4.6991,-4.5175,-4.3847,-4.3719,-4.4098,-4.4426,-4.4638,-4.5345,-4.5817,-4.5897,-4.5904,-4.6138,-4.6547,-4.703,-4.7062,-4.6556,-4.7664,-4.866,-4.937,-5.038,-5.0882,-5.0871,-5.1955,-5.2531,-5.2605,-5.3033,-5.3535,-5.3982,-5.4055,-5.4128,-5.4308,-5.4146,-5.4091,-5.4091,-5.4019,-5.4148,-5.4322,-5.4123,-5.3939,-5.3701,-4.4762,-4.4895,-4.4919,-4.4967,-4.4967,-4.5024,-4.5157,-4.5897,-4.6752,-4.7491,-4.8344,-4.9121,-4.9822,-4.9898,-4.9898,-4.9898,-4.9898,-4.9898,-4.9898,-4.9898,-4.9898,-4.9898,-4.9898,-4.9898,-4.9898,-4.9978,-5.0057,-5.0163,-4.9447,-4.9496,-5.0259,-4.9595,-4.9652,-5.0302,-5.0302,-5.0231,-5.0108,-5.0031,-4.9925,-4.9807,-4.9807,-4.9807,-4.9835,-4.9871,-4.9898,-4.9898,-4.9898,-4.9898,-4.9898,-4.9898,-4.9871,-4.9835,-4.9835,-4.9835,-4.9835,-4.9835,-4.9778,-4.975,-4.9807,-4.9835,-4.9835,-4.9898,-4.9871,-4.9843,-4.9898,-4.9871,-4.9871,-4.9978,-4.9428,-4.9136,-4.9872,-4.9409,-4.9129,-4.9784,-4.8504,-4.7191,-4.6582,-4.5033,-4.3986,-4.4079,-4.4716,-4.5401,-4.6013,-4.6713,-4.7231,-4.7462,-4.7507,-4.7591,-4.7776,-4.8526,-4.8926,-4.8843,-4.8787,-4.9408,-5.0809,-5.2061,-5.2283,-5.1504,-5.281,-5.3218,-5.2847,-5.3498,-5.3907,-5.4037,-5.4073,-5.42,-5.4308,-5.4146,-5.4091,-5.4073,-5.3982,-5.3886,-5.3801,-5.3543,-5.3292,-5.3032,-4.4876,-4.4895,-4.4895,-4.4895,-4.4938,-4.5166,-4.5905,-4.6721,-4.7536,-4.8382,-4.9197,-4.9746,-4.9879,-4.9843,-4.9835,-4.9835,-4.9835,-4.9843,-4.9898,-4.9898,-4.9898,-4.9898,-4.9898,-4.9898,-4.9898,-4.9978,-5.0005,-5.0031,-5.0024,-5.0073,-5.0212,-5.0145,-5.0187,-5.0302,-5.0302,-5.0231,-5.0108,-5.0031,-4.9952,-4.9871,-4.9835,-4.9816,-4.9898,-4.9898,-4.9898,-4.9898,-4.9898,-4.9898,-4.9898,-4.9898,-4.9879,-4.9898,-4.9898,-4.9898,-4.9898,-4.9898,-4.9871,-4.9871,-4.9898,-4.9898,-4.9898,-4.9898,-4.9933,-4.9952,-4.9925,-4.9978,-5.0057,-5.0005,-4.9936,-4.9905,-4.9986,-4.9936,-4.9879,-4.9906,-4.803,-4.6777,-4.7329,-4.5346,-4.4311,-4.5651,-4.588,-4.6188,-4.6855,-4.7181,-4.7629,-4.8256,-4.8427,-4.8802,-4.9462,-5.0222,-5.0562,-5.0451,-5.0433,-5.0441,-5.0492,-5.1311,-5.1599,-5.1434,-5.1658,-5.2475,-5.3777,-5.3181,-5.342,-5.4273,-5.4146,-5.42,-5.4308,-5.4092,-5.4019,-5.3982,-5.3811,-5.4004,-5.4331,-5.4136,-5.3845,-5.357,-4.4895,-4.4919,-4.4943,-4.4943,-4.4943,-4.5247,-4.612,-4.691,-4.77,-4.8572,-4.9386,-4.9898,-4.9898,-4.9843,-4.9807,-4.9843,-4.9835,-4.9835,-4.9898,-4.9898,-4.9898,-4.9898,-4.9898,-4.9925,-4.9933,-4.9959,-5.0057,-5.0108,-5.0114,-5.0163,-5.0188,-5.0212,-5.0255,-5.0255,-5.0278,-5.0278,-5.0207,-5.0108,-5.0031,-5.0005,-4.9898,-4.9871,-4.9898,-4.9898,-4.9898,-4.9898,-4.9898,-4.9898,-4.9898,-4.9898,-4.9898,-4.9898,-4.9898,-4.9898,-4.9898,-4.9898,-4.9898,-4.9898,-4.9898,-4.9898,-4.9925,-4.9933,-4.9978,-5.0005,-5.0005,-5.0057,-5.0108,-5.0108,-5.0108,-5.0108,-5.0108,-5.0108,-5.0082,-4.9978,-4.7946,-4.6515,-4.6853,-4.5494,-4.4813,-4.562,-4.674,-4.7602,-4.7969,-4.8397,-4.8813,-4.92,-4.9265,-4.9625,-5.0449,-5.0885,-5.1441,-5.2115,-5.1606,-5.1284,-5.1151,-5.137,-5.1504,-5.1577,-5.1934,-5.2566,-5.342,-5.3512,-5.3845,-5.4289,-5.4146,-5.42,-5.4273,-5.4019,-5.3665,-5.3293,-5.3068,-5.3096,-5.3185,-5.2993,-5.298,-5.2976,-4.4895,-4.4943,-4.4986,-4.4986,-4.5138,-4.5575,-4.641,-4.7195,-4.8003,-4.8856,-4.95,-4.9898,-4.9898,-4.9843,-4.9835,-4.9871,-4.9816,-4.9835,-4.9871,-4.9898,-4.9898,-4.9898,-4.9898,-4.9933,-5.0005,-5.0005,-5.0082,-5.0188,-5.0158,-5.0158,-5.0188,-5.0231,-5.0212,-5.0188,-5.0278,-5.0302,-5.0302,-5.0158,-5.0108,-5.0082,-4.9933,-4.9898,-4.9898,-4.9898,-4.9898,-4.9898,-4.9898,-4.9898,-4.9898,-4.9898,-4.9898,-4.9898,-4.9898,-4.9898,-4.9898,-4.9898,-4.9898,-4.9898,-4.9898,-4.9906,-4.9952,-5.0005,-5.0005,-5.0031,-5.0082,-5.0108,-5.0133,-5.0188,-5.0182,-5.0158,-5.0188,-5.0182,-5.0133,-5.0031,-4.8172,-4.6771,-4.6891,-4.6054,-4.5582,-4.605,-4.7612,-4.8734,-4.8998,-4.9465,-4.9807,-4.9879,-5.0033,-5.0383,-5.1017,-5.1471,-5.2292,-5.3578,-5.2865,-5.2146,-5.1565,-5.16,-5.1532,-5.1417,-5.2151,-5.2636,-5.2931,-5.388,-5.4308,-5.4289,-5.4146,-5.4146,-5.4219,-5.3926,-5.346,-5.2939,-5.2511,-5.2262,-5.204,-5.1833,-5.1934,-5.2198,-4.4895,-4.4895,-4.4895,-4.4895,-4.5577,-4.6373,-4.7188,-4.8041,-4.8875,-4.9709,-4.9841,-4.9898,-4.9898,-4.9843,-4.9807,-4.9807,-4.9807,-4.9807,-4.9807,-4.9871,-4.9898,-4.9898,-4.9898,-4.9933,-5.0005,-5.0005,-5.0082,-5.0188,-5.0207,-5.0207,-5.0188,-5.0278,-5.0255,-5.0188,-5.0278,-5.0302,-5.0302,-5.0158,-5.0108,-5.0082,-4.9933,-4.9898,-4.9898,-4.9898,-4.9898,-4.9898,-4.9898,-4.9898,-4.9898,-4.9898,-4.9898,-4.9898,-4.9898,-4.9898,-4.9898,-4.9898,-4.9898,-4.9898,-4.9898,-4.9952,-4.9986,-5.0005,-5.0057,-5.0108,-5.0108,-5.0158,-5.0188,-5.0188,-5.0255,-5.0278,-5.0212,-5.0255,-5.0255,-5.0108,-4.8738,-4.7945,-4.8629,-4.7376,-4.6938,-4.8359,-4.8694,-4.9015,-4.958,-4.9833,-4.9952,-4.9906,-5.058,-5.1063,-5.1166,-5.2492,-5.3654,-5.456,-5.4387,-5.3193,-5.088,-5.1594,-5.148,-5.0586,-5.1447,-5.2252,-5.3035,-5.3915,-5.4308,-5.4289,-5.4146,-5.4073,-5.4019,-5.3851,-5.3775,-5.3627,-5.2654,-5.218,-5.1995,-5.1688,-5.1526,-5.1484,-4.4895,-4.5355,-4.5759,-4.571,-4.6442,-4.7277,-4.8086,-4.845,-4.8935,-4.9749,-4.9788,-4.9788,-4.9816,-4.9778,-4.9778,-4.9843,-4.9871,-4.9871,-4.9925,-4.9978,-5.0005,-4.9879,-4.9898,-4.9933,-5.0005,-5.0005,-5.0082,-5.0188,-5.0158,-5.0158,-5.0188,-5.0231,-5.0255,-5.0278,-5.0278,-5.0325,-5.0348,-5.0182,-5.0108,-5.0082,-4.9933,-4.9871,-4.9843,-4.9843,-4.9816,-4.9778,-4.9778,-4.9788,-4.9843,-4.9843,-4.9871,-4.9898,-4.9898,-4.9898,-4.9898,-4.9898,-4.9898,-4.9925,-4.9952,-4.9978,-5.0005,-5.0057,-5.0108,-5.0163,-5.0207,-5.0255,-5.0278,-5.0278,-5.0278,-5.0302,-5.0278,-5.0278,-5.0278,-5.0182,-4.9253,-4.8624,-4.8852,-4.8381,-4.821,-4.8838,-4.9346,-4.9714,-4.9993,-4.9986,-5.0187,-5.0618,-5.0978,-5.1547,-5.2451,-5.3553,-5.4101,-5.3943,-5.4465,-5.3723,-5.1569,-5.1268,-5.1204,-5.1359,-5.1663,-5.2525,-5.3906,-5.419,-5.4359,-5.4289,-5.4146,-5.4073,-5.4,-5.3851,-5.3515,-5.2939,-5.1933,-5.1464,-5.1231,-5.0474,-5.0763,-5.1526,-4.4895,-4.5645,-4.6301,-4.6252,-4.7125,-4.8055,-4.8636,-4.8859,-4.9183,-4.9731,-4.975,-4.975,-4.9807,-4.9778,-4.9816,-4.9925,-4.9933,-4.9978,-5.0031,-5.0057,-5.0031,-4.9952,-4.9925,-4.9933,-5.0005,-5.0005,-5.0082,-5.0188,-5.0139,-5.0139,-5.0188,-5.0236,-5.0259,-5.0278,-5.0302,-5.0367,-5.0367,-5.0158,-5.0082,-5.0057,-4.9898,-4.9816,-4.9778,-4.9778,-4.975,-4.9692,-4.9721,-4.975,-4.9807,-4.9816,-4.9871,-4.9898,-4.9898,-4.9898,-4.9898,-4.9898,-4.9906,-4.9933,-5.0005,-5.0031,-5.0063,-5.0133,-5.0182,-5.0236,-5.0302,-5.0302,-5.0302,-5.0302,-5.0302,-5.0302,-5.0278,-5.0278,-5.0278,-5.0212,-4.9754,-4.9391,-4.9363,-4.9319,-4.9363,-4.9391,-4.9863,-5.0158,-5.0182,-5.0311,-5.0605,-5.1073,-5.131,-5.1854,-5.2798,-5.3658,-5.3892,-5.3471,-5.4345,-5.4099,-5.256,-5.1607,-5.1299,-5.1581,-5.178,-5.2611,-5.4033,-5.4277,-5.434,-5.4235,-5.4181,-5.4073,-5.3944,-5.3888,-5.3516,-5.2828,-5.1601,-5.1062,-5.0835,-4.9808,-5.0072,-5.0957,-4.4895,-4.5645,-4.6301,-4.6301,-4.7637,-4.8704,-4.8685,-4.9332,-4.9807,-4.9807,-4.9807,-4.9807,-4.9807,-4.9871,-4.9925,-5.0005,-5.0005,-5.0031,-5.0108,-5.0031,-5.0005,-5.0005,-4.9952,-4.9933,-5.0005,-5.0005,-5.0082,-5.0188,-5.0188,-5.0188,-5.0188,-5.0325,-5.0325,-5.0212,-5.0325,-5.0348,-5.0278,-5.0082,-5.0005,-4.9978,-4.9778,-4.9692,-4.9692,-4.9692,-4.9692,-4.9692,-4.9778,-4.9807,-4.9807,-4.9871,-4.9898,-4.9898,-4.9898,-4.9898,-4.9898,-4.9898,-4.9952,-5.0005,-5.0005,-5.0108,-5.0188,-5.0188,-5.0255,-5.0302,-5.0302,-5.0302,-5.0302,-5.0302,-5.0302,-5.0278,-5.0212,-5.0236,-5.0278,-5.0212,-5.0255,-5.0302,-5.0302,-5.0302,-5.0302,-5.0302,-5.0302,-5.0255,-5.0108,-5.0836,-5.125,-5.113,-5.1654,-5.197,-5.1925,-5.2615,-5.3132,-5.3409,-5.4239,-5.439,-5.3707,-5.2767,-5.1857,-5.0907,-5.1676,-5.2427,-5.3226,-5.4033,-5.4287,-5.4091,-5.4254,-5.4092,-5.3813,-5.3944,-5.3944,-5.3645,-5.1862,-5.1157,-5.0969,-4.9908,-4.9517,-4.957,-4.4895,-4.6101,-4.6941,-4.6347,-4.8067,-4.9349,-4.878,-4.9332,-4.9807,-4.9807,-4.975,-4.975,-4.9807,-4.9835,-4.9843,-4.9906,-5.0031,-5.0108,-5.0182,-5.0108,-5.0082,-5.0082,-4.9978,-4.9933,-5.0005,-4.9933,-5.0012,-5.0188,-5.0158,-5.0207,-5.0325,-5.039,-5.0435,-5.0478,-5.0435,-5.0412,-5.0416,-5.0133,-5.0031,-5.0057,-4.9843,-4.975,-4.9692,-4.9692,-4.9653,-4.9582,-4.9653,-4.9692,-4.975,-4.9807,-4.9871,-4.9898,-4.9898,-4.9898,-4.9898,-4.9898,-4.9952,-5.0005,-5.0057,-5.0108,-5.0158,-5.0188,-5.0255,-5.0278,-5.0255,-5.0278,-5.0278,-5.0255,-5.0278,-5.0278,-5.0212,-5.0231,-5.0212,-5.0188,-5.0231,-5.0255,-5.0302,-5.0255,-5.0255,-5.0302,-5.0255,-5.046,-5.1021,-5.1159,-5.1459,-5.1964,-5.2491,-5.2771,-5.2827,-5.3644,-5.4194,-5.4295,-5.4708,-5.4503,-5.3707,-5.3316,-5.3002,-5.2715,-5.2856,-5.3325,-5.4115,-5.4311,-5.434,-5.4235,-5.4289,-5.42,-5.4018,-5.4019,-5.4,-5.3814,-5.1937,-5.1195,-5.099,-4.9398,-4.9154,-4.9551,-4.4895,-4.6044,-4.6871,-4.6353,-4.7751,-4.8882,-4.8776,-4.9067,-4.9447,-4.9769,-4.9778,-4.975,-4.9807,-4.9816,-4.9871,-4.9933,-5.0031,-5.0108,-5.0114,-5.0082,-5.0057,-5.0031,-4.9978,-4.9978,-5.0031,-5.0031,-5.0063,-5.0188,-5.0182,-5.0255,-5.0412,-5.0412,-5.0457,-5.0562,-5.0457,-5.0435,-5.0457,-5.0133,-5.0031,-5.0057,-4.9843,-4.991,-5.0124,-5.0124,-5.0082,-4.9959,-5.0052,-4.9887,-4.9663,-4.9778,-4.9843,-4.9898,-4.9898,-4.9898,-4.9898,-4.9898,-4.9978,-5.0057,-5.0082,-5.0133,-5.0158,-5.0188,-5.0207,-5.0207,-5.0182,-5.0212,-5.0255,-5.0212,-5.0212,-5.0255,-5.0163,-5.0158,-5.0158,-5.0158,-5.0163,-5.0212,-5.0302,-5.0278,-5.0236,-5.0302,-5.0584,-5.0961,-5.1495,-5.1927,-5.2172,-5.2156,-5.2409,-5.248,-5.2226,-5.3395,-5.3962,-5.3785,-5.453,-5.4552,-5.3707,-5.3932,-5.3864,-5.3452,-5.3346,-5.3701,-5.4439,-5.4424,-5.4171,-5.3802,-5.4174,-5.4083,-5.3643,-5.3906,-5.4073,-5.396,-5.24,-5.1584,-5.1138,-4.9621,-4.9121,-4.9095,-4.4895,-4.5645,-4.6288,-4.6278,-4.6884,-4.7669,-4.8441,-4.8583,-4.8842,-4.9504,-4.9712,-4.9769,-4.9712,-4.9833,-4.9925,-4.9986,-5.0057,-5.0082,-4.9986,-5.0005,-4.9978,-4.9925,-4.9978,-5.0057,-5.0108,-5.0182,-5.0207,-5.0212,-5.0259,-5.0325,-5.0412,-5.0412,-5.0435,-5.05,-5.0435,-5.0412,-5.039,-5.0108,-5.0005,-5.0005,-4.9759,-5.0153,-5.0828,-5.0798,-5.0823,-5.0817,-5.0804,-5.0327,-4.9747,-4.9797,-4.99,-4.9993,-5.0012,-5.0012,-5.0012,-5.0039,-5.0062,-5.0108,-5.0108,-5.0158,-5.0188,-5.0207,-5.0133,-5.0082,-5.0082,-5.0139,-5.0188,-5.0188,-5.0188,-5.0163,-5.0108,-5.0108,-5.0108,-5.0108,-5.0158,-5.0212,-5.0302,-5.0302,-5.0321,-5.0417,-5.1123,-5.1634,-5.1787,-5.2943,-5.3164,-5.1869,-5.1888,-5.1603,-5.0855,-5.2414,-5.3088,-5.2598,-5.4035,-5.4489,-5.3792,-5.4511,-5.4432,-5.3503,-5.3478,-5.3776,-5.439,-5.439,-5.3906,-5.3087,-5.3999,-5.3837,-5.3005,-5.3773,-5.4091,-5.4016,-5.3068,-5.2194,-5.1357,-5.036,-4.9326,-4.8363,-4.4895,-4.5645,-4.6074,-4.5342,-4.6436,-4.7245,-4.6834,-4.7851,-4.8488,-4.7977,-4.9056,-4.9625,-4.9,-4.9519,-4.9925,-4.9986,-5.0057,-5.0082,-4.9986,-5.0057,-5.0082,-5.0057,-5.0114,-5.0207,-5.0255,-5.0182,-5.0182,-5.0278,-5.0255,-5.0278,-5.0412,-5.0412,-5.0435,-5.05,-5.0435,-5.0412,-5.039,-5.0057,-4.9978,-5.0057,-4.9788,-5.0193,-5.0959,-5.0919,-5.1242,-5.172,-5.1042,-5.0715,-5.0541,-5.0043,-5.026,-5.0781,-5.0875,-5.0921,-5.0921,-5.0984,-5.0563,-5.0108,-5.0108,-5.0158,-5.0163,-5.0082,-5.0031,-5.0031,-5.0031,-5.0082,-5.0133,-5.0133,-5.0133,-5.0133,-5.0108,-5.0108,-5.0108,-5.0108,-5.0158,-5.0212,-5.0302,-5.0236,-5.0503,-5.1238,-5.1438,-5.2018,-5.3274,-5.3423,-5.3,-5.1869,-5.2531,-5.2578,-5.17,-5.3389,-5.4282,-5.4056,-5.4484,-5.461,-5.4415,-5.4623,-5.4642,-5.4503,-5.444,-5.4439,-5.4472,-5.4424,-5.3958,-5.3193,-5.4052,-5.3906,-5.3178,-5.3826,-5.4146,-5.4125,-5.3069,-5.2085,-5.1121,-5.0138,-4.9061,-4.7901,-4.4943,-4.567,-4.6017,-4.5114,-4.6,-4.6702,-4.6309,-4.6967,-4.7472,-4.7397,-4.8155,-4.8704,-4.8685,-4.9064,-4.9508,-4.9914,-5.0005,-5.0031,-5.0005,-5.0057,-5.0108,-5.0108,-5.0163,-5.0231,-5.0255,-5.0255,-5.0255,-5.0302,-5.0259,-5.0302,-5.0412,-5.0412,-5.0457,-5.0542,-5.0457,-5.0412,-5.0435,-5.0114,-5.0031,-5.0082,-4.9871,-5.0525,-5.1622,-5.1563,-5.1805,-5.2083,-5.1631,-5.0983,-5.0316,-4.9882,-5.0071,-5.0544,-5.0979,-5.0903,-5.0711,-5.1182,-5.0748,-5.0158,-5.0158,-5.0158,-5.0133,-5.0082,-5.0031,-5.0005,-4.9978,-4.9986,-5.0057,-5.0082,-5.0082,-5.0082,-5.0133,-5.0108,-5.0082,-5.0133,-5.0182,-5.0212,-5.0302,-5.0641,-5.1037,-5.1544,-5.2283,-5.3155,-5.4259,-5.3819,-5.3,-5.1935,-5.2747,-5.2905,-5.1976,-5.3244,-5.3941,-5.3884,-5.3591,-5.3384,-5.3365,-5.3497,-5.3723,-5.4088,-5.4452,-5.4557,-5.4439,-5.4458,-5.3973,-5.3226,-5.41,-5.3954,-5.3245,-5.3861,-5.4181,-5.4217,-5.3461,-5.2345,-5.1102,-5.043,-4.8976,-4.7129,-4.5014,-4.558,-4.5846,-4.51,-4.5551,-4.6,-4.6049,-4.6158,-4.6417,-4.6904,-4.7252,-4.765,-4.8238,-4.8567,-4.9079,-4.9849,-5.0005,-5.0031,-5.0031,-5.0082,-5.0133,-5.0133,-5.0163,-5.0231,-5.0231,-5.0325,-5.0367,-5.0302,-5.0302,-5.0325,-5.039,-5.039,-5.0457,-5.0562,-5.0457,-5.0435,-5.0478,-5.0207,-5.0108,-5.0108,-4.9952,-5.0847,-5.2313,-5.2132,-5.23,-5.2598,-5.2265,-5.1231,-4.9958,-4.987,-4.9939,-5.0239,-5.1017,-5.0797,-5.0411,-5.1266,-5.0913,-5.0188,-5.0188,-5.0182,-5.0133,-5.0082,-5.0057,-5.0012,-4.9933,-4.9978,-5.0069,-5.0298,-5.0152,-5.0095,-5.0373,-5.0203,-5.0057,-5.0163,-5.0212,-5.0255,-5.0302,-5.1047,-5.1658,-5.1792,-5.3257,-5.4394,-5.4695,-5.3989,-5.3006,-5.1813,-5.2653,-5.2873,-5.1976,-5.2832,-5.3249,-5.3128,-5.2451,-5.2089,-5.1989,-5.2133,-5.2522,-5.3112,-5.3752,-5.4157,-5.4424,-5.4505,-5.4039,-5.3259,-5.4115,-5.4021,-5.3245,-5.3711,-5.394,-5.3959,-5.3479,-5.2306,-5.0746,-5.0226,-4.8627,-4.6447,-4.5014,-4.5086,-4.5119,-4.4938,-4.499,-4.5085,-4.5085,-4.5759,-4.603,-4.5331,-4.6556,-4.7289,-4.67,-4.8033,-4.9232,-4.9929,-5.0089,-5.0158,-5.0082,-5.0158,-5.0207,-5.0207,-5.0255,-5.0278,-5.0278,-5.0348,-5.0367,-5.0302,-5.0367,-5.0348,-5.0302,-5.0302,-5.0348,-5.0435,-5.0412,-5.0435,-5.0478,-5.0207,-5.0133,-5.0163,-4.9925,-5.0866,-5.2295,-5.1481,-5.2489,-5.4163,-5.258,-5.1437,-5.0689,-5.0789,-5.0875,-5.1092,-5.2001,-5.1798,-5.1383,-5.2253,-5.1402,-5.0188,-5.0188,-5.0255,-5.0231,-5.0057,-5.0089,-5.0139,-5.0012,-5.0031,-5.0317,-5.1135,-5.0621,-5.0285,-5.1154,-5.0647,-5.0108,-5.0188,-5.0255,-5.0302,-5.0302,-5.1047,-5.1868,-5.2556,-5.402,-5.4713,-5.4012,-5.3678,-5.2779,-5.1005,-5.2268,-5.269,-5.1712,-5.3028,-5.3513,-5.2875,-5.2673,-5.237,-5.1912,-5.1879,-5.2019,-5.234,-5.229,-5.3048,-5.4505,-5.4641,-5.4156,-5.3325,-5.4148,-5.4021,-5.3188,-5.3112,-5.2974,-5.2754,-5.1711,-5.0493,-4.9172,-4.7965,-4.714,-4.636,-4.508,-4.5437,-4.5627,-4.5062,-4.5361,-4.5537,-4.5067,-4.538,-4.5475,-4.5071,-4.5684,-4.6197,-4.633,-4.7876,-4.9017,-4.9283,-4.9841,-5.0133,-5.0108,-5.0207,-5.0255,-5.0255,-5.0278,-5.0325,-5.0367,-5.0435,-5.0457,-5.0393,-5.0412,-5.0367,-5.0302,-5.0325,-5.0371,-5.0457,-5.05,-5.054,-5.0542,-5.0348,-5.0259,-5.0255,-5.0057,-5.0692,-5.1792,-5.1877,-5.2532,-5.3305,-5.2416,-5.1586,-5.09,-5.09,-5.0724,-5.0764,-5.202,-5.168,-5.1027,-5.2323,-5.1547,-5.0255,-5.0255,-5.0231,-5.0158,-5.0082,-5.0108,-5.0133,-5.0082,-5.0133,-5.0455,-5.1313,-5.1123,-5.0926,-5.1452,-5.1198,-5.0735,-5.0331,-5.0278,-5.0302,-5.0302,-5.1448,-5.2575,-5.3435,-5.4425,-5.4705,-5.3784,-5.3959,-5.3359,-5.1466,-5.239,-5.257,-5.1504,-5.2048,-5.2438,-5.2587,-5.1785,-5.1258,-5.1054,-5.0767,-5.0892,-5.1424,-5.1484,-5.2076,-5.3112,-5.3182,-5.2994,-5.2578,-5.3438,-5.3292,-5.2409,-5.2202,-5.1746,-5.1028,-4.9838,-4.8812,-4.7901,-4.7087,-4.6542,-4.6077]}]]